<?xml version="1.0" encoding="UTF-8" standalone="no" ?>
<gpx xmlns="http://www.topografix.com/GPX/1/1" xmlns:xsi="http://www.w3.org/2001/XMLSchema-instance" xsi:schemaLocation="http://www.topografix.com/GPX/1/1 http://www.topografix.com/GPX/1/1/gpx.xsd" version="1.1" creator="VisuGPX - https://www.visugpx.com">
  <metadata>
    <name>mrt 03 03 2016</name>
    <desc><![CDATA[bon repos,st gelven]]></desc>
  </metadata>
  <trk>
    <name><![CDATA[mrt 03 03 2016_1]]></name>
    <trkseg>
      <trkpt lat="48.21332" lon="-3.12821">
        <ele>136</ele>
        <time>2016-03-03T11:53:04Z</time>
      </trkpt>
      <trkpt lat="48.21308" lon="-3.1284">
        <ele>141</ele>
        <time>2016-03-03T11:53:30Z</time>
      </trkpt>
      <trkpt lat="48.21306" lon="-3.12843">
        <ele>141</ele>
        <time>2016-03-03T11:53:34Z</time>
      </trkpt>
      <trkpt lat="48.21306" lon="-3.12846">
        <ele>143</ele>
        <time>2016-03-03T11:53:37Z</time>
      </trkpt>
      <trkpt lat="48.21304" lon="-3.12848">
        <ele>146</ele>
        <time>2016-03-03T11:53:40Z</time>
      </trkpt>
      <trkpt lat="48.213" lon="-3.12853">
        <ele>146</ele>
        <time>2016-03-03T11:53:44Z</time>
      </trkpt>
      <trkpt lat="48.21297" lon="-3.12855">
        <ele>146</ele>
        <time>2016-03-03T11:53:47Z</time>
      </trkpt>
      <trkpt lat="48.21294" lon="-3.12858">
        <ele>146</ele>
        <time>2016-03-03T11:53:51Z</time>
      </trkpt>
      <trkpt lat="48.2129" lon="-3.12862">
        <ele>146</ele>
        <time>2016-03-03T11:53:54Z</time>
      </trkpt>
      <trkpt lat="48.21286" lon="-3.12866">
        <ele>144</ele>
        <time>2016-03-03T11:53:58Z</time>
      </trkpt>
      <trkpt lat="48.21282" lon="-3.1287">
        <ele>143</ele>
        <time>2016-03-03T11:54:01Z</time>
      </trkpt>
      <trkpt lat="48.21278" lon="-3.12876">
        <ele>140</ele>
        <time>2016-03-03T11:54:05Z</time>
      </trkpt>
      <trkpt lat="48.21273" lon="-3.12882">
        <ele>138</ele>
        <time>2016-03-03T11:54:09Z</time>
      </trkpt>
      <trkpt lat="48.2127" lon="-3.12888">
        <ele>137</ele>
        <time>2016-03-03T11:54:13Z</time>
      </trkpt>
      <trkpt lat="48.21268" lon="-3.12892">
        <ele>137</ele>
        <time>2016-03-03T11:54:16Z</time>
      </trkpt>
      <trkpt lat="48.21266" lon="-3.12898">
        <ele>137</ele>
        <time>2016-03-03T11:54:20Z</time>
      </trkpt>
      <trkpt lat="48.21263" lon="-3.12903">
        <ele>137</ele>
        <time>2016-03-03T11:54:24Z</time>
      </trkpt>
      <trkpt lat="48.21261" lon="-3.12908">
        <ele>137</ele>
        <time>2016-03-03T11:54:27Z</time>
      </trkpt>
      <trkpt lat="48.21259" lon="-3.12912">
        <ele>136</ele>
        <time>2016-03-03T11:54:30Z</time>
      </trkpt>
      <trkpt lat="48.21255" lon="-3.12918">
        <ele>136</ele>
        <time>2016-03-03T11:54:34Z</time>
      </trkpt>
      <trkpt lat="48.21252" lon="-3.12923">
        <ele>136</ele>
        <time>2016-03-03T11:54:38Z</time>
      </trkpt>
      <trkpt lat="48.21249" lon="-3.12928">
        <ele>136</ele>
        <time>2016-03-03T11:54:42Z</time>
      </trkpt>
      <trkpt lat="48.21246" lon="-3.12933">
        <ele>136</ele>
        <time>2016-03-03T11:54:46Z</time>
      </trkpt>
      <trkpt lat="48.21245" lon="-3.12935">
        <ele>136</ele>
        <time>2016-03-03T11:54:49Z</time>
      </trkpt>
      <trkpt lat="48.21242" lon="-3.12938">
        <ele>136</ele>
        <time>2016-03-03T11:54:53Z</time>
      </trkpt>
      <trkpt lat="48.21238" lon="-3.1294">
        <ele>136</ele>
        <time>2016-03-03T11:54:56Z</time>
      </trkpt>
      <trkpt lat="48.21235" lon="-3.1294">
        <ele>136</ele>
        <time>2016-03-03T11:54:59Z</time>
      </trkpt>
      <trkpt lat="48.21235" lon="-3.12942">
        <ele>136</ele>
        <time>2016-03-03T11:55:03Z</time>
      </trkpt>
      <trkpt lat="48.21234" lon="-3.12946">
        <ele>136</ele>
        <time>2016-03-03T11:55:10Z</time>
      </trkpt>
      <trkpt lat="48.21234" lon="-3.12952">
        <ele>136</ele>
        <time>2016-03-03T11:55:14Z</time>
      </trkpt>
      <trkpt lat="48.21232" lon="-3.12957">
        <ele>136</ele>
        <time>2016-03-03T11:55:18Z</time>
      </trkpt>
      <trkpt lat="48.21229" lon="-3.12962">
        <ele>136</ele>
        <time>2016-03-03T11:55:22Z</time>
      </trkpt>
      <trkpt lat="48.21227" lon="-3.12967">
        <ele>136</ele>
        <time>2016-03-03T11:55:26Z</time>
      </trkpt>
      <trkpt lat="48.21224" lon="-3.12972">
        <ele>136</ele>
        <time>2016-03-03T11:55:30Z</time>
      </trkpt>
      <trkpt lat="48.21222" lon="-3.12977">
        <ele>136</ele>
        <time>2016-03-03T11:55:33Z</time>
      </trkpt>
      <trkpt lat="48.2122" lon="-3.12981">
        <ele>136</ele>
        <time>2016-03-03T11:55:36Z</time>
      </trkpt>
      <trkpt lat="48.21217" lon="-3.12986">
        <ele>136</ele>
        <time>2016-03-03T11:55:40Z</time>
      </trkpt>
      <trkpt lat="48.21213" lon="-3.12992">
        <ele>136</ele>
        <time>2016-03-03T11:55:44Z</time>
      </trkpt>
      <trkpt lat="48.2121" lon="-3.12997">
        <ele>135</ele>
        <time>2016-03-03T11:55:48Z</time>
      </trkpt>
      <trkpt lat="48.21209" lon="-3.13002">
        <ele>134</ele>
        <time>2016-03-03T11:55:52Z</time>
      </trkpt>
      <trkpt lat="48.21209" lon="-3.13007">
        <ele>133</ele>
        <time>2016-03-03T11:55:57Z</time>
      </trkpt>
      <trkpt lat="48.2121" lon="-3.13007">
        <ele>133</ele>
        <time>2016-03-03T11:56:10Z</time>
      </trkpt>
      <trkpt lat="48.21211" lon="-3.13009">
        <ele>133</ele>
        <time>2016-03-03T11:56:14Z</time>
      </trkpt>
      <trkpt lat="48.21212" lon="-3.13011">
        <ele>133</ele>
        <time>2016-03-03T11:56:19Z</time>
      </trkpt>
      <trkpt lat="48.21212" lon="-3.13013">
        <ele>133</ele>
        <time>2016-03-03T11:56:26Z</time>
      </trkpt>
      <trkpt lat="48.21214" lon="-3.13018">
        <ele>133</ele>
        <time>2016-03-03T11:56:30Z</time>
      </trkpt>
      <trkpt lat="48.21215" lon="-3.1302">
        <ele>133</ele>
        <time>2016-03-03T11:56:38Z</time>
      </trkpt>
      <trkpt lat="48.21215" lon="-3.13019">
        <ele>133</ele>
        <time>2016-03-03T11:56:48Z</time>
      </trkpt>
      <trkpt lat="48.21214" lon="-3.13014">
        <ele>133</ele>
        <time>2016-03-03T11:56:52Z</time>
      </trkpt>
      <trkpt lat="48.21213" lon="-3.1301">
        <ele>133</ele>
        <time>2016-03-03T11:57:07Z</time>
      </trkpt>
      <trkpt lat="48.21212" lon="-3.13009">
        <ele>133</ele>
        <time>2016-03-03T11:57:12Z</time>
      </trkpt>
      <trkpt lat="48.21212" lon="-3.13007">
        <ele>134</ele>
        <time>2016-03-03T11:57:28Z</time>
      </trkpt>
      <trkpt lat="48.21211" lon="-3.13004">
        <ele>135</ele>
        <time>2016-03-03T11:57:45Z</time>
      </trkpt>
      <trkpt lat="48.21212" lon="-3.12998">
        <ele>135</ele>
        <time>2016-03-03T11:57:48Z</time>
      </trkpt>
      <trkpt lat="48.21211" lon="-3.12993">
        <ele>135</ele>
        <time>2016-03-03T11:57:51Z</time>
      </trkpt>
      <trkpt lat="48.21212" lon="-3.12987">
        <ele>135</ele>
        <time>2016-03-03T11:57:54Z</time>
      </trkpt>
      <trkpt lat="48.21215" lon="-3.12982">
        <ele>135</ele>
        <time>2016-03-03T11:57:58Z</time>
      </trkpt>
      <trkpt lat="48.21218" lon="-3.12978">
        <ele>135</ele>
        <time>2016-03-03T11:58:02Z</time>
      </trkpt>
      <trkpt lat="48.2122" lon="-3.12974">
        <ele>135</ele>
        <time>2016-03-03T11:58:06Z</time>
      </trkpt>
      <trkpt lat="48.21223" lon="-3.12969">
        <ele>135</ele>
        <time>2016-03-03T11:58:10Z</time>
      </trkpt>
      <trkpt lat="48.21227" lon="-3.12964">
        <ele>135</ele>
        <time>2016-03-03T11:58:14Z</time>
      </trkpt>
      <trkpt lat="48.21229" lon="-3.12961">
        <ele>135</ele>
        <time>2016-03-03T11:58:17Z</time>
      </trkpt>
      <trkpt lat="48.21233" lon="-3.12955">
        <ele>135</ele>
        <time>2016-03-03T11:58:21Z</time>
      </trkpt>
      <trkpt lat="48.21236" lon="-3.12951">
        <ele>135</ele>
        <time>2016-03-03T11:58:24Z</time>
      </trkpt>
      <trkpt lat="48.21239" lon="-3.12946">
        <ele>135</ele>
        <time>2016-03-03T11:58:28Z</time>
      </trkpt>
      <trkpt lat="48.21241" lon="-3.12941">
        <ele>135</ele>
        <time>2016-03-03T11:58:31Z</time>
      </trkpt>
      <trkpt lat="48.21239" lon="-3.12937">
        <ele>135</ele>
        <time>2016-03-03T11:58:35Z</time>
      </trkpt>
      <trkpt lat="48.21238" lon="-3.12938">
        <ele>135</ele>
        <time>2016-03-03T11:58:38Z</time>
      </trkpt>
      <trkpt lat="48.21235" lon="-3.12938">
        <ele>135</ele>
        <time>2016-03-03T11:58:42Z</time>
      </trkpt>
      <trkpt lat="48.21232" lon="-3.12935">
        <ele>135</ele>
        <time>2016-03-03T11:58:46Z</time>
      </trkpt>
      <trkpt lat="48.21229" lon="-3.12932">
        <ele>135</ele>
        <time>2016-03-03T11:58:49Z</time>
      </trkpt>
      <trkpt lat="48.21226" lon="-3.12927">
        <ele>135</ele>
        <time>2016-03-03T11:58:53Z</time>
      </trkpt>
      <trkpt lat="48.21222" lon="-3.12923">
        <ele>135</ele>
        <time>2016-03-03T11:58:57Z</time>
      </trkpt>
      <trkpt lat="48.21218" lon="-3.12919">
        <ele>135</ele>
        <time>2016-03-03T11:59:01Z</time>
      </trkpt>
      <trkpt lat="48.21215" lon="-3.12917">
        <ele>135</ele>
        <time>2016-03-03T11:59:04Z</time>
      </trkpt>
      <trkpt lat="48.21211" lon="-3.12915">
        <ele>135</ele>
        <time>2016-03-03T11:59:07Z</time>
      </trkpt>
      <trkpt lat="48.21207" lon="-3.12913">
        <ele>135</ele>
        <time>2016-03-03T11:59:10Z</time>
      </trkpt>
      <trkpt lat="48.21204" lon="-3.12911">
        <ele>135</ele>
        <time>2016-03-03T11:59:13Z</time>
      </trkpt>
      <trkpt lat="48.212" lon="-3.1291">
        <ele>134</ele>
        <time>2016-03-03T11:59:16Z</time>
      </trkpt>
      <trkpt lat="48.21196" lon="-3.1291">
        <ele>134</ele>
        <time>2016-03-03T11:59:19Z</time>
      </trkpt>
      <trkpt lat="48.21192" lon="-3.12909">
        <ele>134</ele>
        <time>2016-03-03T11:59:22Z</time>
      </trkpt>
      <trkpt lat="48.21188" lon="-3.12909">
        <ele>134</ele>
        <time>2016-03-03T11:59:25Z</time>
      </trkpt>
      <trkpt lat="48.21184" lon="-3.12908">
        <ele>134</ele>
        <time>2016-03-03T11:59:28Z</time>
      </trkpt>
      <trkpt lat="48.2118" lon="-3.12908">
        <ele>134</ele>
        <time>2016-03-03T11:59:31Z</time>
      </trkpt>
      <trkpt lat="48.21176" lon="-3.12907">
        <ele>134</ele>
        <time>2016-03-03T11:59:34Z</time>
      </trkpt>
      <trkpt lat="48.21172" lon="-3.12906">
        <ele>134</ele>
        <time>2016-03-03T11:59:37Z</time>
      </trkpt>
      <trkpt lat="48.21168" lon="-3.12904">
        <ele>134</ele>
        <time>2016-03-03T11:59:40Z</time>
      </trkpt>
      <trkpt lat="48.21164" lon="-3.12902">
        <ele>134</ele>
        <time>2016-03-03T11:59:43Z</time>
      </trkpt>
      <trkpt lat="48.21159" lon="-3.12898">
        <ele>134</ele>
        <time>2016-03-03T11:59:47Z</time>
      </trkpt>
      <trkpt lat="48.21156" lon="-3.12895">
        <ele>134</ele>
        <time>2016-03-03T11:59:50Z</time>
      </trkpt>
      <trkpt lat="48.21152" lon="-3.1289">
        <ele>134</ele>
        <time>2016-03-03T11:59:54Z</time>
      </trkpt>
      <trkpt lat="48.21149" lon="-3.12887">
        <ele>133</ele>
        <time>2016-03-03T11:59:57Z</time>
      </trkpt>
      <trkpt lat="48.21145" lon="-3.12882">
        <ele>133</ele>
        <time>2016-03-03T12:00:01Z</time>
      </trkpt>
      <trkpt lat="48.21143" lon="-3.1288">
        <ele>133</ele>
        <time>2016-03-03T12:00:05Z</time>
      </trkpt>
      <trkpt lat="48.2114" lon="-3.12877">
        <ele>133</ele>
        <time>2016-03-03T12:00:08Z</time>
      </trkpt>
      <trkpt lat="48.21136" lon="-3.12873">
        <ele>133</ele>
        <time>2016-03-03T12:00:11Z</time>
      </trkpt>
      <trkpt lat="48.21133" lon="-3.1287">
        <ele>133</ele>
        <time>2016-03-03T12:00:14Z</time>
      </trkpt>
      <trkpt lat="48.2113" lon="-3.12867">
        <ele>133</ele>
        <time>2016-03-03T12:00:17Z</time>
      </trkpt>
      <trkpt lat="48.21126" lon="-3.12864">
        <ele>132</ele>
        <time>2016-03-03T12:00:20Z</time>
      </trkpt>
      <trkpt lat="48.21122" lon="-3.1286">
        <ele>132</ele>
        <time>2016-03-03T12:00:24Z</time>
      </trkpt>
      <trkpt lat="48.21118" lon="-3.12857">
        <ele>132</ele>
        <time>2016-03-03T12:00:27Z</time>
      </trkpt>
      <trkpt lat="48.21114" lon="-3.12853">
        <ele>132</ele>
        <time>2016-03-03T12:00:30Z</time>
      </trkpt>
      <trkpt lat="48.21111" lon="-3.12848">
        <ele>132</ele>
        <time>2016-03-03T12:00:34Z</time>
      </trkpt>
      <trkpt lat="48.21107" lon="-3.12842">
        <ele>132</ele>
        <time>2016-03-03T12:00:38Z</time>
      </trkpt>
      <trkpt lat="48.21105" lon="-3.12838">
        <ele>132</ele>
        <time>2016-03-03T12:00:41Z</time>
      </trkpt>
      <trkpt lat="48.21102" lon="-3.12832">
        <ele>132</ele>
        <time>2016-03-03T12:00:45Z</time>
      </trkpt>
      <trkpt lat="48.21099" lon="-3.12828">
        <ele>131</ele>
        <time>2016-03-03T12:00:48Z</time>
      </trkpt>
      <trkpt lat="48.21096" lon="-3.12824">
        <ele>130</ele>
        <time>2016-03-03T12:00:51Z</time>
      </trkpt>
      <trkpt lat="48.21093" lon="-3.12822">
        <ele>128</ele>
        <time>2016-03-03T12:00:54Z</time>
      </trkpt>
      <trkpt lat="48.2109" lon="-3.12819">
        <ele>126</ele>
        <time>2016-03-03T12:00:57Z</time>
      </trkpt>
      <trkpt lat="48.21086" lon="-3.12815">
        <ele>122</ele>
        <time>2016-03-03T12:01:01Z</time>
      </trkpt>
      <trkpt lat="48.21083" lon="-3.12812">
        <ele>120</ele>
        <time>2016-03-03T12:01:04Z</time>
      </trkpt>
      <trkpt lat="48.21078" lon="-3.12808">
        <ele>116</ele>
        <time>2016-03-03T12:01:08Z</time>
      </trkpt>
      <trkpt lat="48.21076" lon="-3.12804">
        <ele>113</ele>
        <time>2016-03-03T12:01:11Z</time>
      </trkpt>
      <trkpt lat="48.21074" lon="-3.128">
        <ele>111</ele>
        <time>2016-03-03T12:01:14Z</time>
      </trkpt>
      <trkpt lat="48.21072" lon="-3.12795">
        <ele>111</ele>
        <time>2016-03-03T12:01:17Z</time>
      </trkpt>
      <trkpt lat="48.21069" lon="-3.1279">
        <ele>110</ele>
        <time>2016-03-03T12:01:20Z</time>
      </trkpt>
      <trkpt lat="48.21068" lon="-3.12784">
        <ele>110</ele>
        <time>2016-03-03T12:01:23Z</time>
      </trkpt>
      <trkpt lat="48.21067" lon="-3.12778">
        <ele>110</ele>
        <time>2016-03-03T12:01:26Z</time>
      </trkpt>
      <trkpt lat="48.21067" lon="-3.12771">
        <ele>110</ele>
        <time>2016-03-03T12:01:29Z</time>
      </trkpt>
      <trkpt lat="48.21066" lon="-3.12763">
        <ele>112</ele>
        <time>2016-03-03T12:01:32Z</time>
      </trkpt>
      <trkpt lat="48.21065" lon="-3.12757">
        <ele>114</ele>
        <time>2016-03-03T12:01:35Z</time>
      </trkpt>
      <trkpt lat="48.21064" lon="-3.12751">
        <ele>115</ele>
        <time>2016-03-03T12:01:38Z</time>
      </trkpt>
      <trkpt lat="48.21062" lon="-3.12745">
        <ele>115</ele>
        <time>2016-03-03T12:01:41Z</time>
      </trkpt>
      <trkpt lat="48.21061" lon="-3.12741">
        <ele>115</ele>
        <time>2016-03-03T12:01:44Z</time>
      </trkpt>
      <trkpt lat="48.21059" lon="-3.12736">
        <ele>115</ele>
        <time>2016-03-03T12:01:47Z</time>
      </trkpt>
      <trkpt lat="48.21056" lon="-3.12729">
        <ele>115</ele>
        <time>2016-03-03T12:01:51Z</time>
      </trkpt>
      <trkpt lat="48.21055" lon="-3.12723">
        <ele>115</ele>
        <time>2016-03-03T12:01:54Z</time>
      </trkpt>
      <trkpt lat="48.21054" lon="-3.12718">
        <ele>115</ele>
        <time>2016-03-03T12:01:57Z</time>
      </trkpt>
      <trkpt lat="48.21053" lon="-3.12711">
        <ele>115</ele>
        <time>2016-03-03T12:02:00Z</time>
      </trkpt>
      <trkpt lat="48.21053" lon="-3.12704">
        <ele>116</ele>
        <time>2016-03-03T12:02:03Z</time>
      </trkpt>
      <trkpt lat="48.21052" lon="-3.12697">
        <ele>118</ele>
        <time>2016-03-03T12:02:06Z</time>
      </trkpt>
      <trkpt lat="48.21051" lon="-3.12691">
        <ele>119</ele>
        <time>2016-03-03T12:02:09Z</time>
      </trkpt>
      <trkpt lat="48.21051" lon="-3.12685">
        <ele>119</ele>
        <time>2016-03-03T12:02:12Z</time>
      </trkpt>
      <trkpt lat="48.21051" lon="-3.1268">
        <ele>120</ele>
        <time>2016-03-03T12:02:15Z</time>
      </trkpt>
      <trkpt lat="48.2105" lon="-3.12674">
        <ele>121</ele>
        <time>2016-03-03T12:02:18Z</time>
      </trkpt>
      <trkpt lat="48.21051" lon="-3.12668">
        <ele>122</ele>
        <time>2016-03-03T12:02:21Z</time>
      </trkpt>
      <trkpt lat="48.21051" lon="-3.12662">
        <ele>122</ele>
        <time>2016-03-03T12:02:24Z</time>
      </trkpt>
      <trkpt lat="48.21052" lon="-3.12655">
        <ele>122</ele>
        <time>2016-03-03T12:02:27Z</time>
      </trkpt>
      <trkpt lat="48.21053" lon="-3.12648">
        <ele>123</ele>
        <time>2016-03-03T12:02:30Z</time>
      </trkpt>
      <trkpt lat="48.21053" lon="-3.12642">
        <ele>124</ele>
        <time>2016-03-03T12:02:33Z</time>
      </trkpt>
      <trkpt lat="48.21053" lon="-3.12636">
        <ele>125</ele>
        <time>2016-03-03T12:02:36Z</time>
      </trkpt>
      <trkpt lat="48.21054" lon="-3.1263">
        <ele>126</ele>
        <time>2016-03-03T12:02:39Z</time>
      </trkpt>
      <trkpt lat="48.21054" lon="-3.12624">
        <ele>126</ele>
        <time>2016-03-03T12:02:42Z</time>
      </trkpt>
      <trkpt lat="48.21055" lon="-3.12616">
        <ele>127</ele>
        <time>2016-03-03T12:02:45Z</time>
      </trkpt>
      <trkpt lat="48.21055" lon="-3.1261">
        <ele>127</ele>
        <time>2016-03-03T12:02:48Z</time>
      </trkpt>
      <trkpt lat="48.21056" lon="-3.12604">
        <ele>128</ele>
        <time>2016-03-03T12:02:51Z</time>
      </trkpt>
      <trkpt lat="48.21056" lon="-3.12599">
        <ele>128</ele>
        <time>2016-03-03T12:02:54Z</time>
      </trkpt>
      <trkpt lat="48.21056" lon="-3.12593">
        <ele>128</ele>
        <time>2016-03-03T12:02:57Z</time>
      </trkpt>
      <trkpt lat="48.21055" lon="-3.12588">
        <ele>128</ele>
        <time>2016-03-03T12:03:00Z</time>
      </trkpt>
      <trkpt lat="48.21055" lon="-3.12582">
        <ele>128</ele>
        <time>2016-03-03T12:03:03Z</time>
      </trkpt>
      <trkpt lat="48.21056" lon="-3.12576">
        <ele>128</ele>
        <time>2016-03-03T12:03:06Z</time>
      </trkpt>
      <trkpt lat="48.21055" lon="-3.12571">
        <ele>128</ele>
        <time>2016-03-03T12:03:09Z</time>
      </trkpt>
      <trkpt lat="48.21056" lon="-3.12565">
        <ele>128</ele>
        <time>2016-03-03T12:03:12Z</time>
      </trkpt>
      <trkpt lat="48.21056" lon="-3.12559">
        <ele>128</ele>
        <time>2016-03-03T12:03:15Z</time>
      </trkpt>
      <trkpt lat="48.21057" lon="-3.12552">
        <ele>128</ele>
        <time>2016-03-03T12:03:18Z</time>
      </trkpt>
      <trkpt lat="48.21058" lon="-3.12546">
        <ele>128</ele>
        <time>2016-03-03T12:03:21Z</time>
      </trkpt>
      <trkpt lat="48.21058" lon="-3.12541">
        <ele>128</ele>
        <time>2016-03-03T12:03:24Z</time>
      </trkpt>
      <trkpt lat="48.21058" lon="-3.12534">
        <ele>127</ele>
        <time>2016-03-03T12:03:27Z</time>
      </trkpt>
      <trkpt lat="48.21057" lon="-3.12528">
        <ele>127</ele>
        <time>2016-03-03T12:03:30Z</time>
      </trkpt>
      <trkpt lat="48.21058" lon="-3.12523">
        <ele>127</ele>
        <time>2016-03-03T12:03:33Z</time>
      </trkpt>
      <trkpt lat="48.21057" lon="-3.12516">
        <ele>126</ele>
        <time>2016-03-03T12:03:36Z</time>
      </trkpt>
      <trkpt lat="48.21057" lon="-3.1251">
        <ele>126</ele>
        <time>2016-03-03T12:03:39Z</time>
      </trkpt>
      <trkpt lat="48.21056" lon="-3.12504">
        <ele>126</ele>
        <time>2016-03-03T12:03:42Z</time>
      </trkpt>
      <trkpt lat="48.21056" lon="-3.12498">
        <ele>126</ele>
        <time>2016-03-03T12:03:45Z</time>
      </trkpt>
      <trkpt lat="48.21057" lon="-3.12493">
        <ele>126</ele>
        <time>2016-03-03T12:03:48Z</time>
      </trkpt>
      <trkpt lat="48.21058" lon="-3.12487">
        <ele>126</ele>
        <time>2016-03-03T12:03:51Z</time>
      </trkpt>
      <trkpt lat="48.21057" lon="-3.12481">
        <ele>126</ele>
        <time>2016-03-03T12:03:54Z</time>
      </trkpt>
      <trkpt lat="48.21058" lon="-3.12476">
        <ele>126</ele>
        <time>2016-03-03T12:03:57Z</time>
      </trkpt>
      <trkpt lat="48.21058" lon="-3.1247">
        <ele>125</ele>
        <time>2016-03-03T12:04:00Z</time>
      </trkpt>
      <trkpt lat="48.21059" lon="-3.12465">
        <ele>124</ele>
        <time>2016-03-03T12:04:03Z</time>
      </trkpt>
      <trkpt lat="48.21059" lon="-3.12459">
        <ele>124</ele>
        <time>2016-03-03T12:04:06Z</time>
      </trkpt>
      <trkpt lat="48.21059" lon="-3.12454">
        <ele>124</ele>
        <time>2016-03-03T12:04:09Z</time>
      </trkpt>
      <trkpt lat="48.21059" lon="-3.12449">
        <ele>124</ele>
        <time>2016-03-03T12:04:13Z</time>
      </trkpt>
      <trkpt lat="48.21061" lon="-3.12445">
        <ele>124</ele>
        <time>2016-03-03T12:04:17Z</time>
      </trkpt>
      <trkpt lat="48.2106" lon="-3.12441">
        <ele>125</ele>
        <time>2016-03-03T12:04:21Z</time>
      </trkpt>
      <trkpt lat="48.2106" lon="-3.12435">
        <ele>125</ele>
        <time>2016-03-03T12:04:24Z</time>
      </trkpt>
      <trkpt lat="48.2106" lon="-3.12428">
        <ele>125</ele>
        <time>2016-03-03T12:04:27Z</time>
      </trkpt>
      <trkpt lat="48.21061" lon="-3.12421">
        <ele>125</ele>
        <time>2016-03-03T12:04:30Z</time>
      </trkpt>
      <trkpt lat="48.21061" lon="-3.12414">
        <ele>125</ele>
        <time>2016-03-03T12:04:33Z</time>
      </trkpt>
      <trkpt lat="48.21061" lon="-3.12407">
        <ele>125</ele>
        <time>2016-03-03T12:04:36Z</time>
      </trkpt>
      <trkpt lat="48.21062" lon="-3.12401">
        <ele>125</ele>
        <time>2016-03-03T12:04:39Z</time>
      </trkpt>
      <trkpt lat="48.21063" lon="-3.12394">
        <ele>125</ele>
        <time>2016-03-03T12:04:42Z</time>
      </trkpt>
      <trkpt lat="48.21063" lon="-3.12388">
        <ele>126</ele>
        <time>2016-03-03T12:04:45Z</time>
      </trkpt>
      <trkpt lat="48.21064" lon="-3.12383">
        <ele>126</ele>
        <time>2016-03-03T12:04:48Z</time>
      </trkpt>
      <trkpt lat="48.21065" lon="-3.12375">
        <ele>126</ele>
        <time>2016-03-03T12:04:51Z</time>
      </trkpt>
      <trkpt lat="48.21065" lon="-3.12369">
        <ele>126</ele>
        <time>2016-03-03T12:04:54Z</time>
      </trkpt>
      <trkpt lat="48.21065" lon="-3.12363">
        <ele>126</ele>
        <time>2016-03-03T12:04:57Z</time>
      </trkpt>
      <trkpt lat="48.21066" lon="-3.12357">
        <ele>126</ele>
        <time>2016-03-03T12:05:00Z</time>
      </trkpt>
      <trkpt lat="48.21067" lon="-3.1235">
        <ele>126</ele>
        <time>2016-03-03T12:05:04Z</time>
      </trkpt>
      <trkpt lat="48.21069" lon="-3.12344">
        <ele>126</ele>
        <time>2016-03-03T12:05:08Z</time>
      </trkpt>
      <trkpt lat="48.2107" lon="-3.12339">
        <ele>126</ele>
        <time>2016-03-03T12:05:11Z</time>
      </trkpt>
      <trkpt lat="48.2107" lon="-3.12334">
        <ele>126</ele>
        <time>2016-03-03T12:05:14Z</time>
      </trkpt>
      <trkpt lat="48.21071" lon="-3.12326">
        <ele>126</ele>
        <time>2016-03-03T12:05:17Z</time>
      </trkpt>
      <trkpt lat="48.21071" lon="-3.12319">
        <ele>126</ele>
        <time>2016-03-03T12:05:20Z</time>
      </trkpt>
      <trkpt lat="48.21071" lon="-3.12314">
        <ele>126</ele>
        <time>2016-03-03T12:05:23Z</time>
      </trkpt>
      <trkpt lat="48.21072" lon="-3.12309">
        <ele>126</ele>
        <time>2016-03-03T12:05:26Z</time>
      </trkpt>
      <trkpt lat="48.21073" lon="-3.12303">
        <ele>126</ele>
        <time>2016-03-03T12:05:29Z</time>
      </trkpt>
      <trkpt lat="48.21073" lon="-3.12298">
        <ele>126</ele>
        <time>2016-03-03T12:05:32Z</time>
      </trkpt>
      <trkpt lat="48.21073" lon="-3.12292">
        <ele>126</ele>
        <time>2016-03-03T12:05:35Z</time>
      </trkpt>
      <trkpt lat="48.21073" lon="-3.12286">
        <ele>126</ele>
        <time>2016-03-03T12:05:38Z</time>
      </trkpt>
      <trkpt lat="48.21074" lon="-3.1228">
        <ele>126</ele>
        <time>2016-03-03T12:05:41Z</time>
      </trkpt>
      <trkpt lat="48.21074" lon="-3.12275">
        <ele>126</ele>
        <time>2016-03-03T12:05:44Z</time>
      </trkpt>
      <trkpt lat="48.21074" lon="-3.12268">
        <ele>126</ele>
        <time>2016-03-03T12:05:47Z</time>
      </trkpt>
      <trkpt lat="48.21075" lon="-3.12262">
        <ele>126</ele>
        <time>2016-03-03T12:05:50Z</time>
      </trkpt>
      <trkpt lat="48.21075" lon="-3.12255">
        <ele>126</ele>
        <time>2016-03-03T12:05:53Z</time>
      </trkpt>
      <trkpt lat="48.21075" lon="-3.12248">
        <ele>126</ele>
        <time>2016-03-03T12:05:56Z</time>
      </trkpt>
      <trkpt lat="48.21075" lon="-3.12241">
        <ele>126</ele>
        <time>2016-03-03T12:05:59Z</time>
      </trkpt>
      <trkpt lat="48.21075" lon="-3.12234">
        <ele>126</ele>
        <time>2016-03-03T12:06:02Z</time>
      </trkpt>
      <trkpt lat="48.21075" lon="-3.12229">
        <ele>126</ele>
        <time>2016-03-03T12:06:05Z</time>
      </trkpt>
      <trkpt lat="48.21075" lon="-3.12222">
        <ele>126</ele>
        <time>2016-03-03T12:06:09Z</time>
      </trkpt>
      <trkpt lat="48.21075" lon="-3.12215">
        <ele>126</ele>
        <time>2016-03-03T12:06:12Z</time>
      </trkpt>
      <trkpt lat="48.21075" lon="-3.12207">
        <ele>126</ele>
        <time>2016-03-03T12:06:15Z</time>
      </trkpt>
      <trkpt lat="48.21076" lon="-3.12198">
        <ele>128</ele>
        <time>2016-03-03T12:06:18Z</time>
      </trkpt>
      <trkpt lat="48.21077" lon="-3.12192">
        <ele>131</ele>
        <time>2016-03-03T12:06:21Z</time>
      </trkpt>
      <trkpt lat="48.21077" lon="-3.12186">
        <ele>132</ele>
        <time>2016-03-03T12:06:24Z</time>
      </trkpt>
      <trkpt lat="48.21076" lon="-3.1218">
        <ele>133</ele>
        <time>2016-03-03T12:06:27Z</time>
      </trkpt>
      <trkpt lat="48.21076" lon="-3.12174">
        <ele>134</ele>
        <time>2016-03-03T12:06:30Z</time>
      </trkpt>
      <trkpt lat="48.21077" lon="-3.12167">
        <ele>134</ele>
        <time>2016-03-03T12:06:33Z</time>
      </trkpt>
      <trkpt lat="48.21077" lon="-3.1216">
        <ele>135</ele>
        <time>2016-03-03T12:06:37Z</time>
      </trkpt>
      <trkpt lat="48.21077" lon="-3.12155">
        <ele>135</ele>
        <time>2016-03-03T12:06:40Z</time>
      </trkpt>
      <trkpt lat="48.21077" lon="-3.12149">
        <ele>135</ele>
        <time>2016-03-03T12:06:43Z</time>
      </trkpt>
      <trkpt lat="48.21077" lon="-3.12144">
        <ele>135</ele>
        <time>2016-03-03T12:06:46Z</time>
      </trkpt>
      <trkpt lat="48.21078" lon="-3.12134">
        <ele>135</ele>
        <time>2016-03-03T12:06:51Z</time>
      </trkpt>
      <trkpt lat="48.21078" lon="-3.12128">
        <ele>135</ele>
        <time>2016-03-03T12:06:55Z</time>
      </trkpt>
      <trkpt lat="48.21078" lon="-3.12123">
        <ele>135</ele>
        <time>2016-03-03T12:06:59Z</time>
      </trkpt>
      <trkpt lat="48.21078" lon="-3.12117">
        <ele>135</ele>
        <time>2016-03-03T12:07:02Z</time>
      </trkpt>
      <trkpt lat="48.21078" lon="-3.12112">
        <ele>135</ele>
        <time>2016-03-03T12:07:05Z</time>
      </trkpt>
      <trkpt lat="48.21079" lon="-3.12106">
        <ele>135</ele>
        <time>2016-03-03T12:07:08Z</time>
      </trkpt>
      <trkpt lat="48.2108" lon="-3.12098">
        <ele>135</ele>
        <time>2016-03-03T12:07:12Z</time>
      </trkpt>
      <trkpt lat="48.21081" lon="-3.12092">
        <ele>135</ele>
        <time>2016-03-03T12:07:15Z</time>
      </trkpt>
      <trkpt lat="48.21082" lon="-3.12086">
        <ele>135</ele>
        <time>2016-03-03T12:07:18Z</time>
      </trkpt>
      <trkpt lat="48.21083" lon="-3.12077">
        <ele>135</ele>
        <time>2016-03-03T12:07:22Z</time>
      </trkpt>
      <trkpt lat="48.21083" lon="-3.12071">
        <ele>135</ele>
        <time>2016-03-03T12:07:25Z</time>
      </trkpt>
      <trkpt lat="48.21083" lon="-3.12065">
        <ele>135</ele>
        <time>2016-03-03T12:07:29Z</time>
      </trkpt>
      <trkpt lat="48.21084" lon="-3.12058">
        <ele>135</ele>
        <time>2016-03-03T12:07:33Z</time>
      </trkpt>
      <trkpt lat="48.21084" lon="-3.12052">
        <ele>134</ele>
        <time>2016-03-03T12:07:36Z</time>
      </trkpt>
      <trkpt lat="48.21084" lon="-3.12046">
        <ele>134</ele>
        <time>2016-03-03T12:07:39Z</time>
      </trkpt>
      <trkpt lat="48.21083" lon="-3.12041">
        <ele>134</ele>
        <time>2016-03-03T12:07:42Z</time>
      </trkpt>
      <trkpt lat="48.2108" lon="-3.12038">
        <ele>132</ele>
        <time>2016-03-03T12:07:46Z</time>
      </trkpt>
      <trkpt lat="48.21081" lon="-3.12031">
        <ele>130</ele>
        <time>2016-03-03T12:07:50Z</time>
      </trkpt>
      <trkpt lat="48.21082" lon="-3.12024">
        <ele>130</ele>
        <time>2016-03-03T12:07:53Z</time>
      </trkpt>
      <trkpt lat="48.21083" lon="-3.12017">
        <ele>129</ele>
        <time>2016-03-03T12:07:56Z</time>
      </trkpt>
      <trkpt lat="48.21083" lon="-3.12009">
        <ele>129</ele>
        <time>2016-03-03T12:07:59Z</time>
      </trkpt>
      <trkpt lat="48.21083" lon="-3.12002">
        <ele>129</ele>
        <time>2016-03-03T12:08:03Z</time>
      </trkpt>
      <trkpt lat="48.21084" lon="-3.11996">
        <ele>129</ele>
        <time>2016-03-03T12:08:06Z</time>
      </trkpt>
      <trkpt lat="48.21084" lon="-3.11989">
        <ele>129</ele>
        <time>2016-03-03T12:08:10Z</time>
      </trkpt>
      <trkpt lat="48.21084" lon="-3.11982">
        <ele>129</ele>
        <time>2016-03-03T12:08:14Z</time>
      </trkpt>
      <trkpt lat="48.21084" lon="-3.11974">
        <ele>128</ele>
        <time>2016-03-03T12:08:18Z</time>
      </trkpt>
      <trkpt lat="48.21083" lon="-3.11965">
        <ele>128</ele>
        <time>2016-03-03T12:08:22Z</time>
      </trkpt>
      <trkpt lat="48.21082" lon="-3.11957">
        <ele>128</ele>
        <time>2016-03-03T12:08:25Z</time>
      </trkpt>
      <trkpt lat="48.21081" lon="-3.11951">
        <ele>131</ele>
        <time>2016-03-03T12:08:28Z</time>
      </trkpt>
      <trkpt lat="48.2108" lon="-3.11942">
        <ele>134</ele>
        <time>2016-03-03T12:08:32Z</time>
      </trkpt>
      <trkpt lat="48.21078" lon="-3.11934">
        <ele>138</ele>
        <time>2016-03-03T12:08:36Z</time>
      </trkpt>
      <trkpt lat="48.21079" lon="-3.11928">
        <ele>140</ele>
        <time>2016-03-03T12:08:39Z</time>
      </trkpt>
      <trkpt lat="48.21078" lon="-3.1192">
        <ele>142</ele>
        <time>2016-03-03T12:08:43Z</time>
      </trkpt>
      <trkpt lat="48.21077" lon="-3.11914">
        <ele>145</ele>
        <time>2016-03-03T12:08:46Z</time>
      </trkpt>
      <trkpt lat="48.21076" lon="-3.11908">
        <ele>148</ele>
        <time>2016-03-03T12:08:49Z</time>
      </trkpt>
      <trkpt lat="48.21075" lon="-3.11902">
        <ele>149</ele>
        <time>2016-03-03T12:08:52Z</time>
      </trkpt>
      <trkpt lat="48.21072" lon="-3.11895">
        <ele>149</ele>
        <time>2016-03-03T12:08:57Z</time>
      </trkpt>
      <trkpt lat="48.21072" lon="-3.11892">
        <ele>149</ele>
        <time>2016-03-03T12:09:00Z</time>
      </trkpt>
      <trkpt lat="48.21069" lon="-3.11886">
        <ele>148</ele>
        <time>2016-03-03T12:09:04Z</time>
      </trkpt>
      <trkpt lat="48.21069" lon="-3.11878">
        <ele>147</ele>
        <time>2016-03-03T12:09:07Z</time>
      </trkpt>
      <trkpt lat="48.2107" lon="-3.11873">
        <ele>147</ele>
        <time>2016-03-03T12:09:10Z</time>
      </trkpt>
      <trkpt lat="48.21069" lon="-3.11866">
        <ele>147</ele>
        <time>2016-03-03T12:09:14Z</time>
      </trkpt>
      <trkpt lat="48.21068" lon="-3.11861">
        <ele>146</ele>
        <time>2016-03-03T12:09:17Z</time>
      </trkpt>
      <trkpt lat="48.21068" lon="-3.11857">
        <ele>145</ele>
        <time>2016-03-03T12:09:20Z</time>
      </trkpt>
      <trkpt lat="48.21067" lon="-3.11852">
        <ele>144</ele>
        <time>2016-03-03T12:09:23Z</time>
      </trkpt>
      <trkpt lat="48.21067" lon="-3.11846">
        <ele>144</ele>
        <time>2016-03-03T12:09:27Z</time>
      </trkpt>
      <trkpt lat="48.21066" lon="-3.11836">
        <ele>144</ele>
        <time>2016-03-03T12:09:32Z</time>
      </trkpt>
      <trkpt lat="48.21066" lon="-3.1183">
        <ele>144</ele>
        <time>2016-03-03T12:09:36Z</time>
      </trkpt>
      <trkpt lat="48.21065" lon="-3.11823">
        <ele>144</ele>
        <time>2016-03-03T12:09:40Z</time>
      </trkpt>
      <trkpt lat="48.21064" lon="-3.11819">
        <ele>144</ele>
        <time>2016-03-03T12:09:43Z</time>
      </trkpt>
      <trkpt lat="48.21062" lon="-3.11812">
        <ele>144</ele>
        <time>2016-03-03T12:09:47Z</time>
      </trkpt>
      <trkpt lat="48.2106" lon="-3.11808">
        <ele>144</ele>
        <time>2016-03-03T12:09:50Z</time>
      </trkpt>
      <trkpt lat="48.21058" lon="-3.11802">
        <ele>143</ele>
        <time>2016-03-03T12:09:54Z</time>
      </trkpt>
      <trkpt lat="48.21056" lon="-3.11795">
        <ele>141</ele>
        <time>2016-03-03T12:09:58Z</time>
      </trkpt>
      <trkpt lat="48.21054" lon="-3.11788">
        <ele>141</ele>
        <time>2016-03-03T12:10:02Z</time>
      </trkpt>
      <trkpt lat="48.21051" lon="-3.11784">
        <ele>140</ele>
        <time>2016-03-03T12:10:05Z</time>
      </trkpt>
      <trkpt lat="48.21051" lon="-3.11778">
        <ele>138</ele>
        <time>2016-03-03T12:10:08Z</time>
      </trkpt>
      <trkpt lat="48.21047" lon="-3.11773">
        <ele>138</ele>
        <time>2016-03-03T12:10:11Z</time>
      </trkpt>
      <trkpt lat="48.21046" lon="-3.11769">
        <ele>137</ele>
        <time>2016-03-03T12:10:14Z</time>
      </trkpt>
      <trkpt lat="48.21045" lon="-3.11762">
        <ele>136</ele>
        <time>2016-03-03T12:10:18Z</time>
      </trkpt>
      <trkpt lat="48.21043" lon="-3.11758">
        <ele>136</ele>
        <time>2016-03-03T12:10:21Z</time>
      </trkpt>
      <trkpt lat="48.21041" lon="-3.11752">
        <ele>136</ele>
        <time>2016-03-03T12:10:24Z</time>
      </trkpt>
      <trkpt lat="48.21039" lon="-3.11745">
        <ele>136</ele>
        <time>2016-03-03T12:10:28Z</time>
      </trkpt>
      <trkpt lat="48.21038" lon="-3.11739">
        <ele>136</ele>
        <time>2016-03-03T12:10:31Z</time>
      </trkpt>
      <trkpt lat="48.21036" lon="-3.11734">
        <ele>136</ele>
        <time>2016-03-03T12:10:34Z</time>
      </trkpt>
      <trkpt lat="48.21035" lon="-3.11728">
        <ele>136</ele>
        <time>2016-03-03T12:10:37Z</time>
      </trkpt>
      <trkpt lat="48.21034" lon="-3.11723">
        <ele>135</ele>
        <time>2016-03-03T12:10:40Z</time>
      </trkpt>
      <trkpt lat="48.21031" lon="-3.11717">
        <ele>135</ele>
        <time>2016-03-03T12:10:44Z</time>
      </trkpt>
      <trkpt lat="48.21029" lon="-3.11711">
        <ele>135</ele>
        <time>2016-03-03T12:10:47Z</time>
      </trkpt>
      <trkpt lat="48.21027" lon="-3.11706">
        <ele>135</ele>
        <time>2016-03-03T12:10:50Z</time>
      </trkpt>
      <trkpt lat="48.21026" lon="-3.11701">
        <ele>135</ele>
        <time>2016-03-03T12:10:53Z</time>
      </trkpt>
      <trkpt lat="48.21024" lon="-3.11695">
        <ele>135</ele>
        <time>2016-03-03T12:10:56Z</time>
      </trkpt>
      <trkpt lat="48.21022" lon="-3.1169">
        <ele>135</ele>
        <time>2016-03-03T12:10:59Z</time>
      </trkpt>
      <trkpt lat="48.21021" lon="-3.11685">
        <ele>135</ele>
        <time>2016-03-03T12:11:02Z</time>
      </trkpt>
      <trkpt lat="48.21017" lon="-3.11679">
        <ele>134</ele>
        <time>2016-03-03T12:11:06Z</time>
      </trkpt>
      <trkpt lat="48.21014" lon="-3.11673">
        <ele>132</ele>
        <time>2016-03-03T12:11:10Z</time>
      </trkpt>
      <trkpt lat="48.21012" lon="-3.11667">
        <ele>132</ele>
        <time>2016-03-03T12:11:13Z</time>
      </trkpt>
      <trkpt lat="48.2101" lon="-3.11662">
        <ele>132</ele>
        <time>2016-03-03T12:11:16Z</time>
      </trkpt>
      <trkpt lat="48.21007" lon="-3.11655">
        <ele>131</ele>
        <time>2016-03-03T12:11:20Z</time>
      </trkpt>
      <trkpt lat="48.21006" lon="-3.11649">
        <ele>131</ele>
        <time>2016-03-03T12:11:23Z</time>
      </trkpt>
      <trkpt lat="48.21003" lon="-3.11644">
        <ele>130</ele>
        <time>2016-03-03T12:11:26Z</time>
      </trkpt>
      <trkpt lat="48.21001" lon="-3.11637">
        <ele>130</ele>
        <time>2016-03-03T12:11:30Z</time>
      </trkpt>
      <trkpt lat="48.20998" lon="-3.11631">
        <ele>129</ele>
        <time>2016-03-03T12:11:34Z</time>
      </trkpt>
      <trkpt lat="48.20995" lon="-3.11627">
        <ele>129</ele>
        <time>2016-03-03T12:11:37Z</time>
      </trkpt>
      <trkpt lat="48.20992" lon="-3.11622">
        <ele>129</ele>
        <time>2016-03-03T12:11:40Z</time>
      </trkpt>
      <trkpt lat="48.20989" lon="-3.11618">
        <ele>128</ele>
        <time>2016-03-03T12:11:43Z</time>
      </trkpt>
      <trkpt lat="48.20986" lon="-3.11613">
        <ele>128</ele>
        <time>2016-03-03T12:11:46Z</time>
      </trkpt>
      <trkpt lat="48.20982" lon="-3.1161">
        <ele>127</ele>
        <time>2016-03-03T12:11:49Z</time>
      </trkpt>
      <trkpt lat="48.20979" lon="-3.11607">
        <ele>127</ele>
        <time>2016-03-03T12:11:52Z</time>
      </trkpt>
      <trkpt lat="48.20975" lon="-3.11601">
        <ele>127</ele>
        <time>2016-03-03T12:11:56Z</time>
      </trkpt>
      <trkpt lat="48.20972" lon="-3.11597">
        <ele>127</ele>
        <time>2016-03-03T12:11:59Z</time>
      </trkpt>
      <trkpt lat="48.20969" lon="-3.11592">
        <ele>127</ele>
        <time>2016-03-03T12:12:03Z</time>
      </trkpt>
      <trkpt lat="48.20965" lon="-3.11589">
        <ele>127</ele>
        <time>2016-03-03T12:12:06Z</time>
      </trkpt>
      <trkpt lat="48.20959" lon="-3.11586">
        <ele>126</ele>
        <time>2016-03-03T12:12:10Z</time>
      </trkpt>
      <trkpt lat="48.20955" lon="-3.11584">
        <ele>125</ele>
        <time>2016-03-03T12:12:13Z</time>
      </trkpt>
      <trkpt lat="48.2095" lon="-3.11582">
        <ele>125</ele>
        <time>2016-03-03T12:12:17Z</time>
      </trkpt>
      <trkpt lat="48.20946" lon="-3.11583">
        <ele>125</ele>
        <time>2016-03-03T12:12:20Z</time>
      </trkpt>
      <trkpt lat="48.20941" lon="-3.11584">
        <ele>125</ele>
        <time>2016-03-03T12:12:23Z</time>
      </trkpt>
      <trkpt lat="48.20935" lon="-3.11585">
        <ele>125</ele>
        <time>2016-03-03T12:12:27Z</time>
      </trkpt>
      <trkpt lat="48.2093" lon="-3.11587">
        <ele>125</ele>
        <time>2016-03-03T12:12:31Z</time>
      </trkpt>
      <trkpt lat="48.20926" lon="-3.11588">
        <ele>125</ele>
        <time>2016-03-03T12:12:35Z</time>
      </trkpt>
      <trkpt lat="48.20921" lon="-3.11593">
        <ele>125</ele>
        <time>2016-03-03T12:12:38Z</time>
      </trkpt>
      <trkpt lat="48.20918" lon="-3.11595">
        <ele>125</ele>
        <time>2016-03-03T12:12:41Z</time>
      </trkpt>
      <trkpt lat="48.20913" lon="-3.11601">
        <ele>125</ele>
        <time>2016-03-03T12:12:44Z</time>
      </trkpt>
      <trkpt lat="48.2091" lon="-3.11604">
        <ele>125</ele>
        <time>2016-03-03T12:12:48Z</time>
      </trkpt>
      <trkpt lat="48.20907" lon="-3.11608">
        <ele>125</ele>
        <time>2016-03-03T12:12:52Z</time>
      </trkpt>
      <trkpt lat="48.20903" lon="-3.11613">
        <ele>125</ele>
        <time>2016-03-03T12:12:55Z</time>
      </trkpt>
      <trkpt lat="48.209" lon="-3.11617">
        <ele>125</ele>
        <time>2016-03-03T12:12:58Z</time>
      </trkpt>
      <trkpt lat="48.20896" lon="-3.11622">
        <ele>125</ele>
        <time>2016-03-03T12:13:01Z</time>
      </trkpt>
      <trkpt lat="48.20891" lon="-3.11625">
        <ele>126</ele>
        <time>2016-03-03T12:13:04Z</time>
      </trkpt>
      <trkpt lat="48.20886" lon="-3.11627">
        <ele>127</ele>
        <time>2016-03-03T12:13:08Z</time>
      </trkpt>
      <trkpt lat="48.20883" lon="-3.11627">
        <ele>128</ele>
        <time>2016-03-03T12:13:11Z</time>
      </trkpt>
      <trkpt lat="48.20876" lon="-3.11628">
        <ele>129</ele>
        <time>2016-03-03T12:13:15Z</time>
      </trkpt>
      <trkpt lat="48.20873" lon="-3.11625">
        <ele>129</ele>
        <time>2016-03-03T12:13:18Z</time>
      </trkpt>
      <trkpt lat="48.20869" lon="-3.11624">
        <ele>129</ele>
        <time>2016-03-03T12:13:21Z</time>
      </trkpt>
      <trkpt lat="48.20864" lon="-3.11625">
        <ele>129</ele>
        <time>2016-03-03T12:13:24Z</time>
      </trkpt>
      <trkpt lat="48.20859" lon="-3.11625">
        <ele>129</ele>
        <time>2016-03-03T12:13:27Z</time>
      </trkpt>
      <trkpt lat="48.20855" lon="-3.11625">
        <ele>129</ele>
        <time>2016-03-03T12:13:30Z</time>
      </trkpt>
      <trkpt lat="48.20851" lon="-3.11623">
        <ele>129</ele>
        <time>2016-03-03T12:13:33Z</time>
      </trkpt>
      <trkpt lat="48.20845" lon="-3.11625">
        <ele>129</ele>
        <time>2016-03-03T12:13:36Z</time>
      </trkpt>
      <trkpt lat="48.20839" lon="-3.11626">
        <ele>129</ele>
        <time>2016-03-03T12:13:39Z</time>
      </trkpt>
      <trkpt lat="48.20834" lon="-3.11626">
        <ele>130</ele>
        <time>2016-03-03T12:13:42Z</time>
      </trkpt>
      <trkpt lat="48.20825" lon="-3.11628">
        <ele>130</ele>
        <time>2016-03-03T12:13:46Z</time>
      </trkpt>
      <trkpt lat="48.20821" lon="-3.11625">
        <ele>130</ele>
        <time>2016-03-03T12:13:49Z</time>
      </trkpt>
      <trkpt lat="48.20814" lon="-3.11625">
        <ele>130</ele>
        <time>2016-03-03T12:13:52Z</time>
      </trkpt>
      <trkpt lat="48.20811" lon="-3.11621">
        <ele>130</ele>
        <time>2016-03-03T12:13:55Z</time>
      </trkpt>
      <trkpt lat="48.20808" lon="-3.11617">
        <ele>130</ele>
        <time>2016-03-03T12:13:58Z</time>
      </trkpt>
      <trkpt lat="48.20806" lon="-3.11611">
        <ele>130</ele>
        <time>2016-03-03T12:14:02Z</time>
      </trkpt>
      <trkpt lat="48.20803" lon="-3.11609">
        <ele>130</ele>
        <time>2016-03-03T12:14:05Z</time>
      </trkpt>
      <trkpt lat="48.20799" lon="-3.11606">
        <ele>130</ele>
        <time>2016-03-03T12:14:09Z</time>
      </trkpt>
      <trkpt lat="48.20797" lon="-3.11602">
        <ele>130</ele>
        <time>2016-03-03T12:14:12Z</time>
      </trkpt>
      <trkpt lat="48.20794" lon="-3.11599">
        <ele>130</ele>
        <time>2016-03-03T12:14:15Z</time>
      </trkpt>
      <trkpt lat="48.20791" lon="-3.11596">
        <ele>130</ele>
        <time>2016-03-03T12:14:18Z</time>
      </trkpt>
      <trkpt lat="48.20788" lon="-3.11594">
        <ele>130</ele>
        <time>2016-03-03T12:14:21Z</time>
      </trkpt>
      <trkpt lat="48.20784" lon="-3.11591">
        <ele>130</ele>
        <time>2016-03-03T12:14:24Z</time>
      </trkpt>
      <trkpt lat="48.2078" lon="-3.11587">
        <ele>130</ele>
        <time>2016-03-03T12:14:28Z</time>
      </trkpt>
      <trkpt lat="48.20777" lon="-3.11583">
        <ele>130</ele>
        <time>2016-03-03T12:14:31Z</time>
      </trkpt>
      <trkpt lat="48.20773" lon="-3.11578">
        <ele>130</ele>
        <time>2016-03-03T12:14:35Z</time>
      </trkpt>
      <trkpt lat="48.2077" lon="-3.11574">
        <ele>129</ele>
        <time>2016-03-03T12:14:38Z</time>
      </trkpt>
      <trkpt lat="48.20767" lon="-3.11571">
        <ele>129</ele>
        <time>2016-03-03T12:14:41Z</time>
      </trkpt>
      <trkpt lat="48.20763" lon="-3.11567">
        <ele>128</ele>
        <time>2016-03-03T12:14:44Z</time>
      </trkpt>
      <trkpt lat="48.2076" lon="-3.11564">
        <ele>128</ele>
        <time>2016-03-03T12:14:47Z</time>
      </trkpt>
      <trkpt lat="48.20755" lon="-3.11561">
        <ele>128</ele>
        <time>2016-03-03T12:14:51Z</time>
      </trkpt>
      <trkpt lat="48.20752" lon="-3.11557">
        <ele>128</ele>
        <time>2016-03-03T12:14:54Z</time>
      </trkpt>
      <trkpt lat="48.20748" lon="-3.11552">
        <ele>128</ele>
        <time>2016-03-03T12:14:58Z</time>
      </trkpt>
      <trkpt lat="48.20744" lon="-3.11549">
        <ele>128</ele>
        <time>2016-03-03T12:15:01Z</time>
      </trkpt>
      <trkpt lat="48.20741" lon="-3.11546">
        <ele>128</ele>
        <time>2016-03-03T12:15:04Z</time>
      </trkpt>
      <trkpt lat="48.20738" lon="-3.11543">
        <ele>128</ele>
        <time>2016-03-03T12:15:07Z</time>
      </trkpt>
      <trkpt lat="48.20735" lon="-3.11539">
        <ele>128</ele>
        <time>2016-03-03T12:15:11Z</time>
      </trkpt>
      <trkpt lat="48.20731" lon="-3.11536">
        <ele>128</ele>
        <time>2016-03-03T12:15:14Z</time>
      </trkpt>
      <trkpt lat="48.20727" lon="-3.11533">
        <ele>128</ele>
        <time>2016-03-03T12:15:17Z</time>
      </trkpt>
      <trkpt lat="48.20723" lon="-3.11531">
        <ele>128</ele>
        <time>2016-03-03T12:15:20Z</time>
      </trkpt>
      <trkpt lat="48.2072" lon="-3.11526">
        <ele>128</ele>
        <time>2016-03-03T12:15:23Z</time>
      </trkpt>
      <trkpt lat="48.20716" lon="-3.11523">
        <ele>128</ele>
        <time>2016-03-03T12:15:26Z</time>
      </trkpt>
      <trkpt lat="48.20712" lon="-3.11518">
        <ele>128</ele>
        <time>2016-03-03T12:15:30Z</time>
      </trkpt>
      <trkpt lat="48.20709" lon="-3.11513">
        <ele>128</ele>
        <time>2016-03-03T12:15:33Z</time>
      </trkpt>
      <trkpt lat="48.20706" lon="-3.11508">
        <ele>128</ele>
        <time>2016-03-03T12:15:36Z</time>
      </trkpt>
      <trkpt lat="48.20704" lon="-3.11504">
        <ele>128</ele>
        <time>2016-03-03T12:15:39Z</time>
      </trkpt>
      <trkpt lat="48.20702" lon="-3.115">
        <ele>128</ele>
        <time>2016-03-03T12:15:43Z</time>
      </trkpt>
      <trkpt lat="48.207" lon="-3.11496">
        <ele>128</ele>
        <time>2016-03-03T12:15:46Z</time>
      </trkpt>
      <trkpt lat="48.20697" lon="-3.11493">
        <ele>128</ele>
        <time>2016-03-03T12:15:49Z</time>
      </trkpt>
      <trkpt lat="48.20694" lon="-3.11489">
        <ele>128</ele>
        <time>2016-03-03T12:15:52Z</time>
      </trkpt>
      <trkpt lat="48.20691" lon="-3.11485">
        <ele>128</ele>
        <time>2016-03-03T12:15:55Z</time>
      </trkpt>
      <trkpt lat="48.20688" lon="-3.11481">
        <ele>128</ele>
        <time>2016-03-03T12:15:58Z</time>
      </trkpt>
      <trkpt lat="48.20685" lon="-3.11475">
        <ele>128</ele>
        <time>2016-03-03T12:16:02Z</time>
      </trkpt>
      <trkpt lat="48.20681" lon="-3.11471">
        <ele>128</ele>
        <time>2016-03-03T12:16:05Z</time>
      </trkpt>
      <trkpt lat="48.20678" lon="-3.11466">
        <ele>128</ele>
        <time>2016-03-03T12:16:08Z</time>
      </trkpt>
      <trkpt lat="48.20673" lon="-3.11462">
        <ele>128</ele>
        <time>2016-03-03T12:16:11Z</time>
      </trkpt>
      <trkpt lat="48.2067" lon="-3.11457">
        <ele>127</ele>
        <time>2016-03-03T12:16:15Z</time>
      </trkpt>
      <trkpt lat="48.20668" lon="-3.11452">
        <ele>127</ele>
        <time>2016-03-03T12:16:18Z</time>
      </trkpt>
      <trkpt lat="48.20665" lon="-3.11447">
        <ele>127</ele>
        <time>2016-03-03T12:16:21Z</time>
      </trkpt>
      <trkpt lat="48.20663" lon="-3.11442">
        <ele>127</ele>
        <time>2016-03-03T12:16:24Z</time>
      </trkpt>
      <trkpt lat="48.20661" lon="-3.11437">
        <ele>127</ele>
        <time>2016-03-03T12:16:27Z</time>
      </trkpt>
      <trkpt lat="48.2066" lon="-3.11431">
        <ele>127</ele>
        <time>2016-03-03T12:16:30Z</time>
      </trkpt>
      <trkpt lat="48.20658" lon="-3.11426">
        <ele>127</ele>
        <time>2016-03-03T12:16:33Z</time>
      </trkpt>
      <trkpt lat="48.20655" lon="-3.1142">
        <ele>128</ele>
        <time>2016-03-03T12:16:37Z</time>
      </trkpt>
      <trkpt lat="48.20654" lon="-3.11414">
        <ele>128</ele>
        <time>2016-03-03T12:16:40Z</time>
      </trkpt>
      <trkpt lat="48.20651" lon="-3.11407">
        <ele>128</ele>
        <time>2016-03-03T12:16:44Z</time>
      </trkpt>
      <trkpt lat="48.20648" lon="-3.11403">
        <ele>128</ele>
        <time>2016-03-03T12:16:47Z</time>
      </trkpt>
      <trkpt lat="48.20644" lon="-3.11398">
        <ele>128</ele>
        <time>2016-03-03T12:16:51Z</time>
      </trkpt>
      <trkpt lat="48.20639" lon="-3.11394">
        <ele>128</ele>
        <time>2016-03-03T12:16:54Z</time>
      </trkpt>
      <trkpt lat="48.20636" lon="-3.11389">
        <ele>128</ele>
        <time>2016-03-03T12:16:57Z</time>
      </trkpt>
      <trkpt lat="48.20633" lon="-3.11386">
        <ele>128</ele>
        <time>2016-03-03T12:17:00Z</time>
      </trkpt>
      <trkpt lat="48.2063" lon="-3.11382">
        <ele>128</ele>
        <time>2016-03-03T12:17:03Z</time>
      </trkpt>
      <trkpt lat="48.20628" lon="-3.11377">
        <ele>128</ele>
        <time>2016-03-03T12:17:06Z</time>
      </trkpt>
      <trkpt lat="48.20627" lon="-3.11371">
        <ele>128</ele>
        <time>2016-03-03T12:17:09Z</time>
      </trkpt>
      <trkpt lat="48.20625" lon="-3.11365">
        <ele>128</ele>
        <time>2016-03-03T12:17:12Z</time>
      </trkpt>
      <trkpt lat="48.20623" lon="-3.11358">
        <ele>128</ele>
        <time>2016-03-03T12:17:16Z</time>
      </trkpt>
      <trkpt lat="48.20623" lon="-3.11353">
        <ele>128</ele>
        <time>2016-03-03T12:17:19Z</time>
      </trkpt>
      <trkpt lat="48.20621" lon="-3.11349">
        <ele>128</ele>
        <time>2016-03-03T12:17:22Z</time>
      </trkpt>
      <trkpt lat="48.20619" lon="-3.11344">
        <ele>128</ele>
        <time>2016-03-03T12:17:25Z</time>
      </trkpt>
      <trkpt lat="48.20614" lon="-3.11338">
        <ele>128</ele>
        <time>2016-03-03T12:17:29Z</time>
      </trkpt>
      <trkpt lat="48.20612" lon="-3.11332">
        <ele>128</ele>
        <time>2016-03-03T12:17:32Z</time>
      </trkpt>
      <trkpt lat="48.2061" lon="-3.11326">
        <ele>128</ele>
        <time>2016-03-03T12:17:35Z</time>
      </trkpt>
      <trkpt lat="48.20607" lon="-3.1132">
        <ele>128</ele>
        <time>2016-03-03T12:17:38Z</time>
      </trkpt>
      <trkpt lat="48.20604" lon="-3.11315">
        <ele>128</ele>
        <time>2016-03-03T12:17:41Z</time>
      </trkpt>
      <trkpt lat="48.20602" lon="-3.1131">
        <ele>128</ele>
        <time>2016-03-03T12:17:44Z</time>
      </trkpt>
      <trkpt lat="48.20599" lon="-3.11305">
        <ele>128</ele>
        <time>2016-03-03T12:17:47Z</time>
      </trkpt>
      <trkpt lat="48.20597" lon="-3.11299">
        <ele>128</ele>
        <time>2016-03-03T12:17:50Z</time>
      </trkpt>
      <trkpt lat="48.20595" lon="-3.11294">
        <ele>128</ele>
        <time>2016-03-03T12:17:53Z</time>
      </trkpt>
      <trkpt lat="48.20593" lon="-3.1129">
        <ele>128</ele>
        <time>2016-03-03T12:17:56Z</time>
      </trkpt>
      <trkpt lat="48.20591" lon="-3.11284">
        <ele>128</ele>
        <time>2016-03-03T12:17:59Z</time>
      </trkpt>
      <trkpt lat="48.20589" lon="-3.11279">
        <ele>128</ele>
        <time>2016-03-03T12:18:02Z</time>
      </trkpt>
      <trkpt lat="48.20588" lon="-3.11273">
        <ele>128</ele>
        <time>2016-03-03T12:18:05Z</time>
      </trkpt>
      <trkpt lat="48.20587" lon="-3.11267">
        <ele>128</ele>
        <time>2016-03-03T12:18:08Z</time>
      </trkpt>
      <trkpt lat="48.20586" lon="-3.1126">
        <ele>128</ele>
        <time>2016-03-03T12:18:11Z</time>
      </trkpt>
      <trkpt lat="48.20585" lon="-3.11253">
        <ele>129</ele>
        <time>2016-03-03T12:18:14Z</time>
      </trkpt>
      <trkpt lat="48.20583" lon="-3.11245">
        <ele>129</ele>
        <time>2016-03-03T12:18:18Z</time>
      </trkpt>
      <trkpt lat="48.20581" lon="-3.11241">
        <ele>129</ele>
        <time>2016-03-03T12:18:21Z</time>
      </trkpt>
      <trkpt lat="48.20578" lon="-3.11234">
        <ele>129</ele>
        <time>2016-03-03T12:18:25Z</time>
      </trkpt>
      <trkpt lat="48.20576" lon="-3.11229">
        <ele>129</ele>
        <time>2016-03-03T12:18:29Z</time>
      </trkpt>
      <trkpt lat="48.20575" lon="-3.11227">
        <ele>127</ele>
        <time>2016-03-03T12:18:32Z</time>
      </trkpt>
      <trkpt lat="48.20575" lon="-3.11222">
        <ele>127</ele>
        <time>2016-03-03T12:18:35Z</time>
      </trkpt>
      <trkpt lat="48.20575" lon="-3.11215">
        <ele>127</ele>
        <time>2016-03-03T12:18:38Z</time>
      </trkpt>
      <trkpt lat="48.20574" lon="-3.11209">
        <ele>127</ele>
        <time>2016-03-03T12:18:41Z</time>
      </trkpt>
      <trkpt lat="48.20573" lon="-3.11203">
        <ele>127</ele>
        <time>2016-03-03T12:18:44Z</time>
      </trkpt>
      <trkpt lat="48.20574" lon="-3.11196">
        <ele>127</ele>
        <time>2016-03-03T12:18:47Z</time>
      </trkpt>
      <trkpt lat="48.20573" lon="-3.11188">
        <ele>127</ele>
        <time>2016-03-03T12:18:51Z</time>
      </trkpt>
      <trkpt lat="48.20572" lon="-3.11181">
        <ele>128</ele>
        <time>2016-03-03T12:18:54Z</time>
      </trkpt>
      <trkpt lat="48.20572" lon="-3.11175">
        <ele>129</ele>
        <time>2016-03-03T12:18:57Z</time>
      </trkpt>
      <trkpt lat="48.20573" lon="-3.11168">
        <ele>131</ele>
        <time>2016-03-03T12:19:00Z</time>
      </trkpt>
      <trkpt lat="48.20574" lon="-3.11161">
        <ele>132</ele>
        <time>2016-03-03T12:19:03Z</time>
      </trkpt>
      <trkpt lat="48.20575" lon="-3.11156">
        <ele>133</ele>
        <time>2016-03-03T12:19:06Z</time>
      </trkpt>
      <trkpt lat="48.20574" lon="-3.1115">
        <ele>133</ele>
        <time>2016-03-03T12:19:09Z</time>
      </trkpt>
      <trkpt lat="48.20574" lon="-3.11144">
        <ele>133</ele>
        <time>2016-03-03T12:19:12Z</time>
      </trkpt>
      <trkpt lat="48.20574" lon="-3.11138">
        <ele>133</ele>
        <time>2016-03-03T12:19:15Z</time>
      </trkpt>
      <trkpt lat="48.20574" lon="-3.11131">
        <ele>133</ele>
        <time>2016-03-03T12:19:18Z</time>
      </trkpt>
      <trkpt lat="48.20573" lon="-3.11125">
        <ele>133</ele>
        <time>2016-03-03T12:19:21Z</time>
      </trkpt>
      <trkpt lat="48.20573" lon="-3.11119">
        <ele>133</ele>
        <time>2016-03-03T12:19:24Z</time>
      </trkpt>
      <trkpt lat="48.20573" lon="-3.11112">
        <ele>134</ele>
        <time>2016-03-03T12:19:27Z</time>
      </trkpt>
      <trkpt lat="48.20573" lon="-3.11107">
        <ele>134</ele>
        <time>2016-03-03T12:19:30Z</time>
      </trkpt>
      <trkpt lat="48.20575" lon="-3.11101">
        <ele>134</ele>
        <time>2016-03-03T12:19:33Z</time>
      </trkpt>
      <trkpt lat="48.20576" lon="-3.11096">
        <ele>134</ele>
        <time>2016-03-03T12:19:36Z</time>
      </trkpt>
      <trkpt lat="48.20577" lon="-3.1109">
        <ele>134</ele>
        <time>2016-03-03T12:19:39Z</time>
      </trkpt>
      <trkpt lat="48.20579" lon="-3.11084">
        <ele>134</ele>
        <time>2016-03-03T12:19:42Z</time>
      </trkpt>
      <trkpt lat="48.2058" lon="-3.11077">
        <ele>134</ele>
        <time>2016-03-03T12:19:45Z</time>
      </trkpt>
      <trkpt lat="48.20581" lon="-3.11072">
        <ele>134</ele>
        <time>2016-03-03T12:19:48Z</time>
      </trkpt>
      <trkpt lat="48.20582" lon="-3.11066">
        <ele>134</ele>
        <time>2016-03-03T12:19:51Z</time>
      </trkpt>
      <trkpt lat="48.20585" lon="-3.11062">
        <ele>134</ele>
        <time>2016-03-03T12:19:54Z</time>
      </trkpt>
      <trkpt lat="48.20586" lon="-3.11056">
        <ele>134</ele>
        <time>2016-03-03T12:19:57Z</time>
      </trkpt>
      <trkpt lat="48.20588" lon="-3.11052">
        <ele>134</ele>
        <time>2016-03-03T12:20:01Z</time>
      </trkpt>
      <trkpt lat="48.2059" lon="-3.11049">
        <ele>134</ele>
        <time>2016-03-03T12:20:04Z</time>
      </trkpt>
      <trkpt lat="48.20594" lon="-3.11047">
        <ele>134</ele>
        <time>2016-03-03T12:20:08Z</time>
      </trkpt>
      <trkpt lat="48.20597" lon="-3.11044">
        <ele>134</ele>
        <time>2016-03-03T12:20:11Z</time>
      </trkpt>
      <trkpt lat="48.20601" lon="-3.11041">
        <ele>134</ele>
        <time>2016-03-03T12:20:14Z</time>
      </trkpt>
      <trkpt lat="48.20604" lon="-3.11039">
        <ele>134</ele>
        <time>2016-03-03T12:20:17Z</time>
      </trkpt>
      <trkpt lat="48.20607" lon="-3.11038">
        <ele>134</ele>
        <time>2016-03-03T12:20:20Z</time>
      </trkpt>
      <trkpt lat="48.20612" lon="-3.11038">
        <ele>134</ele>
        <time>2016-03-03T12:20:23Z</time>
      </trkpt>
      <trkpt lat="48.20615" lon="-3.11036">
        <ele>134</ele>
        <time>2016-03-03T12:20:26Z</time>
      </trkpt>
      <trkpt lat="48.20619" lon="-3.11034">
        <ele>134</ele>
        <time>2016-03-03T12:20:29Z</time>
      </trkpt>
      <trkpt lat="48.20623" lon="-3.11034">
        <ele>134</ele>
        <time>2016-03-03T12:20:32Z</time>
      </trkpt>
      <trkpt lat="48.20626" lon="-3.11033">
        <ele>134</ele>
        <time>2016-03-03T12:20:35Z</time>
      </trkpt>
      <trkpt lat="48.2063" lon="-3.11033">
        <ele>134</ele>
        <time>2016-03-03T12:20:38Z</time>
      </trkpt>
      <trkpt lat="48.20634" lon="-3.11032">
        <ele>134</ele>
        <time>2016-03-03T12:20:41Z</time>
      </trkpt>
      <trkpt lat="48.20638" lon="-3.11031">
        <ele>134</ele>
        <time>2016-03-03T12:20:45Z</time>
      </trkpt>
      <trkpt lat="48.20642" lon="-3.1103">
        <ele>134</ele>
        <time>2016-03-03T12:20:48Z</time>
      </trkpt>
      <trkpt lat="48.20646" lon="-3.11028">
        <ele>134</ele>
        <time>2016-03-03T12:20:51Z</time>
      </trkpt>
      <trkpt lat="48.2065" lon="-3.11028">
        <ele>134</ele>
        <time>2016-03-03T12:20:54Z</time>
      </trkpt>
      <trkpt lat="48.20654" lon="-3.11027">
        <ele>134</ele>
        <time>2016-03-03T12:20:57Z</time>
      </trkpt>
      <trkpt lat="48.20658" lon="-3.11025">
        <ele>134</ele>
        <time>2016-03-03T12:21:00Z</time>
      </trkpt>
      <trkpt lat="48.20662" lon="-3.11023">
        <ele>134</ele>
        <time>2016-03-03T12:21:03Z</time>
      </trkpt>
      <trkpt lat="48.20666" lon="-3.1102">
        <ele>134</ele>
        <time>2016-03-03T12:21:06Z</time>
      </trkpt>
      <trkpt lat="48.2067" lon="-3.11019">
        <ele>134</ele>
        <time>2016-03-03T12:21:09Z</time>
      </trkpt>
      <trkpt lat="48.20673" lon="-3.11017">
        <ele>134</ele>
        <time>2016-03-03T12:21:12Z</time>
      </trkpt>
      <trkpt lat="48.20678" lon="-3.11014">
        <ele>134</ele>
        <time>2016-03-03T12:21:16Z</time>
      </trkpt>
      <trkpt lat="48.20683" lon="-3.11011">
        <ele>134</ele>
        <time>2016-03-03T12:21:20Z</time>
      </trkpt>
      <trkpt lat="48.20687" lon="-3.11009">
        <ele>134</ele>
        <time>2016-03-03T12:21:23Z</time>
      </trkpt>
      <trkpt lat="48.20691" lon="-3.11007">
        <ele>134</ele>
        <time>2016-03-03T12:21:27Z</time>
      </trkpt>
      <trkpt lat="48.20694" lon="-3.11005">
        <ele>134</ele>
        <time>2016-03-03T12:21:30Z</time>
      </trkpt>
      <trkpt lat="48.20698" lon="-3.11002">
        <ele>134</ele>
        <time>2016-03-03T12:21:34Z</time>
      </trkpt>
      <trkpt lat="48.20702" lon="-3.10998">
        <ele>134</ele>
        <time>2016-03-03T12:21:38Z</time>
      </trkpt>
      <trkpt lat="48.20705" lon="-3.10994">
        <ele>134</ele>
        <time>2016-03-03T12:21:42Z</time>
      </trkpt>
      <trkpt lat="48.20707" lon="-3.10989">
        <ele>134</ele>
        <time>2016-03-03T12:21:47Z</time>
      </trkpt>
      <trkpt lat="48.20708" lon="-3.10988">
        <ele>134</ele>
        <time>2016-03-03T12:21:50Z</time>
      </trkpt>
      <trkpt lat="48.20708" lon="-3.10984">
        <ele>134</ele>
        <time>2016-03-03T12:21:54Z</time>
      </trkpt>
      <trkpt lat="48.20711" lon="-3.10982">
        <ele>134</ele>
        <time>2016-03-03T12:21:58Z</time>
      </trkpt>
      <trkpt lat="48.20714" lon="-3.1098">
        <ele>134</ele>
        <time>2016-03-03T12:22:02Z</time>
      </trkpt>
      <trkpt lat="48.20717" lon="-3.10978">
        <ele>134</ele>
        <time>2016-03-03T12:22:08Z</time>
      </trkpt>
      <trkpt lat="48.2072" lon="-3.10979">
        <ele>133</ele>
        <time>2016-03-03T12:22:12Z</time>
      </trkpt>
      <trkpt lat="48.20724" lon="-3.1098">
        <ele>132</ele>
        <time>2016-03-03T12:22:16Z</time>
      </trkpt>
      <trkpt lat="48.20728" lon="-3.10983">
        <ele>131</ele>
        <time>2016-03-03T12:22:20Z</time>
      </trkpt>
      <trkpt lat="48.20731" lon="-3.10987">
        <ele>130</ele>
        <time>2016-03-03T12:22:24Z</time>
      </trkpt>
      <trkpt lat="48.20734" lon="-3.10987">
        <ele>130</ele>
        <time>2016-03-03T12:22:28Z</time>
      </trkpt>
      <trkpt lat="48.20738" lon="-3.10984">
        <ele>130</ele>
        <time>2016-03-03T12:22:32Z</time>
      </trkpt>
      <trkpt lat="48.20741" lon="-3.10982">
        <ele>129</ele>
        <time>2016-03-03T12:22:35Z</time>
      </trkpt>
      <trkpt lat="48.20744" lon="-3.10979">
        <ele>129</ele>
        <time>2016-03-03T12:22:38Z</time>
      </trkpt>
      <trkpt lat="48.20747" lon="-3.10978">
        <ele>129</ele>
        <time>2016-03-03T12:22:41Z</time>
      </trkpt>
      <trkpt lat="48.20749" lon="-3.10976">
        <ele>129</ele>
        <time>2016-03-03T12:22:59Z</time>
      </trkpt>
      <trkpt lat="48.2075" lon="-3.10977">
        <ele>129</ele>
        <time>2016-03-03T12:23:02Z</time>
      </trkpt>
      <trkpt lat="48.20753" lon="-3.10981">
        <ele>129</ele>
        <time>2016-03-03T12:23:06Z</time>
      </trkpt>
      <trkpt lat="48.20755" lon="-3.10983">
        <ele>129</ele>
        <time>2016-03-03T12:23:09Z</time>
      </trkpt>
      <trkpt lat="48.20757" lon="-3.10987">
        <ele>129</ele>
        <time>2016-03-03T12:23:12Z</time>
      </trkpt>
      <trkpt lat="48.20758" lon="-3.10992">
        <ele>129</ele>
        <time>2016-03-03T12:23:16Z</time>
      </trkpt>
      <trkpt lat="48.2076" lon="-3.10996">
        <ele>129</ele>
        <time>2016-03-03T12:23:20Z</time>
      </trkpt>
      <trkpt lat="48.20763" lon="-3.10999">
        <ele>129</ele>
        <time>2016-03-03T12:23:24Z</time>
      </trkpt>
      <trkpt lat="48.20766" lon="-3.11001">
        <ele>129</ele>
        <time>2016-03-03T12:23:27Z</time>
      </trkpt>
      <trkpt lat="48.20768" lon="-3.11001">
        <ele>129</ele>
        <time>2016-03-03T12:23:30Z</time>
      </trkpt>
      <trkpt lat="48.20771" lon="-3.11">
        <ele>129</ele>
        <time>2016-03-03T12:23:34Z</time>
      </trkpt>
      <trkpt lat="48.20775" lon="-3.10999">
        <ele>129</ele>
        <time>2016-03-03T12:23:38Z</time>
      </trkpt>
      <trkpt lat="48.20778" lon="-3.10999">
        <ele>129</ele>
        <time>2016-03-03T12:23:42Z</time>
      </trkpt>
      <trkpt lat="48.20779" lon="-3.10998">
        <ele>129</ele>
        <time>2016-03-03T12:23:59Z</time>
      </trkpt>
      <trkpt lat="48.20781" lon="-3.10999">
        <ele>129</ele>
        <time>2016-03-03T12:24:11Z</time>
      </trkpt>
      <trkpt lat="48.20782" lon="-3.10999">
        <ele>129</ele>
        <time>2016-03-03T12:24:15Z</time>
      </trkpt>
      <trkpt lat="48.20783" lon="-3.10999">
        <ele>129</ele>
        <time>2016-03-03T12:24:18Z</time>
      </trkpt>
      <trkpt lat="48.20785" lon="-3.10999">
        <ele>129</ele>
        <time>2016-03-03T12:24:21Z</time>
      </trkpt>
      <trkpt lat="48.20786" lon="-3.10997">
        <ele>129</ele>
        <time>2016-03-03T12:24:30Z</time>
      </trkpt>
      <trkpt lat="48.20784" lon="-3.10997">
        <ele>129</ele>
        <time>2016-03-03T12:24:41Z</time>
      </trkpt>
      <trkpt lat="48.20783" lon="-3.10997">
        <ele>131</ele>
        <time>2016-03-03T12:24:48Z</time>
      </trkpt>
      <trkpt lat="48.20783" lon="-3.10998">
        <ele>129</ele>
        <time>2016-03-03T12:25:08Z</time>
      </trkpt>
      <trkpt lat="48.20784" lon="-3.11">
        <ele>127</ele>
        <time>2016-03-03T12:25:15Z</time>
      </trkpt>
      <trkpt lat="48.20785" lon="-3.11">
        <ele>126</ele>
        <time>2016-03-03T12:25:22Z</time>
      </trkpt>
      <trkpt lat="48.20784" lon="-3.10999">
        <ele>126</ele>
        <time>2016-03-03T12:25:28Z</time>
      </trkpt>
      <trkpt lat="48.20781" lon="-3.10999">
        <ele>127</ele>
        <time>2016-03-03T12:25:36Z</time>
      </trkpt>
      <trkpt lat="48.2078" lon="-3.10999">
        <ele>128</ele>
        <time>2016-03-03T12:25:41Z</time>
      </trkpt>
      <trkpt lat="48.20779" lon="-3.10998">
        <ele>134</ele>
        <time>2016-03-03T12:25:53Z</time>
      </trkpt>
      <trkpt lat="48.20778" lon="-3.10999">
        <ele>134</ele>
        <time>2016-03-03T12:25:58Z</time>
      </trkpt>
      <trkpt lat="48.20779" lon="-3.10998">
        <ele>134</ele>
        <time>2016-03-03T12:26:09Z</time>
      </trkpt>
      <trkpt lat="48.20778" lon="-3.10997">
        <ele>134</ele>
        <time>2016-03-03T12:26:15Z</time>
      </trkpt>
      <trkpt lat="48.20779" lon="-3.11">
        <ele>134</ele>
        <time>2016-03-03T12:26:18Z</time>
      </trkpt>
      <trkpt lat="48.20781" lon="-3.11004">
        <ele>134</ele>
        <time>2016-03-03T12:26:22Z</time>
      </trkpt>
      <trkpt lat="48.20784" lon="-3.11005">
        <ele>134</ele>
        <time>2016-03-03T12:26:26Z</time>
      </trkpt>
      <trkpt lat="48.20786" lon="-3.11006">
        <ele>134</ele>
        <time>2016-03-03T12:26:29Z</time>
      </trkpt>
      <trkpt lat="48.20787" lon="-3.11007">
        <ele>132</ele>
        <time>2016-03-03T12:26:42Z</time>
      </trkpt>
      <trkpt lat="48.20789" lon="-3.11009">
        <ele>132</ele>
        <time>2016-03-03T12:26:47Z</time>
      </trkpt>
      <trkpt lat="48.20791" lon="-3.11009">
        <ele>132</ele>
        <time>2016-03-03T12:26:51Z</time>
      </trkpt>
      <trkpt lat="48.20792" lon="-3.11009">
        <ele>132</ele>
        <time>2016-03-03T12:27:00Z</time>
      </trkpt>
      <trkpt lat="48.20792" lon="-3.11012">
        <ele>132</ele>
        <time>2016-03-03T12:27:03Z</time>
      </trkpt>
      <trkpt lat="48.20794" lon="-3.11016">
        <ele>133</ele>
        <time>2016-03-03T12:27:07Z</time>
      </trkpt>
      <trkpt lat="48.20794" lon="-3.11021">
        <ele>134</ele>
        <time>2016-03-03T12:27:11Z</time>
      </trkpt>
      <trkpt lat="48.20793" lon="-3.11026">
        <ele>136</ele>
        <time>2016-03-03T12:27:15Z</time>
      </trkpt>
      <trkpt lat="48.20793" lon="-3.1103">
        <ele>137</ele>
        <time>2016-03-03T12:27:18Z</time>
      </trkpt>
      <trkpt lat="48.20793" lon="-3.11033">
        <ele>137</ele>
        <time>2016-03-03T12:27:21Z</time>
      </trkpt>
      <trkpt lat="48.2079" lon="-3.11037">
        <ele>137</ele>
        <time>2016-03-03T12:27:25Z</time>
      </trkpt>
      <trkpt lat="48.20789" lon="-3.11042">
        <ele>137</ele>
        <time>2016-03-03T12:27:29Z</time>
      </trkpt>
      <trkpt lat="48.20787" lon="-3.11047">
        <ele>137</ele>
        <time>2016-03-03T12:27:33Z</time>
      </trkpt>
      <trkpt lat="48.20784" lon="-3.11051">
        <ele>137</ele>
        <time>2016-03-03T12:27:37Z</time>
      </trkpt>
      <trkpt lat="48.20781" lon="-3.11056">
        <ele>137</ele>
        <time>2016-03-03T12:27:41Z</time>
      </trkpt>
      <trkpt lat="48.20779" lon="-3.11059">
        <ele>137</ele>
        <time>2016-03-03T12:27:45Z</time>
      </trkpt>
      <trkpt lat="48.20778" lon="-3.11064">
        <ele>137</ele>
        <time>2016-03-03T12:27:49Z</time>
      </trkpt>
      <trkpt lat="48.20777" lon="-3.11066">
        <ele>137</ele>
        <time>2016-03-03T12:27:52Z</time>
      </trkpt>
      <trkpt lat="48.20775" lon="-3.11069">
        <ele>137</ele>
        <time>2016-03-03T12:27:57Z</time>
      </trkpt>
      <trkpt lat="48.20773" lon="-3.11073">
        <ele>137</ele>
        <time>2016-03-03T12:28:02Z</time>
      </trkpt>
      <trkpt lat="48.20772" lon="-3.11078">
        <ele>137</ele>
        <time>2016-03-03T12:28:06Z</time>
      </trkpt>
      <trkpt lat="48.20771" lon="-3.11082">
        <ele>137</ele>
        <time>2016-03-03T12:28:10Z</time>
      </trkpt>
      <trkpt lat="48.20771" lon="-3.11085">
        <ele>137</ele>
        <time>2016-03-03T12:28:13Z</time>
      </trkpt>
      <trkpt lat="48.20771" lon="-3.11088">
        <ele>137</ele>
        <time>2016-03-03T12:28:17Z</time>
      </trkpt>
      <trkpt lat="48.20774" lon="-3.11092">
        <ele>139</ele>
        <time>2016-03-03T12:28:21Z</time>
      </trkpt>
      <trkpt lat="48.20776" lon="-3.11094">
        <ele>140</ele>
        <time>2016-03-03T12:28:24Z</time>
      </trkpt>
      <trkpt lat="48.20779" lon="-3.11096">
        <ele>140</ele>
        <time>2016-03-03T12:28:28Z</time>
      </trkpt>
      <trkpt lat="48.20782" lon="-3.11098">
        <ele>141</ele>
        <time>2016-03-03T12:28:32Z</time>
      </trkpt>
      <trkpt lat="48.20785" lon="-3.111">
        <ele>141</ele>
        <time>2016-03-03T12:28:36Z</time>
      </trkpt>
      <trkpt lat="48.20789" lon="-3.111">
        <ele>141</ele>
        <time>2016-03-03T12:28:40Z</time>
      </trkpt>
      <trkpt lat="48.20792" lon="-3.11102">
        <ele>141</ele>
        <time>2016-03-03T12:28:44Z</time>
      </trkpt>
      <trkpt lat="48.20794" lon="-3.11105">
        <ele>142</ele>
        <time>2016-03-03T12:28:48Z</time>
      </trkpt>
      <trkpt lat="48.20796" lon="-3.1111">
        <ele>143</ele>
        <time>2016-03-03T12:28:53Z</time>
      </trkpt>
      <trkpt lat="48.20795" lon="-3.11115">
        <ele>144</ele>
        <time>2016-03-03T12:28:57Z</time>
      </trkpt>
      <trkpt lat="48.20792" lon="-3.11119">
        <ele>144</ele>
        <time>2016-03-03T12:29:01Z</time>
      </trkpt>
      <trkpt lat="48.20789" lon="-3.11122">
        <ele>144</ele>
        <time>2016-03-03T12:29:04Z</time>
      </trkpt>
      <trkpt lat="48.20786" lon="-3.11126">
        <ele>144</ele>
        <time>2016-03-03T12:29:09Z</time>
      </trkpt>
      <trkpt lat="48.20784" lon="-3.11131">
        <ele>144</ele>
        <time>2016-03-03T12:29:13Z</time>
      </trkpt>
      <trkpt lat="48.20783" lon="-3.11135">
        <ele>144</ele>
        <time>2016-03-03T12:29:17Z</time>
      </trkpt>
      <trkpt lat="48.20781" lon="-3.11139">
        <ele>144</ele>
        <time>2016-03-03T12:29:21Z</time>
      </trkpt>
      <trkpt lat="48.20781" lon="-3.11145">
        <ele>144</ele>
        <time>2016-03-03T12:29:25Z</time>
      </trkpt>
      <trkpt lat="48.20781" lon="-3.1115">
        <ele>145</ele>
        <time>2016-03-03T12:29:29Z</time>
      </trkpt>
      <trkpt lat="48.2078" lon="-3.11154">
        <ele>146</ele>
        <time>2016-03-03T12:29:32Z</time>
      </trkpt>
      <trkpt lat="48.20779" lon="-3.1116">
        <ele>147</ele>
        <time>2016-03-03T12:29:36Z</time>
      </trkpt>
      <trkpt lat="48.2078" lon="-3.11166">
        <ele>148</ele>
        <time>2016-03-03T12:29:40Z</time>
      </trkpt>
      <trkpt lat="48.2078" lon="-3.11172">
        <ele>149</ele>
        <time>2016-03-03T12:29:44Z</time>
      </trkpt>
      <trkpt lat="48.20781" lon="-3.11177">
        <ele>150</ele>
        <time>2016-03-03T12:29:48Z</time>
      </trkpt>
      <trkpt lat="48.20782" lon="-3.11182">
        <ele>151</ele>
        <time>2016-03-03T12:29:52Z</time>
      </trkpt>
      <trkpt lat="48.20782" lon="-3.11188">
        <ele>152</ele>
        <time>2016-03-03T12:29:56Z</time>
      </trkpt>
      <trkpt lat="48.20784" lon="-3.11194">
        <ele>152</ele>
        <time>2016-03-03T12:30:00Z</time>
      </trkpt>
      <trkpt lat="48.20786" lon="-3.11199">
        <ele>152</ele>
        <time>2016-03-03T12:30:04Z</time>
      </trkpt>
      <trkpt lat="48.20788" lon="-3.11204">
        <ele>153</ele>
        <time>2016-03-03T12:30:08Z</time>
      </trkpt>
      <trkpt lat="48.20791" lon="-3.11208">
        <ele>153</ele>
        <time>2016-03-03T12:30:12Z</time>
      </trkpt>
      <trkpt lat="48.20794" lon="-3.11211">
        <ele>154</ele>
        <time>2016-03-03T12:30:16Z</time>
      </trkpt>
      <trkpt lat="48.20797" lon="-3.11215">
        <ele>156</ele>
        <time>2016-03-03T12:30:20Z</time>
      </trkpt>
      <trkpt lat="48.208" lon="-3.11219">
        <ele>157</ele>
        <time>2016-03-03T12:30:24Z</time>
      </trkpt>
      <trkpt lat="48.20803" lon="-3.11223">
        <ele>158</ele>
        <time>2016-03-03T12:30:28Z</time>
      </trkpt>
      <trkpt lat="48.20807" lon="-3.11227">
        <ele>158</ele>
        <time>2016-03-03T12:30:32Z</time>
      </trkpt>
      <trkpt lat="48.2081" lon="-3.11231">
        <ele>160</ele>
        <time>2016-03-03T12:30:36Z</time>
      </trkpt>
      <trkpt lat="48.20811" lon="-3.11236">
        <ele>160</ele>
        <time>2016-03-03T12:30:39Z</time>
      </trkpt>
      <trkpt lat="48.20812" lon="-3.11241">
        <ele>160</ele>
        <time>2016-03-03T12:30:42Z</time>
      </trkpt>
      <trkpt lat="48.20814" lon="-3.11244">
        <ele>161</ele>
        <time>2016-03-03T12:30:46Z</time>
      </trkpt>
      <trkpt lat="48.20817" lon="-3.11245">
        <ele>161</ele>
        <time>2016-03-03T12:30:49Z</time>
      </trkpt>
      <trkpt lat="48.20821" lon="-3.11246">
        <ele>162</ele>
        <time>2016-03-03T12:30:52Z</time>
      </trkpt>
      <trkpt lat="48.20825" lon="-3.11245">
        <ele>162</ele>
        <time>2016-03-03T12:30:56Z</time>
      </trkpt>
      <trkpt lat="48.20829" lon="-3.11243">
        <ele>162</ele>
        <time>2016-03-03T12:31:00Z</time>
      </trkpt>
      <trkpt lat="48.20832" lon="-3.11243">
        <ele>162</ele>
        <time>2016-03-03T12:31:03Z</time>
      </trkpt>
      <trkpt lat="48.20834" lon="-3.11242">
        <ele>163</ele>
        <time>2016-03-03T12:31:10Z</time>
      </trkpt>
      <trkpt lat="48.20838" lon="-3.1124">
        <ele>163</ele>
        <time>2016-03-03T12:31:14Z</time>
      </trkpt>
      <trkpt lat="48.20841" lon="-3.11239">
        <ele>163</ele>
        <time>2016-03-03T12:31:18Z</time>
      </trkpt>
      <trkpt lat="48.20845" lon="-3.11237">
        <ele>163</ele>
        <time>2016-03-03T12:31:22Z</time>
      </trkpt>
      <trkpt lat="48.20849" lon="-3.11236">
        <ele>163</ele>
        <time>2016-03-03T12:31:26Z</time>
      </trkpt>
      <trkpt lat="48.20852" lon="-3.11235">
        <ele>163</ele>
        <time>2016-03-03T12:31:29Z</time>
      </trkpt>
      <trkpt lat="48.20856" lon="-3.11234">
        <ele>163</ele>
        <time>2016-03-03T12:31:33Z</time>
      </trkpt>
      <trkpt lat="48.2086" lon="-3.11233">
        <ele>163</ele>
        <time>2016-03-03T12:31:36Z</time>
      </trkpt>
      <trkpt lat="48.20863" lon="-3.11232">
        <ele>163</ele>
        <time>2016-03-03T12:31:40Z</time>
      </trkpt>
      <trkpt lat="48.20867" lon="-3.11231">
        <ele>163</ele>
        <time>2016-03-03T12:31:43Z</time>
      </trkpt>
      <trkpt lat="48.20871" lon="-3.1123">
        <ele>163</ele>
        <time>2016-03-03T12:31:47Z</time>
      </trkpt>
      <trkpt lat="48.20876" lon="-3.11228">
        <ele>163</ele>
        <time>2016-03-03T12:31:51Z</time>
      </trkpt>
      <trkpt lat="48.20877" lon="-3.11228">
        <ele>163</ele>
        <time>2016-03-03T12:31:54Z</time>
      </trkpt>
      <trkpt lat="48.20879" lon="-3.11228">
        <ele>163</ele>
        <time>2016-03-03T12:31:58Z</time>
      </trkpt>
      <trkpt lat="48.2088" lon="-3.11229">
        <ele>163</ele>
        <time>2016-03-03T12:32:01Z</time>
      </trkpt>
      <trkpt lat="48.20881" lon="-3.1123">
        <ele>163</ele>
        <time>2016-03-03T12:32:04Z</time>
      </trkpt>
      <trkpt lat="48.20881" lon="-3.11232">
        <ele>164</ele>
        <time>2016-03-03T12:32:07Z</time>
      </trkpt>
      <trkpt lat="48.20882" lon="-3.11232">
        <ele>164</ele>
        <time>2016-03-03T12:32:17Z</time>
      </trkpt>
      <trkpt lat="48.20882" lon="-3.11233">
        <ele>164</ele>
        <time>2016-03-03T12:32:22Z</time>
      </trkpt>
      <trkpt lat="48.20883" lon="-3.11235">
        <ele>164</ele>
        <time>2016-03-03T12:32:26Z</time>
      </trkpt>
      <trkpt lat="48.20882" lon="-3.11235">
        <ele>164</ele>
        <time>2016-03-03T12:32:30Z</time>
      </trkpt>
      <trkpt lat="48.20881" lon="-3.11234">
        <ele>164</ele>
        <time>2016-03-03T12:32:34Z</time>
      </trkpt>
      <trkpt lat="48.20882" lon="-3.11235">
        <ele>164</ele>
        <time>2016-03-03T12:32:42Z</time>
      </trkpt>
      <trkpt lat="48.20885" lon="-3.11237">
        <ele>164</ele>
        <time>2016-03-03T12:32:46Z</time>
      </trkpt>
      <trkpt lat="48.20883" lon="-3.11237">
        <ele>164</ele>
        <time>2016-03-03T12:32:49Z</time>
      </trkpt>
      <trkpt lat="48.2088" lon="-3.11236">
        <ele>163</ele>
        <time>2016-03-03T12:32:53Z</time>
      </trkpt>
      <trkpt lat="48.20878" lon="-3.11236">
        <ele>159</ele>
        <time>2016-03-03T12:32:59Z</time>
      </trkpt>
      <trkpt lat="48.20879" lon="-3.11235">
        <ele>157</ele>
        <time>2016-03-03T12:33:02Z</time>
      </trkpt>
      <trkpt lat="48.20883" lon="-3.11237">
        <ele>157</ele>
        <time>2016-03-03T12:33:07Z</time>
      </trkpt>
      <trkpt lat="48.20884" lon="-3.11236">
        <ele>160</ele>
        <time>2016-03-03T12:33:13Z</time>
      </trkpt>
      <trkpt lat="48.20883" lon="-3.11235">
        <ele>161</ele>
        <time>2016-03-03T12:33:16Z</time>
      </trkpt>
      <trkpt lat="48.2088" lon="-3.11234">
        <ele>161</ele>
        <time>2016-03-03T12:33:19Z</time>
      </trkpt>
      <trkpt lat="48.20879" lon="-3.11232">
        <ele>161</ele>
        <time>2016-03-03T12:33:22Z</time>
      </trkpt>
      <trkpt lat="48.20879" lon="-3.1123">
        <ele>161</ele>
        <time>2016-03-03T12:33:25Z</time>
      </trkpt>
      <trkpt lat="48.20883" lon="-3.11227">
        <ele>161</ele>
        <time>2016-03-03T12:33:29Z</time>
      </trkpt>
      <trkpt lat="48.20887" lon="-3.11227">
        <ele>161</ele>
        <time>2016-03-03T12:33:32Z</time>
      </trkpt>
      <trkpt lat="48.20891" lon="-3.11225">
        <ele>161</ele>
        <time>2016-03-03T12:33:36Z</time>
      </trkpt>
      <trkpt lat="48.20895" lon="-3.11223">
        <ele>161</ele>
        <time>2016-03-03T12:33:40Z</time>
      </trkpt>
      <trkpt lat="48.20899" lon="-3.11222">
        <ele>161</ele>
        <time>2016-03-03T12:33:43Z</time>
      </trkpt>
      <trkpt lat="48.20904" lon="-3.1122">
        <ele>161</ele>
        <time>2016-03-03T12:33:47Z</time>
      </trkpt>
      <trkpt lat="48.20902" lon="-3.11221">
        <ele>162</ele>
        <time>2016-03-03T12:33:50Z</time>
      </trkpt>
      <trkpt lat="48.20898" lon="-3.11222">
        <ele>162</ele>
        <time>2016-03-03T12:33:54Z</time>
      </trkpt>
      <trkpt lat="48.20898" lon="-3.11221">
        <ele>162</ele>
        <time>2016-03-03T12:33:59Z</time>
      </trkpt>
      <trkpt lat="48.20901" lon="-3.1122">
        <ele>162</ele>
        <time>2016-03-03T12:34:03Z</time>
      </trkpt>
      <trkpt lat="48.20905" lon="-3.11219">
        <ele>162</ele>
        <time>2016-03-03T12:34:06Z</time>
      </trkpt>
      <trkpt lat="48.20908" lon="-3.11217">
        <ele>162</ele>
        <time>2016-03-03T12:34:09Z</time>
      </trkpt>
      <trkpt lat="48.20911" lon="-3.11215">
        <ele>163</ele>
        <time>2016-03-03T12:34:12Z</time>
      </trkpt>
      <trkpt lat="48.20916" lon="-3.11214">
        <ele>164</ele>
        <time>2016-03-03T12:34:15Z</time>
      </trkpt>
      <trkpt lat="48.2092" lon="-3.1121">
        <ele>164</ele>
        <time>2016-03-03T12:34:19Z</time>
      </trkpt>
      <trkpt lat="48.20924" lon="-3.11209">
        <ele>164</ele>
        <time>2016-03-03T12:34:22Z</time>
      </trkpt>
      <trkpt lat="48.20927" lon="-3.11206">
        <ele>164</ele>
        <time>2016-03-03T12:34:25Z</time>
      </trkpt>
      <trkpt lat="48.20932" lon="-3.11203">
        <ele>164</ele>
        <time>2016-03-03T12:34:29Z</time>
      </trkpt>
      <trkpt lat="48.20935" lon="-3.112">
        <ele>164</ele>
        <time>2016-03-03T12:34:32Z</time>
      </trkpt>
      <trkpt lat="48.20939" lon="-3.11196">
        <ele>164</ele>
        <time>2016-03-03T12:34:35Z</time>
      </trkpt>
      <trkpt lat="48.20943" lon="-3.11194">
        <ele>164</ele>
        <time>2016-03-03T12:34:39Z</time>
      </trkpt>
      <trkpt lat="48.20947" lon="-3.11191">
        <ele>164</ele>
        <time>2016-03-03T12:34:42Z</time>
      </trkpt>
      <trkpt lat="48.20951" lon="-3.11189">
        <ele>164</ele>
        <time>2016-03-03T12:34:45Z</time>
      </trkpt>
      <trkpt lat="48.20956" lon="-3.11186">
        <ele>164</ele>
        <time>2016-03-03T12:34:49Z</time>
      </trkpt>
      <trkpt lat="48.2096" lon="-3.11182">
        <ele>164</ele>
        <time>2016-03-03T12:34:52Z</time>
      </trkpt>
      <trkpt lat="48.20963" lon="-3.1118">
        <ele>164</ele>
        <time>2016-03-03T12:34:55Z</time>
      </trkpt>
      <trkpt lat="48.20967" lon="-3.11178">
        <ele>164</ele>
        <time>2016-03-03T12:34:58Z</time>
      </trkpt>
      <trkpt lat="48.20972" lon="-3.11173">
        <ele>165</ele>
        <time>2016-03-03T12:35:01Z</time>
      </trkpt>
      <trkpt lat="48.20976" lon="-3.1117">
        <ele>166</ele>
        <time>2016-03-03T12:35:04Z</time>
      </trkpt>
      <trkpt lat="48.2098" lon="-3.11167">
        <ele>167</ele>
        <time>2016-03-03T12:35:07Z</time>
      </trkpt>
      <trkpt lat="48.20982" lon="-3.11163">
        <ele>168</ele>
        <time>2016-03-03T12:35:10Z</time>
      </trkpt>
      <trkpt lat="48.20987" lon="-3.1116">
        <ele>168</ele>
        <time>2016-03-03T12:35:13Z</time>
      </trkpt>
      <trkpt lat="48.20991" lon="-3.11157">
        <ele>168</ele>
        <time>2016-03-03T12:35:16Z</time>
      </trkpt>
      <trkpt lat="48.20994" lon="-3.11154">
        <ele>168</ele>
        <time>2016-03-03T12:35:20Z</time>
      </trkpt>
      <trkpt lat="48.20999" lon="-3.11151">
        <ele>168</ele>
        <time>2016-03-03T12:35:23Z</time>
      </trkpt>
      <trkpt lat="48.21002" lon="-3.1115">
        <ele>168</ele>
        <time>2016-03-03T12:35:26Z</time>
      </trkpt>
      <trkpt lat="48.21006" lon="-3.11148">
        <ele>168</ele>
        <time>2016-03-03T12:35:29Z</time>
      </trkpt>
      <trkpt lat="48.21009" lon="-3.11145">
        <ele>168</ele>
        <time>2016-03-03T12:35:32Z</time>
      </trkpt>
      <trkpt lat="48.21013" lon="-3.11142">
        <ele>168</ele>
        <time>2016-03-03T12:35:35Z</time>
      </trkpt>
      <trkpt lat="48.21017" lon="-3.11139">
        <ele>169</ele>
        <time>2016-03-03T12:35:38Z</time>
      </trkpt>
      <trkpt lat="48.21022" lon="-3.11137">
        <ele>171</ele>
        <time>2016-03-03T12:35:41Z</time>
      </trkpt>
      <trkpt lat="48.21025" lon="-3.11134">
        <ele>173</ele>
        <time>2016-03-03T12:35:44Z</time>
      </trkpt>
      <trkpt lat="48.2103" lon="-3.1113">
        <ele>173</ele>
        <time>2016-03-03T12:35:48Z</time>
      </trkpt>
      <trkpt lat="48.21034" lon="-3.11127">
        <ele>174</ele>
        <time>2016-03-03T12:35:52Z</time>
      </trkpt>
      <trkpt lat="48.21038" lon="-3.11124">
        <ele>174</ele>
        <time>2016-03-03T12:35:55Z</time>
      </trkpt>
      <trkpt lat="48.21043" lon="-3.11121">
        <ele>176</ele>
        <time>2016-03-03T12:35:59Z</time>
      </trkpt>
      <trkpt lat="48.21046" lon="-3.11119">
        <ele>177</ele>
        <time>2016-03-03T12:36:03Z</time>
      </trkpt>
      <trkpt lat="48.21051" lon="-3.11118">
        <ele>177</ele>
        <time>2016-03-03T12:36:07Z</time>
      </trkpt>
      <trkpt lat="48.21055" lon="-3.11115">
        <ele>177</ele>
        <time>2016-03-03T12:36:11Z</time>
      </trkpt>
      <trkpt lat="48.21058" lon="-3.11113">
        <ele>178</ele>
        <time>2016-03-03T12:36:14Z</time>
      </trkpt>
      <trkpt lat="48.21062" lon="-3.1111">
        <ele>179</ele>
        <time>2016-03-03T12:36:17Z</time>
      </trkpt>
      <trkpt lat="48.21066" lon="-3.11108">
        <ele>179</ele>
        <time>2016-03-03T12:36:21Z</time>
      </trkpt>
      <trkpt lat="48.2107" lon="-3.11106">
        <ele>180</ele>
        <time>2016-03-03T12:36:24Z</time>
      </trkpt>
      <trkpt lat="48.21074" lon="-3.11104">
        <ele>181</ele>
        <time>2016-03-03T12:36:28Z</time>
      </trkpt>
      <trkpt lat="48.21078" lon="-3.11101">
        <ele>181</ele>
        <time>2016-03-03T12:36:32Z</time>
      </trkpt>
      <trkpt lat="48.21082" lon="-3.11099">
        <ele>181</ele>
        <time>2016-03-03T12:36:36Z</time>
      </trkpt>
      <trkpt lat="48.21087" lon="-3.11097">
        <ele>181</ele>
        <time>2016-03-03T12:36:40Z</time>
      </trkpt>
      <trkpt lat="48.2109" lon="-3.11096">
        <ele>181</ele>
        <time>2016-03-03T12:36:43Z</time>
      </trkpt>
      <trkpt lat="48.21093" lon="-3.11095">
        <ele>181</ele>
        <time>2016-03-03T12:36:46Z</time>
      </trkpt>
      <trkpt lat="48.21098" lon="-3.11092">
        <ele>181</ele>
        <time>2016-03-03T12:36:49Z</time>
      </trkpt>
      <trkpt lat="48.21101" lon="-3.1109">
        <ele>181</ele>
        <time>2016-03-03T12:36:52Z</time>
      </trkpt>
      <trkpt lat="48.21105" lon="-3.11088">
        <ele>181</ele>
        <time>2016-03-03T12:36:55Z</time>
      </trkpt>
      <trkpt lat="48.21109" lon="-3.11086">
        <ele>181</ele>
        <time>2016-03-03T12:36:58Z</time>
      </trkpt>
      <trkpt lat="48.21112" lon="-3.11084">
        <ele>181</ele>
        <time>2016-03-03T12:37:01Z</time>
      </trkpt>
      <trkpt lat="48.21115" lon="-3.11082">
        <ele>181</ele>
        <time>2016-03-03T12:37:04Z</time>
      </trkpt>
      <trkpt lat="48.21119" lon="-3.1108">
        <ele>181</ele>
        <time>2016-03-03T12:37:07Z</time>
      </trkpt>
      <trkpt lat="48.21122" lon="-3.11078">
        <ele>181</ele>
        <time>2016-03-03T12:37:10Z</time>
      </trkpt>
      <trkpt lat="48.21125" lon="-3.11075">
        <ele>181</ele>
        <time>2016-03-03T12:37:14Z</time>
      </trkpt>
      <trkpt lat="48.21128" lon="-3.11072">
        <ele>181</ele>
        <time>2016-03-03T12:37:17Z</time>
      </trkpt>
      <trkpt lat="48.21132" lon="-3.1107">
        <ele>181</ele>
        <time>2016-03-03T12:37:20Z</time>
      </trkpt>
      <trkpt lat="48.21136" lon="-3.11068">
        <ele>181</ele>
        <time>2016-03-03T12:37:24Z</time>
      </trkpt>
      <trkpt lat="48.21139" lon="-3.11066">
        <ele>181</ele>
        <time>2016-03-03T12:37:27Z</time>
      </trkpt>
      <trkpt lat="48.21143" lon="-3.11064">
        <ele>181</ele>
        <time>2016-03-03T12:37:30Z</time>
      </trkpt>
      <trkpt lat="48.21147" lon="-3.11061">
        <ele>181</ele>
        <time>2016-03-03T12:37:34Z</time>
      </trkpt>
      <trkpt lat="48.2115" lon="-3.1106">
        <ele>181</ele>
        <time>2016-03-03T12:37:37Z</time>
      </trkpt>
      <trkpt lat="48.21154" lon="-3.11056">
        <ele>181</ele>
        <time>2016-03-03T12:37:41Z</time>
      </trkpt>
      <trkpt lat="48.21158" lon="-3.11053">
        <ele>181</ele>
        <time>2016-03-03T12:37:44Z</time>
      </trkpt>
      <trkpt lat="48.21162" lon="-3.11051">
        <ele>181</ele>
        <time>2016-03-03T12:37:47Z</time>
      </trkpt>
      <trkpt lat="48.21166" lon="-3.11048">
        <ele>181</ele>
        <time>2016-03-03T12:37:51Z</time>
      </trkpt>
      <trkpt lat="48.21169" lon="-3.11046">
        <ele>181</ele>
        <time>2016-03-03T12:37:54Z</time>
      </trkpt>
      <trkpt lat="48.21173" lon="-3.11044">
        <ele>181</ele>
        <time>2016-03-03T12:37:57Z</time>
      </trkpt>
      <trkpt lat="48.21176" lon="-3.11041">
        <ele>181</ele>
        <time>2016-03-03T12:38:00Z</time>
      </trkpt>
      <trkpt lat="48.2118" lon="-3.11039">
        <ele>181</ele>
        <time>2016-03-03T12:38:03Z</time>
      </trkpt>
      <trkpt lat="48.21184" lon="-3.11037">
        <ele>181</ele>
        <time>2016-03-03T12:38:06Z</time>
      </trkpt>
      <trkpt lat="48.21188" lon="-3.11035">
        <ele>181</ele>
        <time>2016-03-03T12:38:09Z</time>
      </trkpt>
      <trkpt lat="48.21191" lon="-3.11032">
        <ele>181</ele>
        <time>2016-03-03T12:38:13Z</time>
      </trkpt>
      <trkpt lat="48.21194" lon="-3.1103">
        <ele>181</ele>
        <time>2016-03-03T12:38:17Z</time>
      </trkpt>
      <trkpt lat="48.21198" lon="-3.11028">
        <ele>181</ele>
        <time>2016-03-03T12:38:21Z</time>
      </trkpt>
      <trkpt lat="48.21201" lon="-3.11032">
        <ele>181</ele>
        <time>2016-03-03T12:38:25Z</time>
      </trkpt>
      <trkpt lat="48.21204" lon="-3.11036">
        <ele>181</ele>
        <time>2016-03-03T12:38:29Z</time>
      </trkpt>
      <trkpt lat="48.21208" lon="-3.11038">
        <ele>181</ele>
        <time>2016-03-03T12:38:33Z</time>
      </trkpt>
      <trkpt lat="48.21211" lon="-3.1104">
        <ele>181</ele>
        <time>2016-03-03T12:38:36Z</time>
      </trkpt>
      <trkpt lat="48.21214" lon="-3.11042">
        <ele>181</ele>
        <time>2016-03-03T12:38:40Z</time>
      </trkpt>
      <trkpt lat="48.21218" lon="-3.1104">
        <ele>181</ele>
        <time>2016-03-03T12:38:44Z</time>
      </trkpt>
      <trkpt lat="48.2122" lon="-3.11036">
        <ele>181</ele>
        <time>2016-03-03T12:38:48Z</time>
      </trkpt>
      <trkpt lat="48.2122" lon="-3.11031">
        <ele>181</ele>
        <time>2016-03-03T12:38:52Z</time>
      </trkpt>
      <trkpt lat="48.21221" lon="-3.11027">
        <ele>181</ele>
        <time>2016-03-03T12:38:55Z</time>
      </trkpt>
      <trkpt lat="48.21221" lon="-3.11022">
        <ele>181</ele>
        <time>2016-03-03T12:38:58Z</time>
      </trkpt>
      <trkpt lat="48.21222" lon="-3.11017">
        <ele>179</ele>
        <time>2016-03-03T12:39:02Z</time>
      </trkpt>
      <trkpt lat="48.21223" lon="-3.11012">
        <ele>178</ele>
        <time>2016-03-03T12:39:06Z</time>
      </trkpt>
      <trkpt lat="48.21226" lon="-3.1101">
        <ele>176</ele>
        <time>2016-03-03T12:39:09Z</time>
      </trkpt>
      <trkpt lat="48.2123" lon="-3.11009">
        <ele>176</ele>
        <time>2016-03-03T12:39:12Z</time>
      </trkpt>
      <trkpt lat="48.21234" lon="-3.11009">
        <ele>176</ele>
        <time>2016-03-03T12:39:15Z</time>
      </trkpt>
      <trkpt lat="48.21238" lon="-3.1101">
        <ele>176</ele>
        <time>2016-03-03T12:39:18Z</time>
      </trkpt>
      <trkpt lat="48.21241" lon="-3.1101">
        <ele>176</ele>
        <time>2016-03-03T12:39:21Z</time>
      </trkpt>
      <trkpt lat="48.21245" lon="-3.11011">
        <ele>176</ele>
        <time>2016-03-03T12:39:24Z</time>
      </trkpt>
      <trkpt lat="48.21249" lon="-3.11011">
        <ele>176</ele>
        <time>2016-03-03T12:39:27Z</time>
      </trkpt>
      <trkpt lat="48.21253" lon="-3.11012">
        <ele>176</ele>
        <time>2016-03-03T12:39:31Z</time>
      </trkpt>
      <trkpt lat="48.21257" lon="-3.11013">
        <ele>176</ele>
        <time>2016-03-03T12:39:34Z</time>
      </trkpt>
      <trkpt lat="48.21262" lon="-3.11014">
        <ele>176</ele>
        <time>2016-03-03T12:39:38Z</time>
      </trkpt>
      <trkpt lat="48.21267" lon="-3.11013">
        <ele>176</ele>
        <time>2016-03-03T12:39:42Z</time>
      </trkpt>
      <trkpt lat="48.2127" lon="-3.11012">
        <ele>176</ele>
        <time>2016-03-03T12:39:45Z</time>
      </trkpt>
      <trkpt lat="48.21274" lon="-3.11008">
        <ele>176</ele>
        <time>2016-03-03T12:39:49Z</time>
      </trkpt>
      <trkpt lat="48.21278" lon="-3.11004">
        <ele>176</ele>
        <time>2016-03-03T12:39:53Z</time>
      </trkpt>
      <trkpt lat="48.2128" lon="-3.11">
        <ele>176</ele>
        <time>2016-03-03T12:39:57Z</time>
      </trkpt>
      <trkpt lat="48.21282" lon="-3.10996">
        <ele>176</ele>
        <time>2016-03-03T12:40:01Z</time>
      </trkpt>
      <trkpt lat="48.21285" lon="-3.10992">
        <ele>176</ele>
        <time>2016-03-03T12:40:05Z</time>
      </trkpt>
      <trkpt lat="48.21288" lon="-3.10986">
        <ele>176</ele>
        <time>2016-03-03T12:40:09Z</time>
      </trkpt>
      <trkpt lat="48.2129" lon="-3.10982">
        <ele>176</ele>
        <time>2016-03-03T12:40:13Z</time>
      </trkpt>
      <trkpt lat="48.21293" lon="-3.10976">
        <ele>176</ele>
        <time>2016-03-03T12:40:17Z</time>
      </trkpt>
      <trkpt lat="48.21296" lon="-3.10971">
        <ele>176</ele>
        <time>2016-03-03T12:40:21Z</time>
      </trkpt>
      <trkpt lat="48.21297" lon="-3.10964">
        <ele>176</ele>
        <time>2016-03-03T12:40:25Z</time>
      </trkpt>
      <trkpt lat="48.213" lon="-3.10959">
        <ele>176</ele>
        <time>2016-03-03T12:40:29Z</time>
      </trkpt>
      <trkpt lat="48.21301" lon="-3.10954">
        <ele>176</ele>
        <time>2016-03-03T12:40:32Z</time>
      </trkpt>
      <trkpt lat="48.21303" lon="-3.1095">
        <ele>176</ele>
        <time>2016-03-03T12:40:35Z</time>
      </trkpt>
      <trkpt lat="48.21305" lon="-3.10944">
        <ele>176</ele>
        <time>2016-03-03T12:40:39Z</time>
      </trkpt>
      <trkpt lat="48.21307" lon="-3.10938">
        <ele>176</ele>
        <time>2016-03-03T12:40:42Z</time>
      </trkpt>
      <trkpt lat="48.21309" lon="-3.10932">
        <ele>176</ele>
        <time>2016-03-03T12:40:46Z</time>
      </trkpt>
      <trkpt lat="48.21311" lon="-3.10926">
        <ele>176</ele>
        <time>2016-03-03T12:40:50Z</time>
      </trkpt>
      <trkpt lat="48.21313" lon="-3.10921">
        <ele>176</ele>
        <time>2016-03-03T12:40:53Z</time>
      </trkpt>
      <trkpt lat="48.21315" lon="-3.10915">
        <ele>176</ele>
        <time>2016-03-03T12:40:57Z</time>
      </trkpt>
      <trkpt lat="48.21317" lon="-3.1091">
        <ele>176</ele>
        <time>2016-03-03T12:41:00Z</time>
      </trkpt>
      <trkpt lat="48.21318" lon="-3.10905">
        <ele>176</ele>
        <time>2016-03-03T12:41:03Z</time>
      </trkpt>
      <trkpt lat="48.2132" lon="-3.109">
        <ele>176</ele>
        <time>2016-03-03T12:41:06Z</time>
      </trkpt>
      <trkpt lat="48.21322" lon="-3.10895">
        <ele>176</ele>
        <time>2016-03-03T12:41:09Z</time>
      </trkpt>
      <trkpt lat="48.21323" lon="-3.1089">
        <ele>176</ele>
        <time>2016-03-03T12:41:12Z</time>
      </trkpt>
      <trkpt lat="48.21325" lon="-3.10885">
        <ele>176</ele>
        <time>2016-03-03T12:41:15Z</time>
      </trkpt>
      <trkpt lat="48.21326" lon="-3.10882">
        <ele>176</ele>
        <time>2016-03-03T12:41:18Z</time>
      </trkpt>
      <trkpt lat="48.21327" lon="-3.10878">
        <ele>176</ele>
        <time>2016-03-03T12:41:21Z</time>
      </trkpt>
      <trkpt lat="48.21328" lon="-3.10873">
        <ele>176</ele>
        <time>2016-03-03T12:41:24Z</time>
      </trkpt>
      <trkpt lat="48.2133" lon="-3.10868">
        <ele>176</ele>
        <time>2016-03-03T12:41:27Z</time>
      </trkpt>
      <trkpt lat="48.21331" lon="-3.10862">
        <ele>176</ele>
        <time>2016-03-03T12:41:30Z</time>
      </trkpt>
      <trkpt lat="48.21332" lon="-3.10856">
        <ele>176</ele>
        <time>2016-03-03T12:41:34Z</time>
      </trkpt>
      <trkpt lat="48.21333" lon="-3.10851">
        <ele>176</ele>
        <time>2016-03-03T12:41:37Z</time>
      </trkpt>
      <trkpt lat="48.21333" lon="-3.10844">
        <ele>176</ele>
        <time>2016-03-03T12:41:40Z</time>
      </trkpt>
      <trkpt lat="48.21333" lon="-3.10838">
        <ele>176</ele>
        <time>2016-03-03T12:41:43Z</time>
      </trkpt>
      <trkpt lat="48.21332" lon="-3.10831">
        <ele>176</ele>
        <time>2016-03-03T12:41:46Z</time>
      </trkpt>
      <trkpt lat="48.21333" lon="-3.10825">
        <ele>176</ele>
        <time>2016-03-03T12:41:49Z</time>
      </trkpt>
      <trkpt lat="48.21333" lon="-3.1082">
        <ele>176</ele>
        <time>2016-03-03T12:41:52Z</time>
      </trkpt>
      <trkpt lat="48.21334" lon="-3.10814">
        <ele>176</ele>
        <time>2016-03-03T12:41:55Z</time>
      </trkpt>
      <trkpt lat="48.21335" lon="-3.10808">
        <ele>176</ele>
        <time>2016-03-03T12:41:58Z</time>
      </trkpt>
      <trkpt lat="48.21335" lon="-3.108">
        <ele>176</ele>
        <time>2016-03-03T12:42:02Z</time>
      </trkpt>
      <trkpt lat="48.21336" lon="-3.10793">
        <ele>176</ele>
        <time>2016-03-03T12:42:05Z</time>
      </trkpt>
      <trkpt lat="48.21336" lon="-3.10788">
        <ele>176</ele>
        <time>2016-03-03T12:42:08Z</time>
      </trkpt>
      <trkpt lat="48.21337" lon="-3.10782">
        <ele>176</ele>
        <time>2016-03-03T12:42:12Z</time>
      </trkpt>
      <trkpt lat="48.21338" lon="-3.10776">
        <ele>176</ele>
        <time>2016-03-03T12:42:16Z</time>
      </trkpt>
      <trkpt lat="48.21339" lon="-3.10771">
        <ele>176</ele>
        <time>2016-03-03T12:42:19Z</time>
      </trkpt>
      <trkpt lat="48.21339" lon="-3.10766">
        <ele>176</ele>
        <time>2016-03-03T12:42:22Z</time>
      </trkpt>
      <trkpt lat="48.21339" lon="-3.10761">
        <ele>176</ele>
        <time>2016-03-03T12:42:25Z</time>
      </trkpt>
      <trkpt lat="48.2134" lon="-3.10755">
        <ele>176</ele>
        <time>2016-03-03T12:42:28Z</time>
      </trkpt>
      <trkpt lat="48.2134" lon="-3.10749">
        <ele>176</ele>
        <time>2016-03-03T12:42:33Z</time>
      </trkpt>
      <trkpt lat="48.21341" lon="-3.10744">
        <ele>176</ele>
        <time>2016-03-03T12:42:36Z</time>
      </trkpt>
      <trkpt lat="48.21342" lon="-3.10739">
        <ele>176</ele>
        <time>2016-03-03T12:42:39Z</time>
      </trkpt>
      <trkpt lat="48.21344" lon="-3.10734">
        <ele>176</ele>
        <time>2016-03-03T12:42:42Z</time>
      </trkpt>
      <trkpt lat="48.21345" lon="-3.10729">
        <ele>176</ele>
        <time>2016-03-03T12:42:45Z</time>
      </trkpt>
      <trkpt lat="48.21346" lon="-3.10724">
        <ele>176</ele>
        <time>2016-03-03T12:42:48Z</time>
      </trkpt>
      <trkpt lat="48.21348" lon="-3.10718">
        <ele>176</ele>
        <time>2016-03-03T12:42:51Z</time>
      </trkpt>
      <trkpt lat="48.21349" lon="-3.10714">
        <ele>176</ele>
        <time>2016-03-03T12:42:54Z</time>
      </trkpt>
      <trkpt lat="48.21352" lon="-3.10707">
        <ele>176</ele>
        <time>2016-03-03T12:42:58Z</time>
      </trkpt>
      <trkpt lat="48.21353" lon="-3.10702">
        <ele>176</ele>
        <time>2016-03-03T12:43:01Z</time>
      </trkpt>
      <trkpt lat="48.21357" lon="-3.10696">
        <ele>176</ele>
        <time>2016-03-03T12:43:05Z</time>
      </trkpt>
      <trkpt lat="48.21359" lon="-3.10691">
        <ele>176</ele>
        <time>2016-03-03T12:43:08Z</time>
      </trkpt>
      <trkpt lat="48.21362" lon="-3.10686">
        <ele>177</ele>
        <time>2016-03-03T12:43:12Z</time>
      </trkpt>
      <trkpt lat="48.21366" lon="-3.10681">
        <ele>177</ele>
        <time>2016-03-03T12:43:16Z</time>
      </trkpt>
      <trkpt lat="48.21368" lon="-3.10676">
        <ele>178</ele>
        <time>2016-03-03T12:43:20Z</time>
      </trkpt>
      <trkpt lat="48.2137" lon="-3.1067">
        <ele>178</ele>
        <time>2016-03-03T12:43:24Z</time>
      </trkpt>
      <trkpt lat="48.21372" lon="-3.10665">
        <ele>178</ele>
        <time>2016-03-03T12:43:28Z</time>
      </trkpt>
      <trkpt lat="48.21373" lon="-3.10661">
        <ele>178</ele>
        <time>2016-03-03T12:43:31Z</time>
      </trkpt>
      <trkpt lat="48.21375" lon="-3.10656">
        <ele>178</ele>
        <time>2016-03-03T12:43:35Z</time>
      </trkpt>
      <trkpt lat="48.21378" lon="-3.10651">
        <ele>178</ele>
        <time>2016-03-03T12:43:39Z</time>
      </trkpt>
      <trkpt lat="48.21381" lon="-3.10647">
        <ele>178</ele>
        <time>2016-03-03T12:43:43Z</time>
      </trkpt>
      <trkpt lat="48.21384" lon="-3.1064">
        <ele>177</ele>
        <time>2016-03-03T12:43:47Z</time>
      </trkpt>
      <trkpt lat="48.21386" lon="-3.10636">
        <ele>176</ele>
        <time>2016-03-03T12:43:50Z</time>
      </trkpt>
      <trkpt lat="48.21389" lon="-3.1063">
        <ele>176</ele>
        <time>2016-03-03T12:43:54Z</time>
      </trkpt>
      <trkpt lat="48.21393" lon="-3.10625">
        <ele>175</ele>
        <time>2016-03-03T12:43:58Z</time>
      </trkpt>
      <trkpt lat="48.21396" lon="-3.1062">
        <ele>175</ele>
        <time>2016-03-03T12:44:02Z</time>
      </trkpt>
      <trkpt lat="48.21399" lon="-3.10616">
        <ele>175</ele>
        <time>2016-03-03T12:44:05Z</time>
      </trkpt>
      <trkpt lat="48.21402" lon="-3.10611">
        <ele>175</ele>
        <time>2016-03-03T12:44:08Z</time>
      </trkpt>
      <trkpt lat="48.21404" lon="-3.10606">
        <ele>175</ele>
        <time>2016-03-03T12:44:12Z</time>
      </trkpt>
      <trkpt lat="48.21407" lon="-3.10601">
        <ele>178</ele>
        <time>2016-03-03T12:44:16Z</time>
      </trkpt>
      <trkpt lat="48.21409" lon="-3.10597">
        <ele>179</ele>
        <time>2016-03-03T12:44:19Z</time>
      </trkpt>
      <trkpt lat="48.21413" lon="-3.10591">
        <ele>179</ele>
        <time>2016-03-03T12:44:23Z</time>
      </trkpt>
      <trkpt lat="48.21415" lon="-3.10586">
        <ele>179</ele>
        <time>2016-03-03T12:44:27Z</time>
      </trkpt>
      <trkpt lat="48.21418" lon="-3.10582">
        <ele>179</ele>
        <time>2016-03-03T12:44:30Z</time>
      </trkpt>
      <trkpt lat="48.21421" lon="-3.10576">
        <ele>179</ele>
        <time>2016-03-03T12:44:34Z</time>
      </trkpt>
      <trkpt lat="48.21424" lon="-3.10572">
        <ele>179</ele>
        <time>2016-03-03T12:44:37Z</time>
      </trkpt>
      <trkpt lat="48.21426" lon="-3.10567">
        <ele>179</ele>
        <time>2016-03-03T12:44:40Z</time>
      </trkpt>
      <trkpt lat="48.21429" lon="-3.10562">
        <ele>179</ele>
        <time>2016-03-03T12:44:43Z</time>
      </trkpt>
      <trkpt lat="48.21432" lon="-3.10558">
        <ele>179</ele>
        <time>2016-03-03T12:44:46Z</time>
      </trkpt>
      <trkpt lat="48.21434" lon="-3.10553">
        <ele>179</ele>
        <time>2016-03-03T12:44:49Z</time>
      </trkpt>
      <trkpt lat="48.21436" lon="-3.10546">
        <ele>179</ele>
        <time>2016-03-03T12:44:52Z</time>
      </trkpt>
      <trkpt lat="48.21441" lon="-3.10541">
        <ele>179</ele>
        <time>2016-03-03T12:44:56Z</time>
      </trkpt>
      <trkpt lat="48.21444" lon="-3.10536">
        <ele>179</ele>
        <time>2016-03-03T12:45:00Z</time>
      </trkpt>
      <trkpt lat="48.21446" lon="-3.10531">
        <ele>179</ele>
        <time>2016-03-03T12:45:03Z</time>
      </trkpt>
      <trkpt lat="48.21449" lon="-3.10526">
        <ele>179</ele>
        <time>2016-03-03T12:45:07Z</time>
      </trkpt>
      <trkpt lat="48.2145" lon="-3.10521">
        <ele>179</ele>
        <time>2016-03-03T12:45:10Z</time>
      </trkpt>
      <trkpt lat="48.21452" lon="-3.10517">
        <ele>179</ele>
        <time>2016-03-03T12:45:13Z</time>
      </trkpt>
      <trkpt lat="48.21455" lon="-3.10512">
        <ele>179</ele>
        <time>2016-03-03T12:45:17Z</time>
      </trkpt>
      <trkpt lat="48.21458" lon="-3.10508">
        <ele>179</ele>
        <time>2016-03-03T12:45:21Z</time>
      </trkpt>
      <trkpt lat="48.2146" lon="-3.10504">
        <ele>179</ele>
        <time>2016-03-03T12:45:24Z</time>
      </trkpt>
      <trkpt lat="48.21463" lon="-3.10498">
        <ele>179</ele>
        <time>2016-03-03T12:45:28Z</time>
      </trkpt>
      <trkpt lat="48.21466" lon="-3.10493">
        <ele>179</ele>
        <time>2016-03-03T12:45:31Z</time>
      </trkpt>
      <trkpt lat="48.21469" lon="-3.10488">
        <ele>179</ele>
        <time>2016-03-03T12:45:35Z</time>
      </trkpt>
      <trkpt lat="48.21473" lon="-3.10483">
        <ele>179</ele>
        <time>2016-03-03T12:45:39Z</time>
      </trkpt>
      <trkpt lat="48.21476" lon="-3.10479">
        <ele>179</ele>
        <time>2016-03-03T12:45:42Z</time>
      </trkpt>
      <trkpt lat="48.2148" lon="-3.10473">
        <ele>179</ele>
        <time>2016-03-03T12:45:46Z</time>
      </trkpt>
      <trkpt lat="48.21483" lon="-3.10467">
        <ele>179</ele>
        <time>2016-03-03T12:45:50Z</time>
      </trkpt>
      <trkpt lat="48.21485" lon="-3.10461">
        <ele>180</ele>
        <time>2016-03-03T12:45:54Z</time>
      </trkpt>
      <trkpt lat="48.21489" lon="-3.10457">
        <ele>180</ele>
        <time>2016-03-03T12:45:58Z</time>
      </trkpt>
      <trkpt lat="48.21492" lon="-3.10453">
        <ele>180</ele>
        <time>2016-03-03T12:46:01Z</time>
      </trkpt>
      <trkpt lat="48.21495" lon="-3.1045">
        <ele>180</ele>
        <time>2016-03-03T12:46:04Z</time>
      </trkpt>
      <trkpt lat="48.21498" lon="-3.10445">
        <ele>180</ele>
        <time>2016-03-03T12:46:08Z</time>
      </trkpt>
      <trkpt lat="48.21501" lon="-3.1044">
        <ele>180</ele>
        <time>2016-03-03T12:46:12Z</time>
      </trkpt>
      <trkpt lat="48.21503" lon="-3.10436">
        <ele>180</ele>
        <time>2016-03-03T12:46:15Z</time>
      </trkpt>
      <trkpt lat="48.21504" lon="-3.10429">
        <ele>180</ele>
        <time>2016-03-03T12:46:18Z</time>
      </trkpt>
      <trkpt lat="48.21508" lon="-3.10423">
        <ele>180</ele>
        <time>2016-03-03T12:46:22Z</time>
      </trkpt>
      <trkpt lat="48.21511" lon="-3.10418">
        <ele>180</ele>
        <time>2016-03-03T12:46:26Z</time>
      </trkpt>
      <trkpt lat="48.21515" lon="-3.10414">
        <ele>180</ele>
        <time>2016-03-03T12:46:30Z</time>
      </trkpt>
      <trkpt lat="48.21518" lon="-3.10408">
        <ele>180</ele>
        <time>2016-03-03T12:46:34Z</time>
      </trkpt>
      <trkpt lat="48.21522" lon="-3.10403">
        <ele>180</ele>
        <time>2016-03-03T12:46:38Z</time>
      </trkpt>
      <trkpt lat="48.21524" lon="-3.10398">
        <ele>180</ele>
        <time>2016-03-03T12:46:42Z</time>
      </trkpt>
      <trkpt lat="48.21527" lon="-3.10394">
        <ele>180</ele>
        <time>2016-03-03T12:46:45Z</time>
      </trkpt>
      <trkpt lat="48.21529" lon="-3.10388">
        <ele>180</ele>
        <time>2016-03-03T12:46:49Z</time>
      </trkpt>
      <trkpt lat="48.21533" lon="-3.10384">
        <ele>180</ele>
        <time>2016-03-03T12:46:53Z</time>
      </trkpt>
      <trkpt lat="48.21536" lon="-3.10379">
        <ele>180</ele>
        <time>2016-03-03T12:46:57Z</time>
      </trkpt>
      <trkpt lat="48.21539" lon="-3.10372">
        <ele>180</ele>
        <time>2016-03-03T12:47:01Z</time>
      </trkpt>
      <trkpt lat="48.21542" lon="-3.10367">
        <ele>180</ele>
        <time>2016-03-03T12:47:05Z</time>
      </trkpt>
      <trkpt lat="48.21545" lon="-3.10362">
        <ele>180</ele>
        <time>2016-03-03T12:47:09Z</time>
      </trkpt>
      <trkpt lat="48.21548" lon="-3.10357">
        <ele>180</ele>
        <time>2016-03-03T12:47:13Z</time>
      </trkpt>
      <trkpt lat="48.21551" lon="-3.10351">
        <ele>180</ele>
        <time>2016-03-03T12:47:17Z</time>
      </trkpt>
      <trkpt lat="48.21553" lon="-3.10346">
        <ele>180</ele>
        <time>2016-03-03T12:47:21Z</time>
      </trkpt>
      <trkpt lat="48.21556" lon="-3.1034">
        <ele>180</ele>
        <time>2016-03-03T12:47:25Z</time>
      </trkpt>
      <trkpt lat="48.21558" lon="-3.10336">
        <ele>180</ele>
        <time>2016-03-03T12:47:28Z</time>
      </trkpt>
      <trkpt lat="48.21559" lon="-3.10331">
        <ele>180</ele>
        <time>2016-03-03T12:47:31Z</time>
      </trkpt>
      <trkpt lat="48.21562" lon="-3.10325">
        <ele>180</ele>
        <time>2016-03-03T12:47:35Z</time>
      </trkpt>
      <trkpt lat="48.21564" lon="-3.10319">
        <ele>180</ele>
        <time>2016-03-03T12:47:39Z</time>
      </trkpt>
      <trkpt lat="48.21566" lon="-3.10314">
        <ele>180</ele>
        <time>2016-03-03T12:47:42Z</time>
      </trkpt>
      <trkpt lat="48.21567" lon="-3.1031">
        <ele>180</ele>
        <time>2016-03-03T12:47:45Z</time>
      </trkpt>
      <trkpt lat="48.21569" lon="-3.10304">
        <ele>180</ele>
        <time>2016-03-03T12:47:48Z</time>
      </trkpt>
      <trkpt lat="48.21571" lon="-3.10298">
        <ele>180</ele>
        <time>2016-03-03T12:47:52Z</time>
      </trkpt>
      <trkpt lat="48.21572" lon="-3.10293">
        <ele>180</ele>
        <time>2016-03-03T12:47:55Z</time>
      </trkpt>
      <trkpt lat="48.21574" lon="-3.10287">
        <ele>180</ele>
        <time>2016-03-03T12:47:59Z</time>
      </trkpt>
      <trkpt lat="48.21576" lon="-3.10282">
        <ele>180</ele>
        <time>2016-03-03T12:48:02Z</time>
      </trkpt>
      <trkpt lat="48.21578" lon="-3.10277">
        <ele>180</ele>
        <time>2016-03-03T12:48:05Z</time>
      </trkpt>
      <trkpt lat="48.2158" lon="-3.10272">
        <ele>180</ele>
        <time>2016-03-03T12:48:08Z</time>
      </trkpt>
      <trkpt lat="48.21581" lon="-3.10267">
        <ele>180</ele>
        <time>2016-03-03T12:48:11Z</time>
      </trkpt>
      <trkpt lat="48.21584" lon="-3.10262">
        <ele>180</ele>
        <time>2016-03-03T12:48:15Z</time>
      </trkpt>
      <trkpt lat="48.21585" lon="-3.10257">
        <ele>180</ele>
        <time>2016-03-03T12:48:18Z</time>
      </trkpt>
      <trkpt lat="48.21587" lon="-3.1025">
        <ele>180</ele>
        <time>2016-03-03T12:48:22Z</time>
      </trkpt>
      <trkpt lat="48.21588" lon="-3.10245">
        <ele>180</ele>
        <time>2016-03-03T12:48:25Z</time>
      </trkpt>
      <trkpt lat="48.2159" lon="-3.1024">
        <ele>180</ele>
        <time>2016-03-03T12:48:28Z</time>
      </trkpt>
      <trkpt lat="48.21591" lon="-3.10235">
        <ele>180</ele>
        <time>2016-03-03T12:48:31Z</time>
      </trkpt>
      <trkpt lat="48.21593" lon="-3.10229">
        <ele>180</ele>
        <time>2016-03-03T12:48:34Z</time>
      </trkpt>
      <trkpt lat="48.21595" lon="-3.10225">
        <ele>180</ele>
        <time>2016-03-03T12:48:37Z</time>
      </trkpt>
      <trkpt lat="48.21596" lon="-3.1022">
        <ele>180</ele>
        <time>2016-03-03T12:48:40Z</time>
      </trkpt>
      <trkpt lat="48.21598" lon="-3.10215">
        <ele>180</ele>
        <time>2016-03-03T12:48:43Z</time>
      </trkpt>
      <trkpt lat="48.21599" lon="-3.1021">
        <ele>180</ele>
        <time>2016-03-03T12:48:46Z</time>
      </trkpt>
      <trkpt lat="48.21601" lon="-3.10203">
        <ele>180</ele>
        <time>2016-03-03T12:48:50Z</time>
      </trkpt>
      <trkpt lat="48.21603" lon="-3.10197">
        <ele>180</ele>
        <time>2016-03-03T12:48:54Z</time>
      </trkpt>
      <trkpt lat="48.21605" lon="-3.10193">
        <ele>180</ele>
        <time>2016-03-03T12:48:57Z</time>
      </trkpt>
      <trkpt lat="48.21607" lon="-3.10188">
        <ele>180</ele>
        <time>2016-03-03T12:49:00Z</time>
      </trkpt>
      <trkpt lat="48.21608" lon="-3.10183">
        <ele>180</ele>
        <time>2016-03-03T12:49:03Z</time>
      </trkpt>
      <trkpt lat="48.21611" lon="-3.10176">
        <ele>180</ele>
        <time>2016-03-03T12:49:07Z</time>
      </trkpt>
      <trkpt lat="48.21611" lon="-3.10171">
        <ele>180</ele>
        <time>2016-03-03T12:49:10Z</time>
      </trkpt>
      <trkpt lat="48.21613" lon="-3.10166">
        <ele>180</ele>
        <time>2016-03-03T12:49:13Z</time>
      </trkpt>
      <trkpt lat="48.21615" lon="-3.1016">
        <ele>180</ele>
        <time>2016-03-03T12:49:16Z</time>
      </trkpt>
      <trkpt lat="48.21616" lon="-3.10155">
        <ele>180</ele>
        <time>2016-03-03T12:49:19Z</time>
      </trkpt>
      <trkpt lat="48.21618" lon="-3.1015">
        <ele>180</ele>
        <time>2016-03-03T12:49:22Z</time>
      </trkpt>
      <trkpt lat="48.21621" lon="-3.10144">
        <ele>180</ele>
        <time>2016-03-03T12:49:26Z</time>
      </trkpt>
      <trkpt lat="48.21623" lon="-3.10138">
        <ele>179</ele>
        <time>2016-03-03T12:49:30Z</time>
      </trkpt>
      <trkpt lat="48.21625" lon="-3.10133">
        <ele>179</ele>
        <time>2016-03-03T12:49:34Z</time>
      </trkpt>
      <trkpt lat="48.21627" lon="-3.10129">
        <ele>179</ele>
        <time>2016-03-03T12:49:37Z</time>
      </trkpt>
      <trkpt lat="48.2163" lon="-3.10123">
        <ele>179</ele>
        <time>2016-03-03T12:49:41Z</time>
      </trkpt>
      <trkpt lat="48.21631" lon="-3.10117">
        <ele>179</ele>
        <time>2016-03-03T12:49:44Z</time>
      </trkpt>
      <trkpt lat="48.21632" lon="-3.10112">
        <ele>179</ele>
        <time>2016-03-03T12:49:47Z</time>
      </trkpt>
      <trkpt lat="48.21634" lon="-3.10107">
        <ele>179</ele>
        <time>2016-03-03T12:49:50Z</time>
      </trkpt>
      <trkpt lat="48.21637" lon="-3.101">
        <ele>179</ele>
        <time>2016-03-03T12:49:55Z</time>
      </trkpt>
      <trkpt lat="48.21638" lon="-3.10096">
        <ele>179</ele>
        <time>2016-03-03T12:49:58Z</time>
      </trkpt>
      <trkpt lat="48.21641" lon="-3.1009">
        <ele>179</ele>
        <time>2016-03-03T12:50:02Z</time>
      </trkpt>
      <trkpt lat="48.21643" lon="-3.10084">
        <ele>179</ele>
        <time>2016-03-03T12:50:06Z</time>
      </trkpt>
      <trkpt lat="48.21645" lon="-3.10078">
        <ele>179</ele>
        <time>2016-03-03T12:50:10Z</time>
      </trkpt>
      <trkpt lat="48.21647" lon="-3.10071">
        <ele>179</ele>
        <time>2016-03-03T12:50:14Z</time>
      </trkpt>
      <trkpt lat="48.21648" lon="-3.10066">
        <ele>179</ele>
        <time>2016-03-03T12:50:17Z</time>
      </trkpt>
      <trkpt lat="48.2165" lon="-3.10061">
        <ele>179</ele>
        <time>2016-03-03T12:50:20Z</time>
      </trkpt>
      <trkpt lat="48.21651" lon="-3.10056">
        <ele>179</ele>
        <time>2016-03-03T12:50:23Z</time>
      </trkpt>
      <trkpt lat="48.21653" lon="-3.1005">
        <ele>179</ele>
        <time>2016-03-03T12:50:26Z</time>
      </trkpt>
      <trkpt lat="48.21654" lon="-3.10045">
        <ele>179</ele>
        <time>2016-03-03T12:50:29Z</time>
      </trkpt>
      <trkpt lat="48.21656" lon="-3.10038">
        <ele>179</ele>
        <time>2016-03-03T12:50:33Z</time>
      </trkpt>
      <trkpt lat="48.21658" lon="-3.10034">
        <ele>179</ele>
        <time>2016-03-03T12:50:36Z</time>
      </trkpt>
      <trkpt lat="48.21661" lon="-3.10029">
        <ele>179</ele>
        <time>2016-03-03T12:50:40Z</time>
      </trkpt>
      <trkpt lat="48.21663" lon="-3.10024">
        <ele>179</ele>
        <time>2016-03-03T12:50:44Z</time>
      </trkpt>
      <trkpt lat="48.21664" lon="-3.10018">
        <ele>179</ele>
        <time>2016-03-03T12:50:47Z</time>
      </trkpt>
      <trkpt lat="48.21666" lon="-3.10012">
        <ele>179</ele>
        <time>2016-03-03T12:50:51Z</time>
      </trkpt>
      <trkpt lat="48.21668" lon="-3.10007">
        <ele>179</ele>
        <time>2016-03-03T12:50:54Z</time>
      </trkpt>
      <trkpt lat="48.21669" lon="-3.10002">
        <ele>179</ele>
        <time>2016-03-03T12:50:57Z</time>
      </trkpt>
      <trkpt lat="48.21671" lon="-3.09997">
        <ele>179</ele>
        <time>2016-03-03T12:51:01Z</time>
      </trkpt>
      <trkpt lat="48.21674" lon="-3.09991">
        <ele>179</ele>
        <time>2016-03-03T12:51:05Z</time>
      </trkpt>
      <trkpt lat="48.21675" lon="-3.09984">
        <ele>179</ele>
        <time>2016-03-03T12:51:09Z</time>
      </trkpt>
      <trkpt lat="48.21678" lon="-3.09978">
        <ele>179</ele>
        <time>2016-03-03T12:51:13Z</time>
      </trkpt>
      <trkpt lat="48.2168" lon="-3.09973">
        <ele>179</ele>
        <time>2016-03-03T12:51:17Z</time>
      </trkpt>
      <trkpt lat="48.2168" lon="-3.09965">
        <ele>179</ele>
        <time>2016-03-03T12:51:20Z</time>
      </trkpt>
      <trkpt lat="48.21681" lon="-3.0996">
        <ele>179</ele>
        <time>2016-03-03T12:51:23Z</time>
      </trkpt>
      <trkpt lat="48.21682" lon="-3.09956">
        <ele>179</ele>
        <time>2016-03-03T12:51:26Z</time>
      </trkpt>
      <trkpt lat="48.21685" lon="-3.09949">
        <ele>179</ele>
        <time>2016-03-03T12:51:30Z</time>
      </trkpt>
      <trkpt lat="48.21687" lon="-3.09943">
        <ele>179</ele>
        <time>2016-03-03T12:51:34Z</time>
      </trkpt>
      <trkpt lat="48.21689" lon="-3.09939">
        <ele>179</ele>
        <time>2016-03-03T12:51:37Z</time>
      </trkpt>
      <trkpt lat="48.2169" lon="-3.09932">
        <ele>179</ele>
        <time>2016-03-03T12:51:40Z</time>
      </trkpt>
      <trkpt lat="48.2169" lon="-3.09925">
        <ele>180</ele>
        <time>2016-03-03T12:51:43Z</time>
      </trkpt>
      <trkpt lat="48.21692" lon="-3.0992">
        <ele>181</ele>
        <time>2016-03-03T12:51:46Z</time>
      </trkpt>
      <trkpt lat="48.21694" lon="-3.09914">
        <ele>182</ele>
        <time>2016-03-03T12:51:50Z</time>
      </trkpt>
      <trkpt lat="48.21695" lon="-3.09909">
        <ele>182</ele>
        <time>2016-03-03T12:51:53Z</time>
      </trkpt>
      <trkpt lat="48.21697" lon="-3.09904">
        <ele>182</ele>
        <time>2016-03-03T12:51:56Z</time>
      </trkpt>
      <trkpt lat="48.21699" lon="-3.09898">
        <ele>182</ele>
        <time>2016-03-03T12:52:00Z</time>
      </trkpt>
      <trkpt lat="48.21701" lon="-3.09892">
        <ele>182</ele>
        <time>2016-03-03T12:52:03Z</time>
      </trkpt>
      <trkpt lat="48.21703" lon="-3.09888">
        <ele>183</ele>
        <time>2016-03-03T12:52:06Z</time>
      </trkpt>
      <trkpt lat="48.21705" lon="-3.09882">
        <ele>184</ele>
        <time>2016-03-03T12:52:10Z</time>
      </trkpt>
      <trkpt lat="48.21707" lon="-3.09876">
        <ele>184</ele>
        <time>2016-03-03T12:52:14Z</time>
      </trkpt>
      <trkpt lat="48.21708" lon="-3.0987">
        <ele>184</ele>
        <time>2016-03-03T12:52:17Z</time>
      </trkpt>
      <trkpt lat="48.21711" lon="-3.09864">
        <ele>184</ele>
        <time>2016-03-03T12:52:21Z</time>
      </trkpt>
      <trkpt lat="48.21712" lon="-3.09859">
        <ele>184</ele>
        <time>2016-03-03T12:52:24Z</time>
      </trkpt>
      <trkpt lat="48.21714" lon="-3.09855">
        <ele>184</ele>
        <time>2016-03-03T12:52:27Z</time>
      </trkpt>
      <trkpt lat="48.21717" lon="-3.09848">
        <ele>184</ele>
        <time>2016-03-03T12:52:31Z</time>
      </trkpt>
      <trkpt lat="48.21718" lon="-3.09843">
        <ele>184</ele>
        <time>2016-03-03T12:52:34Z</time>
      </trkpt>
      <trkpt lat="48.21719" lon="-3.09837">
        <ele>185</ele>
        <time>2016-03-03T12:52:37Z</time>
      </trkpt>
      <trkpt lat="48.21721" lon="-3.09832">
        <ele>185</ele>
        <time>2016-03-03T12:52:40Z</time>
      </trkpt>
      <trkpt lat="48.21722" lon="-3.09828">
        <ele>185</ele>
        <time>2016-03-03T12:52:43Z</time>
      </trkpt>
      <trkpt lat="48.21724" lon="-3.09821">
        <ele>185</ele>
        <time>2016-03-03T12:52:47Z</time>
      </trkpt>
      <trkpt lat="48.21726" lon="-3.09816">
        <ele>186</ele>
        <time>2016-03-03T12:52:50Z</time>
      </trkpt>
      <trkpt lat="48.21728" lon="-3.09811">
        <ele>186</ele>
        <time>2016-03-03T12:52:53Z</time>
      </trkpt>
      <trkpt lat="48.2173" lon="-3.09804">
        <ele>187</ele>
        <time>2016-03-03T12:52:57Z</time>
      </trkpt>
      <trkpt lat="48.21732" lon="-3.098">
        <ele>187</ele>
        <time>2016-03-03T12:53:00Z</time>
      </trkpt>
      <trkpt lat="48.21733" lon="-3.09795">
        <ele>187</ele>
        <time>2016-03-03T12:53:03Z</time>
      </trkpt>
      <trkpt lat="48.21735" lon="-3.0979">
        <ele>187</ele>
        <time>2016-03-03T12:53:06Z</time>
      </trkpt>
      <trkpt lat="48.21736" lon="-3.09786">
        <ele>187</ele>
        <time>2016-03-03T12:53:09Z</time>
      </trkpt>
      <trkpt lat="48.21738" lon="-3.09781">
        <ele>187</ele>
        <time>2016-03-03T12:53:12Z</time>
      </trkpt>
      <trkpt lat="48.21739" lon="-3.09776">
        <ele>187</ele>
        <time>2016-03-03T12:53:15Z</time>
      </trkpt>
      <trkpt lat="48.21741" lon="-3.0977">
        <ele>187</ele>
        <time>2016-03-03T12:53:19Z</time>
      </trkpt>
      <trkpt lat="48.21743" lon="-3.09766">
        <ele>187</ele>
        <time>2016-03-03T12:53:22Z</time>
      </trkpt>
      <trkpt lat="48.21743" lon="-3.09762">
        <ele>187</ele>
        <time>2016-03-03T12:53:25Z</time>
      </trkpt>
      <trkpt lat="48.21745" lon="-3.09757">
        <ele>187</ele>
        <time>2016-03-03T12:53:28Z</time>
      </trkpt>
      <trkpt lat="48.21746" lon="-3.09752">
        <ele>187</ele>
        <time>2016-03-03T12:53:31Z</time>
      </trkpt>
      <trkpt lat="48.21748" lon="-3.09745">
        <ele>187</ele>
        <time>2016-03-03T12:53:35Z</time>
      </trkpt>
      <trkpt lat="48.2175" lon="-3.0974">
        <ele>187</ele>
        <time>2016-03-03T12:53:38Z</time>
      </trkpt>
      <trkpt lat="48.21752" lon="-3.09734">
        <ele>187</ele>
        <time>2016-03-03T12:53:42Z</time>
      </trkpt>
      <trkpt lat="48.21754" lon="-3.09729">
        <ele>187</ele>
        <time>2016-03-03T12:53:45Z</time>
      </trkpt>
      <trkpt lat="48.21756" lon="-3.09725">
        <ele>187</ele>
        <time>2016-03-03T12:53:48Z</time>
      </trkpt>
      <trkpt lat="48.21757" lon="-3.09719">
        <ele>187</ele>
        <time>2016-03-03T12:53:51Z</time>
      </trkpt>
      <trkpt lat="48.21759" lon="-3.09714">
        <ele>187</ele>
        <time>2016-03-03T12:53:54Z</time>
      </trkpt>
      <trkpt lat="48.2176" lon="-3.09709">
        <ele>187</ele>
        <time>2016-03-03T12:53:57Z</time>
      </trkpt>
      <trkpt lat="48.21763" lon="-3.09703">
        <ele>187</ele>
        <time>2016-03-03T12:54:01Z</time>
      </trkpt>
      <trkpt lat="48.21765" lon="-3.09696">
        <ele>187</ele>
        <time>2016-03-03T12:54:05Z</time>
      </trkpt>
      <trkpt lat="48.21767" lon="-3.09691">
        <ele>187</ele>
        <time>2016-03-03T12:54:09Z</time>
      </trkpt>
      <trkpt lat="48.21767" lon="-3.09687">
        <ele>187</ele>
        <time>2016-03-03T12:54:12Z</time>
      </trkpt>
      <trkpt lat="48.21769" lon="-3.09681">
        <ele>187</ele>
        <time>2016-03-03T12:54:16Z</time>
      </trkpt>
      <trkpt lat="48.21771" lon="-3.09675">
        <ele>186</ele>
        <time>2016-03-03T12:54:20Z</time>
      </trkpt>
      <trkpt lat="48.21774" lon="-3.0967">
        <ele>186</ele>
        <time>2016-03-03T12:54:24Z</time>
      </trkpt>
      <trkpt lat="48.21774" lon="-3.09664">
        <ele>186</ele>
        <time>2016-03-03T12:54:27Z</time>
      </trkpt>
      <trkpt lat="48.21775" lon="-3.09658">
        <ele>186</ele>
        <time>2016-03-03T12:54:30Z</time>
      </trkpt>
      <trkpt lat="48.21777" lon="-3.09652">
        <ele>186</ele>
        <time>2016-03-03T12:54:33Z</time>
      </trkpt>
      <trkpt lat="48.21778" lon="-3.09647">
        <ele>186</ele>
        <time>2016-03-03T12:54:36Z</time>
      </trkpt>
      <trkpt lat="48.21779" lon="-3.09642">
        <ele>186</ele>
        <time>2016-03-03T12:54:39Z</time>
      </trkpt>
      <trkpt lat="48.21781" lon="-3.09636">
        <ele>186</ele>
        <time>2016-03-03T12:54:42Z</time>
      </trkpt>
      <trkpt lat="48.21782" lon="-3.0963">
        <ele>186</ele>
        <time>2016-03-03T12:54:45Z</time>
      </trkpt>
      <trkpt lat="48.21783" lon="-3.09624">
        <ele>186</ele>
        <time>2016-03-03T12:54:48Z</time>
      </trkpt>
      <trkpt lat="48.21784" lon="-3.09619">
        <ele>186</ele>
        <time>2016-03-03T12:54:51Z</time>
      </trkpt>
      <trkpt lat="48.21785" lon="-3.09614">
        <ele>186</ele>
        <time>2016-03-03T12:54:54Z</time>
      </trkpt>
      <trkpt lat="48.21787" lon="-3.09608">
        <ele>186</ele>
        <time>2016-03-03T12:54:58Z</time>
      </trkpt>
      <trkpt lat="48.21788" lon="-3.09602">
        <ele>186</ele>
        <time>2016-03-03T12:55:02Z</time>
      </trkpt>
      <trkpt lat="48.21789" lon="-3.09596">
        <ele>186</ele>
        <time>2016-03-03T12:55:05Z</time>
      </trkpt>
      <trkpt lat="48.2179" lon="-3.09589">
        <ele>186</ele>
        <time>2016-03-03T12:55:09Z</time>
      </trkpt>
      <trkpt lat="48.21791" lon="-3.09584">
        <ele>186</ele>
        <time>2016-03-03T12:55:12Z</time>
      </trkpt>
      <trkpt lat="48.21791" lon="-3.09579">
        <ele>186</ele>
        <time>2016-03-03T12:55:15Z</time>
      </trkpt>
      <trkpt lat="48.21793" lon="-3.09574">
        <ele>186</ele>
        <time>2016-03-03T12:55:18Z</time>
      </trkpt>
      <trkpt lat="48.21793" lon="-3.09569">
        <ele>186</ele>
        <time>2016-03-03T12:55:21Z</time>
      </trkpt>
      <trkpt lat="48.21794" lon="-3.09564">
        <ele>186</ele>
        <time>2016-03-03T12:55:24Z</time>
      </trkpt>
      <trkpt lat="48.21794" lon="-3.09558">
        <ele>186</ele>
        <time>2016-03-03T12:55:28Z</time>
      </trkpt>
      <trkpt lat="48.21795" lon="-3.09554">
        <ele>186</ele>
        <time>2016-03-03T12:55:31Z</time>
      </trkpt>
      <trkpt lat="48.21796" lon="-3.09548">
        <ele>186</ele>
        <time>2016-03-03T12:55:34Z</time>
      </trkpt>
      <trkpt lat="48.21798" lon="-3.09543">
        <ele>186</ele>
        <time>2016-03-03T12:55:37Z</time>
      </trkpt>
      <trkpt lat="48.21798" lon="-3.09538">
        <ele>186</ele>
        <time>2016-03-03T12:55:40Z</time>
      </trkpt>
      <trkpt lat="48.21799" lon="-3.09532">
        <ele>186</ele>
        <time>2016-03-03T12:55:43Z</time>
      </trkpt>
      <trkpt lat="48.218" lon="-3.09527">
        <ele>186</ele>
        <time>2016-03-03T12:55:46Z</time>
      </trkpt>
      <trkpt lat="48.218" lon="-3.09523">
        <ele>186</ele>
        <time>2016-03-03T12:55:49Z</time>
      </trkpt>
      <trkpt lat="48.21801" lon="-3.09518">
        <ele>186</ele>
        <time>2016-03-03T12:55:52Z</time>
      </trkpt>
      <trkpt lat="48.21801" lon="-3.09512">
        <ele>186</ele>
        <time>2016-03-03T12:55:55Z</time>
      </trkpt>
      <trkpt lat="48.21801" lon="-3.09507">
        <ele>186</ele>
        <time>2016-03-03T12:55:58Z</time>
      </trkpt>
      <trkpt lat="48.21802" lon="-3.09501">
        <ele>186</ele>
        <time>2016-03-03T12:56:01Z</time>
      </trkpt>
      <trkpt lat="48.21802" lon="-3.09495">
        <ele>186</ele>
        <time>2016-03-03T12:56:04Z</time>
      </trkpt>
      <trkpt lat="48.21803" lon="-3.0949">
        <ele>186</ele>
        <time>2016-03-03T12:56:07Z</time>
      </trkpt>
      <trkpt lat="48.21803" lon="-3.09484">
        <ele>186</ele>
        <time>2016-03-03T12:56:10Z</time>
      </trkpt>
      <trkpt lat="48.21804" lon="-3.09479">
        <ele>186</ele>
        <time>2016-03-03T12:56:13Z</time>
      </trkpt>
      <trkpt lat="48.21805" lon="-3.09474">
        <ele>186</ele>
        <time>2016-03-03T12:56:16Z</time>
      </trkpt>
      <trkpt lat="48.21805" lon="-3.09469">
        <ele>186</ele>
        <time>2016-03-03T12:56:19Z</time>
      </trkpt>
      <trkpt lat="48.21806" lon="-3.09463">
        <ele>186</ele>
        <time>2016-03-03T12:56:22Z</time>
      </trkpt>
      <trkpt lat="48.21806" lon="-3.09456">
        <ele>186</ele>
        <time>2016-03-03T12:56:25Z</time>
      </trkpt>
      <trkpt lat="48.21806" lon="-3.0945">
        <ele>186</ele>
        <time>2016-03-03T12:56:28Z</time>
      </trkpt>
      <trkpt lat="48.21807" lon="-3.09444">
        <ele>186</ele>
        <time>2016-03-03T12:56:32Z</time>
      </trkpt>
      <trkpt lat="48.21807" lon="-3.09438">
        <ele>186</ele>
        <time>2016-03-03T12:56:35Z</time>
      </trkpt>
      <trkpt lat="48.21806" lon="-3.09432">
        <ele>186</ele>
        <time>2016-03-03T12:56:39Z</time>
      </trkpt>
      <trkpt lat="48.21806" lon="-3.09426">
        <ele>186</ele>
        <time>2016-03-03T12:56:42Z</time>
      </trkpt>
      <trkpt lat="48.21805" lon="-3.09419">
        <ele>186</ele>
        <time>2016-03-03T12:56:46Z</time>
      </trkpt>
      <trkpt lat="48.21806" lon="-3.09413">
        <ele>186</ele>
        <time>2016-03-03T12:56:49Z</time>
      </trkpt>
      <trkpt lat="48.21806" lon="-3.09408">
        <ele>186</ele>
        <time>2016-03-03T12:56:52Z</time>
      </trkpt>
      <trkpt lat="48.21806" lon="-3.09403">
        <ele>186</ele>
        <time>2016-03-03T12:56:55Z</time>
      </trkpt>
      <trkpt lat="48.21806" lon="-3.09398">
        <ele>186</ele>
        <time>2016-03-03T12:56:58Z</time>
      </trkpt>
      <trkpt lat="48.21807" lon="-3.09392">
        <ele>186</ele>
        <time>2016-03-03T12:57:01Z</time>
      </trkpt>
      <trkpt lat="48.21806" lon="-3.09386">
        <ele>186</ele>
        <time>2016-03-03T12:57:04Z</time>
      </trkpt>
      <trkpt lat="48.21805" lon="-3.0938">
        <ele>186</ele>
        <time>2016-03-03T12:57:07Z</time>
      </trkpt>
      <trkpt lat="48.21805" lon="-3.09373">
        <ele>186</ele>
        <time>2016-03-03T12:57:10Z</time>
      </trkpt>
      <trkpt lat="48.21805" lon="-3.09368">
        <ele>186</ele>
        <time>2016-03-03T12:57:13Z</time>
      </trkpt>
      <trkpt lat="48.21805" lon="-3.09361">
        <ele>186</ele>
        <time>2016-03-03T12:57:17Z</time>
      </trkpt>
      <trkpt lat="48.21805" lon="-3.09356">
        <ele>186</ele>
        <time>2016-03-03T12:57:20Z</time>
      </trkpt>
      <trkpt lat="48.21805" lon="-3.09351">
        <ele>186</ele>
        <time>2016-03-03T12:57:23Z</time>
      </trkpt>
      <trkpt lat="48.21804" lon="-3.09345">
        <ele>186</ele>
        <time>2016-03-03T12:57:26Z</time>
      </trkpt>
      <trkpt lat="48.21804" lon="-3.0934">
        <ele>186</ele>
        <time>2016-03-03T12:57:29Z</time>
      </trkpt>
      <trkpt lat="48.21803" lon="-3.09334">
        <ele>186</ele>
        <time>2016-03-03T12:57:32Z</time>
      </trkpt>
      <trkpt lat="48.21803" lon="-3.09329">
        <ele>186</ele>
        <time>2016-03-03T12:57:35Z</time>
      </trkpt>
      <trkpt lat="48.21802" lon="-3.09324">
        <ele>186</ele>
        <time>2016-03-03T12:57:38Z</time>
      </trkpt>
      <trkpt lat="48.21802" lon="-3.09319">
        <ele>186</ele>
        <time>2016-03-03T12:57:41Z</time>
      </trkpt>
      <trkpt lat="48.21801" lon="-3.09314">
        <ele>186</ele>
        <time>2016-03-03T12:57:44Z</time>
      </trkpt>
      <trkpt lat="48.21801" lon="-3.09308">
        <ele>186</ele>
        <time>2016-03-03T12:57:48Z</time>
      </trkpt>
      <trkpt lat="48.21801" lon="-3.09303">
        <ele>186</ele>
        <time>2016-03-03T12:57:51Z</time>
      </trkpt>
      <trkpt lat="48.218" lon="-3.09298">
        <ele>186</ele>
        <time>2016-03-03T12:57:54Z</time>
      </trkpt>
      <trkpt lat="48.21799" lon="-3.09293">
        <ele>186</ele>
        <time>2016-03-03T12:57:57Z</time>
      </trkpt>
      <trkpt lat="48.21798" lon="-3.09288">
        <ele>186</ele>
        <time>2016-03-03T12:58:00Z</time>
      </trkpt>
      <trkpt lat="48.21798" lon="-3.09283">
        <ele>186</ele>
        <time>2016-03-03T12:58:03Z</time>
      </trkpt>
      <trkpt lat="48.21797" lon="-3.09276">
        <ele>186</ele>
        <time>2016-03-03T12:58:07Z</time>
      </trkpt>
      <trkpt lat="48.21796" lon="-3.09269">
        <ele>186</ele>
        <time>2016-03-03T12:58:11Z</time>
      </trkpt>
      <trkpt lat="48.21795" lon="-3.09264">
        <ele>186</ele>
        <time>2016-03-03T12:58:14Z</time>
      </trkpt>
      <trkpt lat="48.21795" lon="-3.09259">
        <ele>186</ele>
        <time>2016-03-03T12:58:17Z</time>
      </trkpt>
      <trkpt lat="48.21793" lon="-3.09254">
        <ele>186</ele>
        <time>2016-03-03T12:58:20Z</time>
      </trkpt>
      <trkpt lat="48.21791" lon="-3.09248">
        <ele>186</ele>
        <time>2016-03-03T12:58:31Z</time>
      </trkpt>
      <trkpt lat="48.21791" lon="-3.09246">
        <ele>187</ele>
        <time>2016-03-03T12:58:35Z</time>
      </trkpt>
      <trkpt lat="48.2179" lon="-3.0924">
        <ele>188</ele>
        <time>2016-03-03T12:58:39Z</time>
      </trkpt>
      <trkpt lat="48.2179" lon="-3.09237">
        <ele>189</ele>
        <time>2016-03-03T12:58:42Z</time>
      </trkpt>
      <trkpt lat="48.21789" lon="-3.09235">
        <ele>191</ele>
        <time>2016-03-03T12:58:49Z</time>
      </trkpt>
      <trkpt lat="48.21788" lon="-3.09232">
        <ele>191</ele>
        <time>2016-03-03T12:58:53Z</time>
      </trkpt>
      <trkpt lat="48.21788" lon="-3.09228">
        <ele>192</ele>
        <time>2016-03-03T12:58:56Z</time>
      </trkpt>
      <trkpt lat="48.21788" lon="-3.09226">
        <ele>192</ele>
        <time>2016-03-03T12:59:03Z</time>
      </trkpt>
      <trkpt lat="48.21787" lon="-3.09221">
        <ele>192</ele>
        <time>2016-03-03T12:59:06Z</time>
      </trkpt>
      <trkpt lat="48.21786" lon="-3.09216">
        <ele>192</ele>
        <time>2016-03-03T12:59:09Z</time>
      </trkpt>
      <trkpt lat="48.21785" lon="-3.0921">
        <ele>192</ele>
        <time>2016-03-03T12:59:12Z</time>
      </trkpt>
      <trkpt lat="48.21785" lon="-3.09205">
        <ele>192</ele>
        <time>2016-03-03T12:59:15Z</time>
      </trkpt>
      <trkpt lat="48.21784" lon="-3.092">
        <ele>192</ele>
        <time>2016-03-03T12:59:18Z</time>
      </trkpt>
      <trkpt lat="48.21783" lon="-3.09195">
        <ele>192</ele>
        <time>2016-03-03T12:59:22Z</time>
      </trkpt>
      <trkpt lat="48.21782" lon="-3.0919">
        <ele>192</ele>
        <time>2016-03-03T12:59:25Z</time>
      </trkpt>
      <trkpt lat="48.21781" lon="-3.09185">
        <ele>192</ele>
        <time>2016-03-03T12:59:28Z</time>
      </trkpt>
      <trkpt lat="48.2178" lon="-3.09181">
        <ele>192</ele>
        <time>2016-03-03T12:59:34Z</time>
      </trkpt>
      <trkpt lat="48.21779" lon="-3.09179">
        <ele>192</ele>
        <time>2016-03-03T12:59:41Z</time>
      </trkpt>
      <trkpt lat="48.21779" lon="-3.09177">
        <ele>192</ele>
        <time>2016-03-03T13:00:06Z</time>
      </trkpt>
      <trkpt lat="48.2178" lon="-3.09178">
        <ele>192</ele>
        <time>2016-03-03T13:00:15Z</time>
      </trkpt>
      <trkpt lat="48.21781" lon="-3.09179">
        <ele>192</ele>
        <time>2016-03-03T13:00:19Z</time>
      </trkpt>
      <trkpt lat="48.21783" lon="-3.09181">
        <ele>192</ele>
        <time>2016-03-03T13:00:23Z</time>
      </trkpt>
      <trkpt lat="48.21782" lon="-3.09179">
        <ele>192</ele>
        <time>2016-03-03T13:00:29Z</time>
      </trkpt>
      <trkpt lat="48.21781" lon="-3.09174">
        <ele>192</ele>
        <time>2016-03-03T13:00:32Z</time>
      </trkpt>
      <trkpt lat="48.2178" lon="-3.0917">
        <ele>192</ele>
        <time>2016-03-03T13:00:36Z</time>
      </trkpt>
      <trkpt lat="48.2178" lon="-3.09168">
        <ele>193</ele>
        <time>2016-03-03T13:00:43Z</time>
      </trkpt>
      <trkpt lat="48.2178" lon="-3.09166">
        <ele>193</ele>
        <time>2016-03-03T13:00:46Z</time>
      </trkpt>
      <trkpt lat="48.21778" lon="-3.09162">
        <ele>193</ele>
        <time>2016-03-03T13:00:53Z</time>
      </trkpt>
      <trkpt lat="48.21777" lon="-3.09156">
        <ele>193</ele>
        <time>2016-03-03T13:00:57Z</time>
      </trkpt>
      <trkpt lat="48.21776" lon="-3.0915">
        <ele>193</ele>
        <time>2016-03-03T13:01:01Z</time>
      </trkpt>
      <trkpt lat="48.21775" lon="-3.09144">
        <ele>193</ele>
        <time>2016-03-03T13:01:04Z</time>
      </trkpt>
      <trkpt lat="48.21775" lon="-3.09138">
        <ele>193</ele>
        <time>2016-03-03T13:01:08Z</time>
      </trkpt>
      <trkpt lat="48.21773" lon="-3.09133">
        <ele>193</ele>
        <time>2016-03-03T13:01:11Z</time>
      </trkpt>
      <trkpt lat="48.21772" lon="-3.09128">
        <ele>193</ele>
        <time>2016-03-03T13:01:14Z</time>
      </trkpt>
      <trkpt lat="48.21771" lon="-3.09124">
        <ele>193</ele>
        <time>2016-03-03T13:01:17Z</time>
      </trkpt>
      <trkpt lat="48.2177" lon="-3.09119">
        <ele>193</ele>
        <time>2016-03-03T13:01:20Z</time>
      </trkpt>
      <trkpt lat="48.21769" lon="-3.09113">
        <ele>193</ele>
        <time>2016-03-03T13:01:24Z</time>
      </trkpt>
      <trkpt lat="48.21768" lon="-3.09107">
        <ele>193</ele>
        <time>2016-03-03T13:01:27Z</time>
      </trkpt>
      <trkpt lat="48.21767" lon="-3.09102">
        <ele>193</ele>
        <time>2016-03-03T13:01:30Z</time>
      </trkpt>
      <trkpt lat="48.21766" lon="-3.09096">
        <ele>193</ele>
        <time>2016-03-03T13:01:33Z</time>
      </trkpt>
      <trkpt lat="48.21765" lon="-3.09089">
        <ele>193</ele>
        <time>2016-03-03T13:01:37Z</time>
      </trkpt>
      <trkpt lat="48.21765" lon="-3.09084">
        <ele>193</ele>
        <time>2016-03-03T13:01:40Z</time>
      </trkpt>
      <trkpt lat="48.21764" lon="-3.09079">
        <ele>193</ele>
        <time>2016-03-03T13:01:43Z</time>
      </trkpt>
      <trkpt lat="48.21763" lon="-3.09073">
        <ele>193</ele>
        <time>2016-03-03T13:01:46Z</time>
      </trkpt>
      <trkpt lat="48.21762" lon="-3.09068">
        <ele>192</ele>
        <time>2016-03-03T13:01:49Z</time>
      </trkpt>
      <trkpt lat="48.21761" lon="-3.09061">
        <ele>191</ele>
        <time>2016-03-03T13:01:53Z</time>
      </trkpt>
      <trkpt lat="48.21759" lon="-3.09057">
        <ele>191</ele>
        <time>2016-03-03T13:01:58Z</time>
      </trkpt>
      <trkpt lat="48.21758" lon="-3.09052">
        <ele>191</ele>
        <time>2016-03-03T13:02:02Z</time>
      </trkpt>
      <trkpt lat="48.21757" lon="-3.09048">
        <ele>191</ele>
        <time>2016-03-03T13:02:09Z</time>
      </trkpt>
      <trkpt lat="48.21756" lon="-3.09043">
        <ele>191</ele>
        <time>2016-03-03T13:02:12Z</time>
      </trkpt>
      <trkpt lat="48.21755" lon="-3.09039">
        <ele>191</ele>
        <time>2016-03-03T13:02:15Z</time>
      </trkpt>
      <trkpt lat="48.21755" lon="-3.09033">
        <ele>191</ele>
        <time>2016-03-03T13:02:18Z</time>
      </trkpt>
      <trkpt lat="48.21754" lon="-3.09027">
        <ele>191</ele>
        <time>2016-03-03T13:02:22Z</time>
      </trkpt>
      <trkpt lat="48.21752" lon="-3.09022">
        <ele>191</ele>
        <time>2016-03-03T13:02:25Z</time>
      </trkpt>
      <trkpt lat="48.2175" lon="-3.0902">
        <ele>193</ele>
        <time>2016-03-03T13:02:36Z</time>
      </trkpt>
      <trkpt lat="48.21751" lon="-3.0902">
        <ele>194</ele>
        <time>2016-03-03T13:02:43Z</time>
      </trkpt>
      <trkpt lat="48.21751" lon="-3.09017">
        <ele>194</ele>
        <time>2016-03-03T13:02:46Z</time>
      </trkpt>
      <trkpt lat="48.21751" lon="-3.09012">
        <ele>194</ele>
        <time>2016-03-03T13:02:49Z</time>
      </trkpt>
      <trkpt lat="48.2175" lon="-3.09007">
        <ele>194</ele>
        <time>2016-03-03T13:02:52Z</time>
      </trkpt>
      <trkpt lat="48.21748" lon="-3.09002">
        <ele>194</ele>
        <time>2016-03-03T13:02:55Z</time>
      </trkpt>
      <trkpt lat="48.21747" lon="-3.08998">
        <ele>195</ele>
        <time>2016-03-03T13:02:58Z</time>
      </trkpt>
      <trkpt lat="48.21747" lon="-3.08993">
        <ele>195</ele>
        <time>2016-03-03T13:03:01Z</time>
      </trkpt>
      <trkpt lat="48.21746" lon="-3.08987">
        <ele>195</ele>
        <time>2016-03-03T13:03:04Z</time>
      </trkpt>
      <trkpt lat="48.21745" lon="-3.0898">
        <ele>195</ele>
        <time>2016-03-03T13:03:08Z</time>
      </trkpt>
      <trkpt lat="48.21744" lon="-3.08974">
        <ele>195</ele>
        <time>2016-03-03T13:03:11Z</time>
      </trkpt>
      <trkpt lat="48.21744" lon="-3.08968">
        <ele>195</ele>
        <time>2016-03-03T13:03:14Z</time>
      </trkpt>
      <trkpt lat="48.21744" lon="-3.08962">
        <ele>195</ele>
        <time>2016-03-03T13:03:17Z</time>
      </trkpt>
      <trkpt lat="48.21744" lon="-3.08957">
        <ele>195</ele>
        <time>2016-03-03T13:03:20Z</time>
      </trkpt>
      <trkpt lat="48.21742" lon="-3.08952">
        <ele>195</ele>
        <time>2016-03-03T13:03:23Z</time>
      </trkpt>
      <trkpt lat="48.21743" lon="-3.08946">
        <ele>195</ele>
        <time>2016-03-03T13:03:26Z</time>
      </trkpt>
      <trkpt lat="48.21743" lon="-3.0894">
        <ele>195</ele>
        <time>2016-03-03T13:03:29Z</time>
      </trkpt>
      <trkpt lat="48.21742" lon="-3.08935">
        <ele>195</ele>
        <time>2016-03-03T13:03:32Z</time>
      </trkpt>
      <trkpt lat="48.21743" lon="-3.08927">
        <ele>193</ele>
        <time>2016-03-03T13:03:36Z</time>
      </trkpt>
      <trkpt lat="48.21742" lon="-3.08921">
        <ele>192</ele>
        <time>2016-03-03T13:03:39Z</time>
      </trkpt>
      <trkpt lat="48.21741" lon="-3.08915">
        <ele>192</ele>
        <time>2016-03-03T13:03:43Z</time>
      </trkpt>
      <trkpt lat="48.2174" lon="-3.0891">
        <ele>192</ele>
        <time>2016-03-03T13:03:46Z</time>
      </trkpt>
      <trkpt lat="48.21741" lon="-3.08904">
        <ele>192</ele>
        <time>2016-03-03T13:03:49Z</time>
      </trkpt>
      <trkpt lat="48.21741" lon="-3.08898">
        <ele>192</ele>
        <time>2016-03-03T13:03:52Z</time>
      </trkpt>
      <trkpt lat="48.2174" lon="-3.08892">
        <ele>192</ele>
        <time>2016-03-03T13:03:55Z</time>
      </trkpt>
      <trkpt lat="48.21741" lon="-3.08887">
        <ele>192</ele>
        <time>2016-03-03T13:03:58Z</time>
      </trkpt>
      <trkpt lat="48.21741" lon="-3.08882">
        <ele>192</ele>
        <time>2016-03-03T13:04:02Z</time>
      </trkpt>
      <trkpt lat="48.21741" lon="-3.08876">
        <ele>192</ele>
        <time>2016-03-03T13:04:06Z</time>
      </trkpt>
      <trkpt lat="48.21741" lon="-3.08872">
        <ele>191</ele>
        <time>2016-03-03T13:04:09Z</time>
      </trkpt>
      <trkpt lat="48.21741" lon="-3.08865">
        <ele>191</ele>
        <time>2016-03-03T13:04:13Z</time>
      </trkpt>
      <trkpt lat="48.21742" lon="-3.08859">
        <ele>191</ele>
        <time>2016-03-03T13:04:16Z</time>
      </trkpt>
      <trkpt lat="48.21741" lon="-3.08854">
        <ele>191</ele>
        <time>2016-03-03T13:04:19Z</time>
      </trkpt>
      <trkpt lat="48.21742" lon="-3.08849">
        <ele>191</ele>
        <time>2016-03-03T13:04:22Z</time>
      </trkpt>
      <trkpt lat="48.21742" lon="-3.08842">
        <ele>191</ele>
        <time>2016-03-03T13:04:26Z</time>
      </trkpt>
      <trkpt lat="48.21743" lon="-3.08836">
        <ele>191</ele>
        <time>2016-03-03T13:04:29Z</time>
      </trkpt>
      <trkpt lat="48.21743" lon="-3.0883">
        <ele>191</ele>
        <time>2016-03-03T13:04:32Z</time>
      </trkpt>
      <trkpt lat="48.21743" lon="-3.08825">
        <ele>191</ele>
        <time>2016-03-03T13:04:35Z</time>
      </trkpt>
      <trkpt lat="48.21743" lon="-3.0882">
        <ele>191</ele>
        <time>2016-03-03T13:04:38Z</time>
      </trkpt>
      <trkpt lat="48.21744" lon="-3.08814">
        <ele>191</ele>
        <time>2016-03-03T13:04:41Z</time>
      </trkpt>
      <trkpt lat="48.21745" lon="-3.08809">
        <ele>191</ele>
        <time>2016-03-03T13:04:44Z</time>
      </trkpt>
      <trkpt lat="48.21745" lon="-3.08803">
        <ele>191</ele>
        <time>2016-03-03T13:04:47Z</time>
      </trkpt>
      <trkpt lat="48.21745" lon="-3.08798">
        <ele>191</ele>
        <time>2016-03-03T13:04:50Z</time>
      </trkpt>
      <trkpt lat="48.21746" lon="-3.08793">
        <ele>191</ele>
        <time>2016-03-03T13:04:53Z</time>
      </trkpt>
      <trkpt lat="48.21746" lon="-3.08787">
        <ele>191</ele>
        <time>2016-03-03T13:04:56Z</time>
      </trkpt>
      <trkpt lat="48.21746" lon="-3.08782">
        <ele>192</ele>
        <time>2016-03-03T13:04:59Z</time>
      </trkpt>
      <trkpt lat="48.21747" lon="-3.08776">
        <ele>192</ele>
        <time>2016-03-03T13:05:02Z</time>
      </trkpt>
      <trkpt lat="48.21747" lon="-3.08771">
        <ele>192</ele>
        <time>2016-03-03T13:05:05Z</time>
      </trkpt>
      <trkpt lat="48.21748" lon="-3.08761">
        <ele>192</ele>
        <time>2016-03-03T13:05:10Z</time>
      </trkpt>
      <trkpt lat="48.21749" lon="-3.08755">
        <ele>192</ele>
        <time>2016-03-03T13:05:13Z</time>
      </trkpt>
      <trkpt lat="48.21751" lon="-3.08751">
        <ele>192</ele>
        <time>2016-03-03T13:05:16Z</time>
      </trkpt>
      <trkpt lat="48.21751" lon="-3.08746">
        <ele>192</ele>
        <time>2016-03-03T13:05:19Z</time>
      </trkpt>
      <trkpt lat="48.21753" lon="-3.08741">
        <ele>192</ele>
        <time>2016-03-03T13:05:22Z</time>
      </trkpt>
      <trkpt lat="48.21754" lon="-3.08735">
        <ele>192</ele>
        <time>2016-03-03T13:05:26Z</time>
      </trkpt>
      <trkpt lat="48.21756" lon="-3.0873">
        <ele>192</ele>
        <time>2016-03-03T13:05:29Z</time>
      </trkpt>
      <trkpt lat="48.21757" lon="-3.08723">
        <ele>192</ele>
        <time>2016-03-03T13:05:32Z</time>
      </trkpt>
      <trkpt lat="48.21758" lon="-3.08718">
        <ele>192</ele>
        <time>2016-03-03T13:05:36Z</time>
      </trkpt>
      <trkpt lat="48.21759" lon="-3.08711">
        <ele>192</ele>
        <time>2016-03-03T13:05:39Z</time>
      </trkpt>
      <trkpt lat="48.21761" lon="-3.08706">
        <ele>192</ele>
        <time>2016-03-03T13:05:43Z</time>
      </trkpt>
      <trkpt lat="48.21761" lon="-3.08701">
        <ele>192</ele>
        <time>2016-03-03T13:05:46Z</time>
      </trkpt>
      <trkpt lat="48.21762" lon="-3.08693">
        <ele>192</ele>
        <time>2016-03-03T13:05:51Z</time>
      </trkpt>
      <trkpt lat="48.21764" lon="-3.08689">
        <ele>192</ele>
        <time>2016-03-03T13:05:54Z</time>
      </trkpt>
      <trkpt lat="48.21765" lon="-3.08682">
        <ele>192</ele>
        <time>2016-03-03T13:05:57Z</time>
      </trkpt>
      <trkpt lat="48.21766" lon="-3.08679">
        <ele>192</ele>
        <time>2016-03-03T13:06:01Z</time>
      </trkpt>
      <trkpt lat="48.21765" lon="-3.08681">
        <ele>192</ele>
        <time>2016-03-03T13:06:06Z</time>
      </trkpt>
      <trkpt lat="48.21761" lon="-3.08685">
        <ele>192</ele>
        <time>2016-03-03T13:06:09Z</time>
      </trkpt>
      <trkpt lat="48.21757" lon="-3.08689">
        <ele>192</ele>
        <time>2016-03-03T13:06:12Z</time>
      </trkpt>
      <trkpt lat="48.21755" lon="-3.08694">
        <ele>192</ele>
        <time>2016-03-03T13:06:16Z</time>
      </trkpt>
      <trkpt lat="48.21753" lon="-3.087">
        <ele>193</ele>
        <time>2016-03-03T13:06:19Z</time>
      </trkpt>
      <trkpt lat="48.21753" lon="-3.08702">
        <ele>195</ele>
        <time>2016-03-03T13:06:22Z</time>
      </trkpt>
      <trkpt lat="48.21754" lon="-3.08698">
        <ele>196</ele>
        <time>2016-03-03T13:06:26Z</time>
      </trkpt>
      <trkpt lat="48.21757" lon="-3.08692">
        <ele>196</ele>
        <time>2016-03-03T13:06:30Z</time>
      </trkpt>
      <trkpt lat="48.21759" lon="-3.08686">
        <ele>196</ele>
        <time>2016-03-03T13:06:33Z</time>
      </trkpt>
      <trkpt lat="48.21761" lon="-3.08679">
        <ele>196</ele>
        <time>2016-03-03T13:06:36Z</time>
      </trkpt>
      <trkpt lat="48.21762" lon="-3.08674">
        <ele>195</ele>
        <time>2016-03-03T13:06:39Z</time>
      </trkpt>
      <trkpt lat="48.21763" lon="-3.08668">
        <ele>193</ele>
        <time>2016-03-03T13:06:43Z</time>
      </trkpt>
      <trkpt lat="48.21766" lon="-3.08661">
        <ele>190</ele>
        <time>2016-03-03T13:06:46Z</time>
      </trkpt>
      <trkpt lat="48.21767" lon="-3.08655">
        <ele>188</ele>
        <time>2016-03-03T13:06:49Z</time>
      </trkpt>
      <trkpt lat="48.21769" lon="-3.08649">
        <ele>186</ele>
        <time>2016-03-03T13:06:54Z</time>
      </trkpt>
      <trkpt lat="48.21768" lon="-3.0864">
        <ele>185</ele>
        <time>2016-03-03T13:06:57Z</time>
      </trkpt>
      <trkpt lat="48.2177" lon="-3.08634">
        <ele>185</ele>
        <time>2016-03-03T13:07:01Z</time>
      </trkpt>
      <trkpt lat="48.21771" lon="-3.08631">
        <ele>185</ele>
        <time>2016-03-03T13:07:06Z</time>
      </trkpt>
      <trkpt lat="48.21774" lon="-3.08627">
        <ele>185</ele>
        <time>2016-03-03T13:07:09Z</time>
      </trkpt>
      <trkpt lat="48.21777" lon="-3.08626">
        <ele>185</ele>
        <time>2016-03-03T13:07:12Z</time>
      </trkpt>
      <trkpt lat="48.2178" lon="-3.08625">
        <ele>186</ele>
        <time>2016-03-03T13:07:16Z</time>
      </trkpt>
      <trkpt lat="48.21785" lon="-3.08621">
        <ele>188</ele>
        <time>2016-03-03T13:07:19Z</time>
      </trkpt>
      <trkpt lat="48.2179" lon="-3.08621">
        <ele>189</ele>
        <time>2016-03-03T13:07:22Z</time>
      </trkpt>
      <trkpt lat="48.21794" lon="-3.08623">
        <ele>191</ele>
        <time>2016-03-03T13:07:26Z</time>
      </trkpt>
      <trkpt lat="48.21799" lon="-3.08626">
        <ele>193</ele>
        <time>2016-03-03T13:07:31Z</time>
      </trkpt>
      <trkpt lat="48.21799" lon="-3.08627">
        <ele>195</ele>
        <time>2016-03-03T13:07:39Z</time>
      </trkpt>
      <trkpt lat="48.21798" lon="-3.08629">
        <ele>197</ele>
        <time>2016-03-03T13:07:47Z</time>
      </trkpt>
      <trkpt lat="48.21796" lon="-3.0863">
        <ele>199</ele>
        <time>2016-03-03T13:08:23Z</time>
      </trkpt>
      <trkpt lat="48.21796" lon="-3.08632">
        <ele>201</ele>
        <time>2016-03-03T13:08:28Z</time>
      </trkpt>
      <trkpt lat="48.21794" lon="-3.08632">
        <ele>204</ele>
        <time>2016-03-03T13:08:42Z</time>
      </trkpt>
      <trkpt lat="48.21795" lon="-3.0863">
        <ele>205</ele>
        <time>2016-03-03T13:08:51Z</time>
      </trkpt>
      <trkpt lat="48.21796" lon="-3.08629">
        <ele>206</ele>
        <time>2016-03-03T13:09:14Z</time>
      </trkpt>
      <trkpt lat="48.21797" lon="-3.08627">
        <ele>203</ele>
        <time>2016-03-03T13:09:29Z</time>
      </trkpt>
      <trkpt lat="48.21797" lon="-3.08629">
        <ele>202</ele>
        <time>2016-03-03T13:11:20Z</time>
      </trkpt>
      <trkpt lat="48.21796" lon="-3.0863">
        <ele>202</ele>
        <time>2016-03-03T13:11:51Z</time>
      </trkpt>
      <trkpt lat="48.21796" lon="-3.08629">
        <ele>202</ele>
        <time>2016-03-03T13:12:14Z</time>
      </trkpt>
      <trkpt lat="48.21796" lon="-3.08626">
        <ele>202</ele>
        <time>2016-03-03T13:12:22Z</time>
      </trkpt>
      <trkpt lat="48.21797" lon="-3.08625">
        <ele>202</ele>
        <time>2016-03-03T13:12:31Z</time>
      </trkpt>
      <trkpt lat="48.21798" lon="-3.08625">
        <ele>202</ele>
        <time>2016-03-03T13:12:36Z</time>
      </trkpt>
      <trkpt lat="48.21798" lon="-3.08623">
        <ele>202</ele>
        <time>2016-03-03T13:12:44Z</time>
      </trkpt>
      <trkpt lat="48.21794" lon="-3.08616">
        <ele>202</ele>
        <time>2016-03-03T13:12:49Z</time>
      </trkpt>
      <trkpt lat="48.21791" lon="-3.08609">
        <ele>202</ele>
        <time>2016-03-03T13:12:52Z</time>
      </trkpt>
      <trkpt lat="48.21788" lon="-3.08602">
        <ele>201</ele>
        <time>2016-03-03T13:12:56Z</time>
      </trkpt>
      <trkpt lat="48.21786" lon="-3.08595">
        <ele>199</ele>
        <time>2016-03-03T13:13:00Z</time>
      </trkpt>
      <trkpt lat="48.21788" lon="-3.08587">
        <ele>199</ele>
        <time>2016-03-03T13:13:05Z</time>
      </trkpt>
      <trkpt lat="48.21788" lon="-3.08579">
        <ele>199</ele>
        <time>2016-03-03T13:13:10Z</time>
      </trkpt>
      <trkpt lat="48.2179" lon="-3.08573">
        <ele>199</ele>
        <time>2016-03-03T13:13:13Z</time>
      </trkpt>
      <trkpt lat="48.2179" lon="-3.08568">
        <ele>199</ele>
        <time>2016-03-03T13:13:16Z</time>
      </trkpt>
      <trkpt lat="48.21791" lon="-3.08564">
        <ele>199</ele>
        <time>2016-03-03T13:13:19Z</time>
      </trkpt>
      <trkpt lat="48.21793" lon="-3.08559">
        <ele>199</ele>
        <time>2016-03-03T13:13:22Z</time>
      </trkpt>
      <trkpt lat="48.21795" lon="-3.08554">
        <ele>198</ele>
        <time>2016-03-03T13:13:27Z</time>
      </trkpt>
      <trkpt lat="48.21797" lon="-3.08548">
        <ele>197</ele>
        <time>2016-03-03T13:13:30Z</time>
      </trkpt>
      <trkpt lat="48.21799" lon="-3.08543">
        <ele>194</ele>
        <time>2016-03-03T13:13:34Z</time>
      </trkpt>
      <trkpt lat="48.218" lon="-3.08539">
        <ele>193</ele>
        <time>2016-03-03T13:13:37Z</time>
      </trkpt>
      <trkpt lat="48.21801" lon="-3.08534">
        <ele>192</ele>
        <time>2016-03-03T13:13:41Z</time>
      </trkpt>
      <trkpt lat="48.21803" lon="-3.08528">
        <ele>192</ele>
        <time>2016-03-03T13:13:45Z</time>
      </trkpt>
      <trkpt lat="48.21804" lon="-3.08524">
        <ele>192</ele>
        <time>2016-03-03T13:13:49Z</time>
      </trkpt>
      <trkpt lat="48.21804" lon="-3.08517">
        <ele>192</ele>
        <time>2016-03-03T13:13:52Z</time>
      </trkpt>
      <trkpt lat="48.21803" lon="-3.08511">
        <ele>192</ele>
        <time>2016-03-03T13:13:55Z</time>
      </trkpt>
      <trkpt lat="48.21804" lon="-3.08505">
        <ele>192</ele>
        <time>2016-03-03T13:14:00Z</time>
      </trkpt>
      <trkpt lat="48.21805" lon="-3.08498">
        <ele>191</ele>
        <time>2016-03-03T13:14:03Z</time>
      </trkpt>
      <trkpt lat="48.21806" lon="-3.08493">
        <ele>190</ele>
        <time>2016-03-03T13:14:06Z</time>
      </trkpt>
      <trkpt lat="48.21807" lon="-3.08488">
        <ele>188</ele>
        <time>2016-03-03T13:14:09Z</time>
      </trkpt>
      <trkpt lat="48.21807" lon="-3.08483">
        <ele>187</ele>
        <time>2016-03-03T13:14:12Z</time>
      </trkpt>
      <trkpt lat="48.21806" lon="-3.08477">
        <ele>186</ele>
        <time>2016-03-03T13:14:16Z</time>
      </trkpt>
      <trkpt lat="48.21804" lon="-3.08469">
        <ele>184</ele>
        <time>2016-03-03T13:14:19Z</time>
      </trkpt>
      <trkpt lat="48.21802" lon="-3.08462">
        <ele>183</ele>
        <time>2016-03-03T13:14:23Z</time>
      </trkpt>
      <trkpt lat="48.218" lon="-3.08457">
        <ele>181</ele>
        <time>2016-03-03T13:14:27Z</time>
      </trkpt>
      <trkpt lat="48.21798" lon="-3.08451">
        <ele>179</ele>
        <time>2016-03-03T13:14:30Z</time>
      </trkpt>
      <trkpt lat="48.21796" lon="-3.08445">
        <ele>178</ele>
        <time>2016-03-03T13:14:33Z</time>
      </trkpt>
      <trkpt lat="48.21795" lon="-3.0844">
        <ele>178</ele>
        <time>2016-03-03T13:14:37Z</time>
      </trkpt>
      <trkpt lat="48.21793" lon="-3.08435">
        <ele>178</ele>
        <time>2016-03-03T13:14:40Z</time>
      </trkpt>
      <trkpt lat="48.21791" lon="-3.08428">
        <ele>178</ele>
        <time>2016-03-03T13:14:43Z</time>
      </trkpt>
      <trkpt lat="48.21789" lon="-3.08422">
        <ele>177</ele>
        <time>2016-03-03T13:14:47Z</time>
      </trkpt>
      <trkpt lat="48.21788" lon="-3.08416">
        <ele>177</ele>
        <time>2016-03-03T13:14:50Z</time>
      </trkpt>
      <trkpt lat="48.21786" lon="-3.0841">
        <ele>177</ele>
        <time>2016-03-03T13:14:54Z</time>
      </trkpt>
      <trkpt lat="48.21784" lon="-3.08405">
        <ele>177</ele>
        <time>2016-03-03T13:14:58Z</time>
      </trkpt>
      <trkpt lat="48.21782" lon="-3.08398">
        <ele>176</ele>
        <time>2016-03-03T13:15:01Z</time>
      </trkpt>
      <trkpt lat="48.2178" lon="-3.08393">
        <ele>175</ele>
        <time>2016-03-03T13:15:04Z</time>
      </trkpt>
      <trkpt lat="48.21778" lon="-3.08387">
        <ele>175</ele>
        <time>2016-03-03T13:15:08Z</time>
      </trkpt>
      <trkpt lat="48.21775" lon="-3.0838">
        <ele>175</ele>
        <time>2016-03-03T13:15:12Z</time>
      </trkpt>
      <trkpt lat="48.21773" lon="-3.08375">
        <ele>175</ele>
        <time>2016-03-03T13:15:15Z</time>
      </trkpt>
      <trkpt lat="48.2177" lon="-3.08369">
        <ele>175</ele>
        <time>2016-03-03T13:15:20Z</time>
      </trkpt>
      <trkpt lat="48.21767" lon="-3.08365">
        <ele>175</ele>
        <time>2016-03-03T13:15:23Z</time>
      </trkpt>
      <trkpt lat="48.21763" lon="-3.0836">
        <ele>175</ele>
        <time>2016-03-03T13:15:27Z</time>
      </trkpt>
      <trkpt lat="48.21759" lon="-3.08357">
        <ele>175</ele>
        <time>2016-03-03T13:15:32Z</time>
      </trkpt>
      <trkpt lat="48.21755" lon="-3.08354">
        <ele>175</ele>
        <time>2016-03-03T13:15:35Z</time>
      </trkpt>
      <trkpt lat="48.2175" lon="-3.08351">
        <ele>175</ele>
        <time>2016-03-03T13:15:40Z</time>
      </trkpt>
      <trkpt lat="48.21746" lon="-3.0835">
        <ele>175</ele>
        <time>2016-03-03T13:15:44Z</time>
      </trkpt>
      <trkpt lat="48.21741" lon="-3.08347">
        <ele>175</ele>
        <time>2016-03-03T13:15:48Z</time>
      </trkpt>
      <trkpt lat="48.21737" lon="-3.08346">
        <ele>174</ele>
        <time>2016-03-03T13:15:52Z</time>
      </trkpt>
      <trkpt lat="48.21734" lon="-3.08346">
        <ele>174</ele>
        <time>2016-03-03T13:15:55Z</time>
      </trkpt>
      <trkpt lat="48.21731" lon="-3.08346">
        <ele>173</ele>
        <time>2016-03-03T13:15:58Z</time>
      </trkpt>
      <trkpt lat="48.21728" lon="-3.08346">
        <ele>172</ele>
        <time>2016-03-03T13:16:01Z</time>
      </trkpt>
      <trkpt lat="48.21724" lon="-3.08347">
        <ele>172</ele>
        <time>2016-03-03T13:16:04Z</time>
      </trkpt>
      <trkpt lat="48.2172" lon="-3.08348">
        <ele>172</ele>
        <time>2016-03-03T13:16:07Z</time>
      </trkpt>
      <trkpt lat="48.21717" lon="-3.08349">
        <ele>172</ele>
        <time>2016-03-03T13:16:11Z</time>
      </trkpt>
      <trkpt lat="48.21711" lon="-3.08351">
        <ele>172</ele>
        <time>2016-03-03T13:16:14Z</time>
      </trkpt>
      <trkpt lat="48.21708" lon="-3.08352">
        <ele>172</ele>
        <time>2016-03-03T13:16:17Z</time>
      </trkpt>
      <trkpt lat="48.21704" lon="-3.08354">
        <ele>172</ele>
        <time>2016-03-03T13:16:21Z</time>
      </trkpt>
      <trkpt lat="48.21703" lon="-3.08355">
        <ele>172</ele>
        <time>2016-03-03T13:16:24Z</time>
      </trkpt>
      <trkpt lat="48.21701" lon="-3.08356">
        <ele>172</ele>
        <time>2016-03-03T13:16:32Z</time>
      </trkpt>
      <trkpt lat="48.21696" lon="-3.08357">
        <ele>172</ele>
        <time>2016-03-03T13:16:35Z</time>
      </trkpt>
      <trkpt lat="48.21691" lon="-3.08359">
        <ele>172</ele>
        <time>2016-03-03T13:16:39Z</time>
      </trkpt>
      <trkpt lat="48.21687" lon="-3.08361">
        <ele>172</ele>
        <time>2016-03-03T13:16:43Z</time>
      </trkpt>
      <trkpt lat="48.21682" lon="-3.08364">
        <ele>172</ele>
        <time>2016-03-03T13:16:46Z</time>
      </trkpt>
      <trkpt lat="48.21677" lon="-3.08367">
        <ele>172</ele>
        <time>2016-03-03T13:16:51Z</time>
      </trkpt>
      <trkpt lat="48.21673" lon="-3.0837">
        <ele>172</ele>
        <time>2016-03-03T13:16:54Z</time>
      </trkpt>
      <trkpt lat="48.21669" lon="-3.08372">
        <ele>172</ele>
        <time>2016-03-03T13:16:57Z</time>
      </trkpt>
      <trkpt lat="48.21665" lon="-3.08374">
        <ele>172</ele>
        <time>2016-03-03T13:17:00Z</time>
      </trkpt>
      <trkpt lat="48.21661" lon="-3.08377">
        <ele>172</ele>
        <time>2016-03-03T13:17:04Z</time>
      </trkpt>
      <trkpt lat="48.21658" lon="-3.08381">
        <ele>172</ele>
        <time>2016-03-03T13:17:08Z</time>
      </trkpt>
      <trkpt lat="48.21653" lon="-3.08386">
        <ele>172</ele>
        <time>2016-03-03T13:17:12Z</time>
      </trkpt>
      <trkpt lat="48.21649" lon="-3.08391">
        <ele>172</ele>
        <time>2016-03-03T13:17:16Z</time>
      </trkpt>
      <trkpt lat="48.21646" lon="-3.08396">
        <ele>172</ele>
        <time>2016-03-03T13:17:20Z</time>
      </trkpt>
      <trkpt lat="48.21643" lon="-3.08401">
        <ele>172</ele>
        <time>2016-03-03T13:17:23Z</time>
      </trkpt>
      <trkpt lat="48.21639" lon="-3.08406">
        <ele>172</ele>
        <time>2016-03-03T13:17:27Z</time>
      </trkpt>
      <trkpt lat="48.21636" lon="-3.08412">
        <ele>172</ele>
        <time>2016-03-03T13:17:32Z</time>
      </trkpt>
      <trkpt lat="48.21633" lon="-3.08419">
        <ele>172</ele>
        <time>2016-03-03T13:17:35Z</time>
      </trkpt>
      <trkpt lat="48.21631" lon="-3.08426">
        <ele>172</ele>
        <time>2016-03-03T13:17:39Z</time>
      </trkpt>
      <trkpt lat="48.21628" lon="-3.08431">
        <ele>171</ele>
        <time>2016-03-03T13:17:42Z</time>
      </trkpt>
      <trkpt lat="48.21624" lon="-3.08439">
        <ele>171</ele>
        <time>2016-03-03T13:17:47Z</time>
      </trkpt>
      <trkpt lat="48.21621" lon="-3.08443">
        <ele>171</ele>
        <time>2016-03-03T13:17:50Z</time>
      </trkpt>
      <trkpt lat="48.21618" lon="-3.0845">
        <ele>171</ele>
        <time>2016-03-03T13:17:54Z</time>
      </trkpt>
      <trkpt lat="48.21614" lon="-3.08456">
        <ele>171</ele>
        <time>2016-03-03T13:17:58Z</time>
      </trkpt>
      <trkpt lat="48.21612" lon="-3.08461">
        <ele>171</ele>
        <time>2016-03-03T13:18:01Z</time>
      </trkpt>
      <trkpt lat="48.21609" lon="-3.08466">
        <ele>171</ele>
        <time>2016-03-03T13:18:04Z</time>
      </trkpt>
      <trkpt lat="48.21606" lon="-3.08472">
        <ele>171</ele>
        <time>2016-03-03T13:18:08Z</time>
      </trkpt>
      <trkpt lat="48.21602" lon="-3.08477">
        <ele>171</ele>
        <time>2016-03-03T13:18:12Z</time>
      </trkpt>
      <trkpt lat="48.21599" lon="-3.08483">
        <ele>171</ele>
        <time>2016-03-03T13:18:16Z</time>
      </trkpt>
      <trkpt lat="48.21596" lon="-3.08488">
        <ele>171</ele>
        <time>2016-03-03T13:18:21Z</time>
      </trkpt>
      <trkpt lat="48.21594" lon="-3.08491">
        <ele>171</ele>
        <time>2016-03-03T13:18:24Z</time>
      </trkpt>
      <trkpt lat="48.2159" lon="-3.08496">
        <ele>171</ele>
        <time>2016-03-03T13:18:28Z</time>
      </trkpt>
      <trkpt lat="48.21588" lon="-3.08502">
        <ele>171</ele>
        <time>2016-03-03T13:18:32Z</time>
      </trkpt>
      <trkpt lat="48.21585" lon="-3.08508">
        <ele>171</ele>
        <time>2016-03-03T13:18:36Z</time>
      </trkpt>
      <trkpt lat="48.21583" lon="-3.08515">
        <ele>171</ele>
        <time>2016-03-03T13:18:39Z</time>
      </trkpt>
      <trkpt lat="48.2158" lon="-3.08522">
        <ele>171</ele>
        <time>2016-03-03T13:18:42Z</time>
      </trkpt>
      <trkpt lat="48.21576" lon="-3.08528">
        <ele>171</ele>
        <time>2016-03-03T13:18:45Z</time>
      </trkpt>
      <trkpt lat="48.21572" lon="-3.08534">
        <ele>171</ele>
        <time>2016-03-03T13:18:49Z</time>
      </trkpt>
      <trkpt lat="48.2157" lon="-3.08538">
        <ele>171</ele>
        <time>2016-03-03T13:18:52Z</time>
      </trkpt>
      <trkpt lat="48.21568" lon="-3.08543">
        <ele>171</ele>
        <time>2016-03-03T13:18:55Z</time>
      </trkpt>
      <trkpt lat="48.21564" lon="-3.08549">
        <ele>171</ele>
        <time>2016-03-03T13:18:59Z</time>
      </trkpt>
      <trkpt lat="48.21562" lon="-3.08554">
        <ele>171</ele>
        <time>2016-03-03T13:19:03Z</time>
      </trkpt>
      <trkpt lat="48.2156" lon="-3.08561">
        <ele>171</ele>
        <time>2016-03-03T13:19:06Z</time>
      </trkpt>
      <trkpt lat="48.21558" lon="-3.08566">
        <ele>171</ele>
        <time>2016-03-03T13:19:09Z</time>
      </trkpt>
      <trkpt lat="48.21556" lon="-3.08572">
        <ele>171</ele>
        <time>2016-03-03T13:19:13Z</time>
      </trkpt>
      <trkpt lat="48.21553" lon="-3.08577">
        <ele>171</ele>
        <time>2016-03-03T13:19:17Z</time>
      </trkpt>
      <trkpt lat="48.2155" lon="-3.08584">
        <ele>171</ele>
        <time>2016-03-03T13:19:21Z</time>
      </trkpt>
      <trkpt lat="48.21547" lon="-3.08589">
        <ele>171</ele>
        <time>2016-03-03T13:19:25Z</time>
      </trkpt>
      <trkpt lat="48.21545" lon="-3.08595">
        <ele>171</ele>
        <time>2016-03-03T13:19:29Z</time>
      </trkpt>
      <trkpt lat="48.21543" lon="-3.08601">
        <ele>171</ele>
        <time>2016-03-03T13:19:33Z</time>
      </trkpt>
      <trkpt lat="48.2154" lon="-3.08607">
        <ele>171</ele>
        <time>2016-03-03T13:19:37Z</time>
      </trkpt>
      <trkpt lat="48.21537" lon="-3.08612">
        <ele>171</ele>
        <time>2016-03-03T13:19:41Z</time>
      </trkpt>
      <trkpt lat="48.21535" lon="-3.08617">
        <ele>171</ele>
        <time>2016-03-03T13:19:44Z</time>
      </trkpt>
      <trkpt lat="48.21533" lon="-3.08624">
        <ele>171</ele>
        <time>2016-03-03T13:19:48Z</time>
      </trkpt>
      <trkpt lat="48.21531" lon="-3.08631">
        <ele>171</ele>
        <time>2016-03-03T13:19:51Z</time>
      </trkpt>
      <trkpt lat="48.21528" lon="-3.08638">
        <ele>171</ele>
        <time>2016-03-03T13:19:55Z</time>
      </trkpt>
      <trkpt lat="48.21526" lon="-3.08642">
        <ele>171</ele>
        <time>2016-03-03T13:19:58Z</time>
      </trkpt>
      <trkpt lat="48.21524" lon="-3.08648">
        <ele>172</ele>
        <time>2016-03-03T13:20:01Z</time>
      </trkpt>
      <trkpt lat="48.21522" lon="-3.08653">
        <ele>172</ele>
        <time>2016-03-03T13:20:05Z</time>
      </trkpt>
      <trkpt lat="48.2152" lon="-3.08658">
        <ele>172</ele>
        <time>2016-03-03T13:20:08Z</time>
      </trkpt>
      <trkpt lat="48.21518" lon="-3.08663">
        <ele>172</ele>
        <time>2016-03-03T13:20:12Z</time>
      </trkpt>
      <trkpt lat="48.21516" lon="-3.08669">
        <ele>172</ele>
        <time>2016-03-03T13:20:16Z</time>
      </trkpt>
      <trkpt lat="48.21513" lon="-3.08675">
        <ele>172</ele>
        <time>2016-03-03T13:20:20Z</time>
      </trkpt>
      <trkpt lat="48.21512" lon="-3.0868">
        <ele>172</ele>
        <time>2016-03-03T13:20:23Z</time>
      </trkpt>
      <trkpt lat="48.2151" lon="-3.08684">
        <ele>172</ele>
        <time>2016-03-03T13:20:26Z</time>
      </trkpt>
      <trkpt lat="48.21508" lon="-3.08691">
        <ele>172</ele>
        <time>2016-03-03T13:20:30Z</time>
      </trkpt>
      <trkpt lat="48.21505" lon="-3.08697">
        <ele>172</ele>
        <time>2016-03-03T13:20:34Z</time>
      </trkpt>
      <trkpt lat="48.21503" lon="-3.08702">
        <ele>172</ele>
        <time>2016-03-03T13:20:38Z</time>
      </trkpt>
      <trkpt lat="48.21501" lon="-3.08707">
        <ele>172</ele>
        <time>2016-03-03T13:20:42Z</time>
      </trkpt>
      <trkpt lat="48.21499" lon="-3.08712">
        <ele>172</ele>
        <time>2016-03-03T13:20:46Z</time>
      </trkpt>
      <trkpt lat="48.21497" lon="-3.08717">
        <ele>172</ele>
        <time>2016-03-03T13:20:50Z</time>
      </trkpt>
      <trkpt lat="48.21494" lon="-3.08722">
        <ele>172</ele>
        <time>2016-03-03T13:20:54Z</time>
      </trkpt>
      <trkpt lat="48.21492" lon="-3.08727">
        <ele>172</ele>
        <time>2016-03-03T13:20:58Z</time>
      </trkpt>
      <trkpt lat="48.2149" lon="-3.08732">
        <ele>172</ele>
        <time>2016-03-03T13:21:02Z</time>
      </trkpt>
      <trkpt lat="48.21488" lon="-3.08736">
        <ele>172</ele>
        <time>2016-03-03T13:21:06Z</time>
      </trkpt>
      <trkpt lat="48.21486" lon="-3.0874">
        <ele>172</ele>
        <time>2016-03-03T13:21:10Z</time>
      </trkpt>
      <trkpt lat="48.21484" lon="-3.08742">
        <ele>172</ele>
        <time>2016-03-03T13:21:27Z</time>
      </trkpt>
      <trkpt lat="48.2148" lon="-3.08744">
        <ele>172</ele>
        <time>2016-03-03T13:21:31Z</time>
      </trkpt>
      <trkpt lat="48.21479" lon="-3.08746">
        <ele>172</ele>
        <time>2016-03-03T13:21:34Z</time>
      </trkpt>
      <trkpt lat="48.21477" lon="-3.0875">
        <ele>172</ele>
        <time>2016-03-03T13:21:57Z</time>
      </trkpt>
      <trkpt lat="48.21474" lon="-3.0875">
        <ele>172</ele>
        <time>2016-03-03T13:22:06Z</time>
      </trkpt>
      <trkpt lat="48.21471" lon="-3.08748">
        <ele>172</ele>
        <time>2016-03-03T13:22:11Z</time>
      </trkpt>
      <trkpt lat="48.2147" lon="-3.08748">
        <ele>172</ele>
        <time>2016-03-03T13:22:16Z</time>
      </trkpt>
      <trkpt lat="48.21468" lon="-3.08747">
        <ele>172</ele>
        <time>2016-03-03T13:22:25Z</time>
      </trkpt>
      <trkpt lat="48.21466" lon="-3.08746">
        <ele>172</ele>
        <time>2016-03-03T13:22:29Z</time>
      </trkpt>
      <trkpt lat="48.21464" lon="-3.08746">
        <ele>172</ele>
        <time>2016-03-03T13:22:40Z</time>
      </trkpt>
      <trkpt lat="48.21461" lon="-3.08744">
        <ele>172</ele>
        <time>2016-03-03T13:22:43Z</time>
      </trkpt>
      <trkpt lat="48.21458" lon="-3.08739">
        <ele>171</ele>
        <time>2016-03-03T13:22:47Z</time>
      </trkpt>
      <trkpt lat="48.21455" lon="-3.08734">
        <ele>171</ele>
        <time>2016-03-03T13:22:51Z</time>
      </trkpt>
      <trkpt lat="48.21453" lon="-3.08733">
        <ele>169</ele>
        <time>2016-03-03T13:22:58Z</time>
      </trkpt>
      <trkpt lat="48.21452" lon="-3.08734">
        <ele>169</ele>
        <time>2016-03-03T13:23:13Z</time>
      </trkpt>
      <trkpt lat="48.2145" lon="-3.08733">
        <ele>169</ele>
        <time>2016-03-03T13:23:19Z</time>
      </trkpt>
      <trkpt lat="48.21446" lon="-3.0873">
        <ele>169</ele>
        <time>2016-03-03T13:23:22Z</time>
      </trkpt>
      <trkpt lat="48.21442" lon="-3.08725">
        <ele>169</ele>
        <time>2016-03-03T13:23:26Z</time>
      </trkpt>
      <trkpt lat="48.21438" lon="-3.08721">
        <ele>169</ele>
        <time>2016-03-03T13:23:29Z</time>
      </trkpt>
      <trkpt lat="48.21436" lon="-3.08718">
        <ele>168</ele>
        <time>2016-03-03T13:23:32Z</time>
      </trkpt>
      <trkpt lat="48.21432" lon="-3.08714">
        <ele>168</ele>
        <time>2016-03-03T13:23:35Z</time>
      </trkpt>
      <trkpt lat="48.21429" lon="-3.08711">
        <ele>167</ele>
        <time>2016-03-03T13:23:38Z</time>
      </trkpt>
      <trkpt lat="48.21426" lon="-3.08708">
        <ele>167</ele>
        <time>2016-03-03T13:23:41Z</time>
      </trkpt>
      <trkpt lat="48.21422" lon="-3.08704">
        <ele>167</ele>
        <time>2016-03-03T13:23:44Z</time>
      </trkpt>
      <trkpt lat="48.21418" lon="-3.087">
        <ele>167</ele>
        <time>2016-03-03T13:23:48Z</time>
      </trkpt>
      <trkpt lat="48.21416" lon="-3.08699">
        <ele>167</ele>
        <time>2016-03-03T13:23:51Z</time>
      </trkpt>
      <trkpt lat="48.21412" lon="-3.08697">
        <ele>167</ele>
        <time>2016-03-03T13:23:54Z</time>
      </trkpt>
      <trkpt lat="48.21408" lon="-3.08695">
        <ele>167</ele>
        <time>2016-03-03T13:23:57Z</time>
      </trkpt>
      <trkpt lat="48.21404" lon="-3.08692">
        <ele>166</ele>
        <time>2016-03-03T13:24:00Z</time>
      </trkpt>
      <trkpt lat="48.214" lon="-3.0869">
        <ele>166</ele>
        <time>2016-03-03T13:24:03Z</time>
      </trkpt>
      <trkpt lat="48.21396" lon="-3.08688">
        <ele>166</ele>
        <time>2016-03-03T13:24:07Z</time>
      </trkpt>
      <trkpt lat="48.21392" lon="-3.08686">
        <ele>166</ele>
        <time>2016-03-03T13:24:10Z</time>
      </trkpt>
      <trkpt lat="48.21388" lon="-3.08683">
        <ele>165</ele>
        <time>2016-03-03T13:24:13Z</time>
      </trkpt>
      <trkpt lat="48.21384" lon="-3.08682">
        <ele>165</ele>
        <time>2016-03-03T13:24:16Z</time>
      </trkpt>
      <trkpt lat="48.21381" lon="-3.08679">
        <ele>165</ele>
        <time>2016-03-03T13:24:19Z</time>
      </trkpt>
      <trkpt lat="48.21376" lon="-3.08676">
        <ele>165</ele>
        <time>2016-03-03T13:24:23Z</time>
      </trkpt>
      <trkpt lat="48.21373" lon="-3.08675">
        <ele>164</ele>
        <time>2016-03-03T13:24:26Z</time>
      </trkpt>
      <trkpt lat="48.2137" lon="-3.08674">
        <ele>164</ele>
        <time>2016-03-03T13:24:29Z</time>
      </trkpt>
      <trkpt lat="48.21365" lon="-3.08672">
        <ele>164</ele>
        <time>2016-03-03T13:24:32Z</time>
      </trkpt>
      <trkpt lat="48.2136" lon="-3.0867">
        <ele>164</ele>
        <time>2016-03-03T13:24:36Z</time>
      </trkpt>
      <trkpt lat="48.21357" lon="-3.08667">
        <ele>164</ele>
        <time>2016-03-03T13:24:39Z</time>
      </trkpt>
      <trkpt lat="48.21351" lon="-3.08665">
        <ele>164</ele>
        <time>2016-03-03T13:24:44Z</time>
      </trkpt>
      <trkpt lat="48.21348" lon="-3.08663">
        <ele>164</ele>
        <time>2016-03-03T13:24:47Z</time>
      </trkpt>
      <trkpt lat="48.21344" lon="-3.0866">
        <ele>164</ele>
        <time>2016-03-03T13:24:51Z</time>
      </trkpt>
      <trkpt lat="48.2134" lon="-3.08658">
        <ele>164</ele>
        <time>2016-03-03T13:24:55Z</time>
      </trkpt>
      <trkpt lat="48.21337" lon="-3.08657">
        <ele>164</ele>
        <time>2016-03-03T13:24:58Z</time>
      </trkpt>
      <trkpt lat="48.21335" lon="-3.08657">
        <ele>164</ele>
        <time>2016-03-03T13:25:03Z</time>
      </trkpt>
      <trkpt lat="48.21331" lon="-3.08656">
        <ele>164</ele>
        <time>2016-03-03T13:25:07Z</time>
      </trkpt>
      <trkpt lat="48.21325" lon="-3.08654">
        <ele>164</ele>
        <time>2016-03-03T13:25:11Z</time>
      </trkpt>
      <trkpt lat="48.21321" lon="-3.08651">
        <ele>164</ele>
        <time>2016-03-03T13:25:15Z</time>
      </trkpt>
      <trkpt lat="48.21317" lon="-3.08649">
        <ele>164</ele>
        <time>2016-03-03T13:25:18Z</time>
      </trkpt>
      <trkpt lat="48.21314" lon="-3.08647">
        <ele>164</ele>
        <time>2016-03-03T13:25:21Z</time>
      </trkpt>
      <trkpt lat="48.21309" lon="-3.08645">
        <ele>163</ele>
        <time>2016-03-03T13:25:25Z</time>
      </trkpt>
      <trkpt lat="48.21304" lon="-3.08643">
        <ele>163</ele>
        <time>2016-03-03T13:25:30Z</time>
      </trkpt>
      <trkpt lat="48.21301" lon="-3.08642">
        <ele>163</ele>
        <time>2016-03-03T13:25:33Z</time>
      </trkpt>
      <trkpt lat="48.21297" lon="-3.08639">
        <ele>163</ele>
        <time>2016-03-03T13:25:36Z</time>
      </trkpt>
      <trkpt lat="48.21294" lon="-3.08637">
        <ele>162</ele>
        <time>2016-03-03T13:25:39Z</time>
      </trkpt>
      <trkpt lat="48.21289" lon="-3.08634">
        <ele>162</ele>
        <time>2016-03-03T13:25:43Z</time>
      </trkpt>
      <trkpt lat="48.21284" lon="-3.08631">
        <ele>161</ele>
        <time>2016-03-03T13:25:47Z</time>
      </trkpt>
      <trkpt lat="48.2128" lon="-3.0863">
        <ele>161</ele>
        <time>2016-03-03T13:25:50Z</time>
      </trkpt>
      <trkpt lat="48.21276" lon="-3.08629">
        <ele>161</ele>
        <time>2016-03-03T13:25:53Z</time>
      </trkpt>
      <trkpt lat="48.2127" lon="-3.08626">
        <ele>161</ele>
        <time>2016-03-03T13:25:57Z</time>
      </trkpt>
      <trkpt lat="48.21267" lon="-3.08626">
        <ele>161</ele>
        <time>2016-03-03T13:26:00Z</time>
      </trkpt>
      <trkpt lat="48.21262" lon="-3.08628">
        <ele>161</ele>
        <time>2016-03-03T13:26:04Z</time>
      </trkpt>
      <trkpt lat="48.21259" lon="-3.08631">
        <ele>161</ele>
        <time>2016-03-03T13:26:09Z</time>
      </trkpt>
      <trkpt lat="48.21258" lon="-3.08633">
        <ele>161</ele>
        <time>2016-03-03T13:26:12Z</time>
      </trkpt>
      <trkpt lat="48.21256" lon="-3.08638">
        <ele>161</ele>
        <time>2016-03-03T13:26:16Z</time>
      </trkpt>
      <trkpt lat="48.21254" lon="-3.08644">
        <ele>161</ele>
        <time>2016-03-03T13:26:20Z</time>
      </trkpt>
      <trkpt lat="48.21252" lon="-3.08649">
        <ele>161</ele>
        <time>2016-03-03T13:26:23Z</time>
      </trkpt>
      <trkpt lat="48.21249" lon="-3.08656">
        <ele>160</ele>
        <time>2016-03-03T13:26:27Z</time>
      </trkpt>
      <trkpt lat="48.21248" lon="-3.08661">
        <ele>160</ele>
        <time>2016-03-03T13:26:30Z</time>
      </trkpt>
      <trkpt lat="48.21245" lon="-3.0867">
        <ele>160</ele>
        <time>2016-03-03T13:26:35Z</time>
      </trkpt>
      <trkpt lat="48.21244" lon="-3.08675">
        <ele>160</ele>
        <time>2016-03-03T13:26:38Z</time>
      </trkpt>
      <trkpt lat="48.21242" lon="-3.08682">
        <ele>160</ele>
        <time>2016-03-03T13:26:42Z</time>
      </trkpt>
      <trkpt lat="48.21241" lon="-3.08687">
        <ele>160</ele>
        <time>2016-03-03T13:26:46Z</time>
      </trkpt>
      <trkpt lat="48.21243" lon="-3.08693">
        <ele>160</ele>
        <time>2016-03-03T13:26:50Z</time>
      </trkpt>
      <trkpt lat="48.21244" lon="-3.08696">
        <ele>160</ele>
        <time>2016-03-03T13:26:55Z</time>
      </trkpt>
      <trkpt lat="48.21246" lon="-3.08698">
        <ele>159</ele>
        <time>2016-03-03T13:27:00Z</time>
      </trkpt>
      <trkpt lat="48.21249" lon="-3.08703">
        <ele>159</ele>
        <time>2016-03-03T13:27:04Z</time>
      </trkpt>
      <trkpt lat="48.21252" lon="-3.08708">
        <ele>157</ele>
        <time>2016-03-03T13:27:08Z</time>
      </trkpt>
      <trkpt lat="48.21255" lon="-3.08713">
        <ele>156</ele>
        <time>2016-03-03T13:27:12Z</time>
      </trkpt>
      <trkpt lat="48.21256" lon="-3.08717">
        <ele>156</ele>
        <time>2016-03-03T13:27:16Z</time>
      </trkpt>
      <trkpt lat="48.21258" lon="-3.08722">
        <ele>155</ele>
        <time>2016-03-03T13:27:19Z</time>
      </trkpt>
      <trkpt lat="48.21259" lon="-3.08728">
        <ele>155</ele>
        <time>2016-03-03T13:27:22Z</time>
      </trkpt>
      <trkpt lat="48.2126" lon="-3.08734">
        <ele>154</ele>
        <time>2016-03-03T13:27:25Z</time>
      </trkpt>
      <trkpt lat="48.2126" lon="-3.08739">
        <ele>154</ele>
        <time>2016-03-03T13:27:28Z</time>
      </trkpt>
      <trkpt lat="48.21261" lon="-3.08746">
        <ele>153</ele>
        <time>2016-03-03T13:27:32Z</time>
      </trkpt>
      <trkpt lat="48.21262" lon="-3.08751">
        <ele>153</ele>
        <time>2016-03-03T13:27:35Z</time>
      </trkpt>
      <trkpt lat="48.21263" lon="-3.08756">
        <ele>153</ele>
        <time>2016-03-03T13:27:38Z</time>
      </trkpt>
      <trkpt lat="48.21265" lon="-3.08761">
        <ele>153</ele>
        <time>2016-03-03T13:27:41Z</time>
      </trkpt>
      <trkpt lat="48.21265" lon="-3.08768">
        <ele>152</ele>
        <time>2016-03-03T13:27:45Z</time>
      </trkpt>
      <trkpt lat="48.21265" lon="-3.08773">
        <ele>151</ele>
        <time>2016-03-03T13:27:48Z</time>
      </trkpt>
      <trkpt lat="48.21267" lon="-3.08779">
        <ele>151</ele>
        <time>2016-03-03T13:27:51Z</time>
      </trkpt>
      <trkpt lat="48.21268" lon="-3.08785">
        <ele>149</ele>
        <time>2016-03-03T13:27:55Z</time>
      </trkpt>
      <trkpt lat="48.21271" lon="-3.08788">
        <ele>148</ele>
        <time>2016-03-03T13:27:59Z</time>
      </trkpt>
      <trkpt lat="48.21274" lon="-3.08794">
        <ele>147</ele>
        <time>2016-03-03T13:28:03Z</time>
      </trkpt>
      <trkpt lat="48.21277" lon="-3.08801">
        <ele>146</ele>
        <time>2016-03-03T13:28:06Z</time>
      </trkpt>
      <trkpt lat="48.21279" lon="-3.08809">
        <ele>146</ele>
        <time>2016-03-03T13:28:10Z</time>
      </trkpt>
      <trkpt lat="48.2128" lon="-3.08815">
        <ele>146</ele>
        <time>2016-03-03T13:28:13Z</time>
      </trkpt>
      <trkpt lat="48.21281" lon="-3.08821">
        <ele>146</ele>
        <time>2016-03-03T13:28:16Z</time>
      </trkpt>
      <trkpt lat="48.21281" lon="-3.08826">
        <ele>145</ele>
        <time>2016-03-03T13:28:19Z</time>
      </trkpt>
      <trkpt lat="48.21281" lon="-3.08832">
        <ele>144</ele>
        <time>2016-03-03T13:28:22Z</time>
      </trkpt>
      <trkpt lat="48.21282" lon="-3.08839">
        <ele>144</ele>
        <time>2016-03-03T13:28:27Z</time>
      </trkpt>
      <trkpt lat="48.21281" lon="-3.08844">
        <ele>143</ele>
        <time>2016-03-03T13:28:31Z</time>
      </trkpt>
      <trkpt lat="48.2128" lon="-3.08852">
        <ele>143</ele>
        <time>2016-03-03T13:28:36Z</time>
      </trkpt>
      <trkpt lat="48.2128" lon="-3.08855">
        <ele>143</ele>
        <time>2016-03-03T13:28:40Z</time>
      </trkpt>
      <trkpt lat="48.2128" lon="-3.08861">
        <ele>143</ele>
        <time>2016-03-03T13:28:44Z</time>
      </trkpt>
      <trkpt lat="48.2128" lon="-3.08868">
        <ele>143</ele>
        <time>2016-03-03T13:28:47Z</time>
      </trkpt>
      <trkpt lat="48.21279" lon="-3.08874">
        <ele>142</ele>
        <time>2016-03-03T13:28:50Z</time>
      </trkpt>
      <trkpt lat="48.21278" lon="-3.0888">
        <ele>141</ele>
        <time>2016-03-03T13:28:53Z</time>
      </trkpt>
      <trkpt lat="48.21279" lon="-3.08886">
        <ele>141</ele>
        <time>2016-03-03T13:28:56Z</time>
      </trkpt>
      <trkpt lat="48.2128" lon="-3.08893">
        <ele>141</ele>
        <time>2016-03-03T13:29:01Z</time>
      </trkpt>
      <trkpt lat="48.21281" lon="-3.08897">
        <ele>141</ele>
        <time>2016-03-03T13:29:04Z</time>
      </trkpt>
      <trkpt lat="48.21281" lon="-3.08904">
        <ele>141</ele>
        <time>2016-03-03T13:29:08Z</time>
      </trkpt>
      <trkpt lat="48.21283" lon="-3.0891">
        <ele>140</ele>
        <time>2016-03-03T13:29:11Z</time>
      </trkpt>
      <trkpt lat="48.21284" lon="-3.08915">
        <ele>140</ele>
        <time>2016-03-03T13:29:14Z</time>
      </trkpt>
      <trkpt lat="48.21285" lon="-3.08922">
        <ele>139</ele>
        <time>2016-03-03T13:29:18Z</time>
      </trkpt>
      <trkpt lat="48.21286" lon="-3.08928">
        <ele>139</ele>
        <time>2016-03-03T13:29:21Z</time>
      </trkpt>
      <trkpt lat="48.21286" lon="-3.08933">
        <ele>139</ele>
        <time>2016-03-03T13:29:24Z</time>
      </trkpt>
      <trkpt lat="48.21287" lon="-3.08938">
        <ele>139</ele>
        <time>2016-03-03T13:29:27Z</time>
      </trkpt>
      <trkpt lat="48.21288" lon="-3.08946">
        <ele>138</ele>
        <time>2016-03-03T13:29:32Z</time>
      </trkpt>
      <trkpt lat="48.21289" lon="-3.08953">
        <ele>138</ele>
        <time>2016-03-03T13:29:36Z</time>
      </trkpt>
      <trkpt lat="48.2129" lon="-3.08959">
        <ele>138</ele>
        <time>2016-03-03T13:29:40Z</time>
      </trkpt>
      <trkpt lat="48.2129" lon="-3.08965">
        <ele>138</ele>
        <time>2016-03-03T13:29:44Z</time>
      </trkpt>
      <trkpt lat="48.21291" lon="-3.08966">
        <ele>138</ele>
        <time>2016-03-03T13:29:49Z</time>
      </trkpt>
      <trkpt lat="48.21291" lon="-3.08972">
        <ele>138</ele>
        <time>2016-03-03T13:29:52Z</time>
      </trkpt>
      <trkpt lat="48.21291" lon="-3.08978">
        <ele>138</ele>
        <time>2016-03-03T13:29:55Z</time>
      </trkpt>
      <trkpt lat="48.21292" lon="-3.08985">
        <ele>138</ele>
        <time>2016-03-03T13:29:59Z</time>
      </trkpt>
      <trkpt lat="48.21294" lon="-3.08995">
        <ele>138</ele>
        <time>2016-03-03T13:30:03Z</time>
      </trkpt>
      <trkpt lat="48.21295" lon="-3.09">
        <ele>138</ele>
        <time>2016-03-03T13:30:06Z</time>
      </trkpt>
      <trkpt lat="48.21295" lon="-3.09007">
        <ele>138</ele>
        <time>2016-03-03T13:30:10Z</time>
      </trkpt>
      <trkpt lat="48.21296" lon="-3.09014">
        <ele>138</ele>
        <time>2016-03-03T13:30:13Z</time>
      </trkpt>
      <trkpt lat="48.21295" lon="-3.09019">
        <ele>138</ele>
        <time>2016-03-03T13:30:16Z</time>
      </trkpt>
      <trkpt lat="48.21296" lon="-3.09024">
        <ele>138</ele>
        <time>2016-03-03T13:30:19Z</time>
      </trkpt>
      <trkpt lat="48.21296" lon="-3.09029">
        <ele>138</ele>
        <time>2016-03-03T13:30:22Z</time>
      </trkpt>
      <trkpt lat="48.21296" lon="-3.09035">
        <ele>139</ele>
        <time>2016-03-03T13:30:25Z</time>
      </trkpt>
      <trkpt lat="48.21296" lon="-3.09042">
        <ele>140</ele>
        <time>2016-03-03T13:30:28Z</time>
      </trkpt>
      <trkpt lat="48.21296" lon="-3.09048">
        <ele>141</ele>
        <time>2016-03-03T13:30:31Z</time>
      </trkpt>
      <trkpt lat="48.21297" lon="-3.09054">
        <ele>142</ele>
        <time>2016-03-03T13:30:34Z</time>
      </trkpt>
      <trkpt lat="48.21298" lon="-3.09062">
        <ele>143</ele>
        <time>2016-03-03T13:30:38Z</time>
      </trkpt>
      <trkpt lat="48.21298" lon="-3.09068">
        <ele>143</ele>
        <time>2016-03-03T13:30:41Z</time>
      </trkpt>
      <trkpt lat="48.21299" lon="-3.09073">
        <ele>143</ele>
        <time>2016-03-03T13:30:44Z</time>
      </trkpt>
      <trkpt lat="48.213" lon="-3.09078">
        <ele>143</ele>
        <time>2016-03-03T13:30:50Z</time>
      </trkpt>
      <trkpt lat="48.21301" lon="-3.09083">
        <ele>143</ele>
        <time>2016-03-03T13:30:53Z</time>
      </trkpt>
      <trkpt lat="48.21301" lon="-3.09087">
        <ele>143</ele>
        <time>2016-03-03T13:30:57Z</time>
      </trkpt>
      <trkpt lat="48.21301" lon="-3.09092">
        <ele>143</ele>
        <time>2016-03-03T13:31:01Z</time>
      </trkpt>
      <trkpt lat="48.21301" lon="-3.09097">
        <ele>143</ele>
        <time>2016-03-03T13:31:05Z</time>
      </trkpt>
      <trkpt lat="48.21298" lon="-3.09102">
        <ele>143</ele>
        <time>2016-03-03T13:31:09Z</time>
      </trkpt>
      <trkpt lat="48.21295" lon="-3.09105">
        <ele>143</ele>
        <time>2016-03-03T13:31:13Z</time>
      </trkpt>
      <trkpt lat="48.21292" lon="-3.09106">
        <ele>143</ele>
        <time>2016-03-03T13:31:16Z</time>
      </trkpt>
      <trkpt lat="48.21288" lon="-3.09106">
        <ele>143</ele>
        <time>2016-03-03T13:31:21Z</time>
      </trkpt>
      <trkpt lat="48.21285" lon="-3.09109">
        <ele>142</ele>
        <time>2016-03-03T13:31:25Z</time>
      </trkpt>
      <trkpt lat="48.21283" lon="-3.09114">
        <ele>142</ele>
        <time>2016-03-03T13:31:29Z</time>
      </trkpt>
      <trkpt lat="48.21281" lon="-3.09118">
        <ele>142</ele>
        <time>2016-03-03T13:31:33Z</time>
      </trkpt>
      <trkpt lat="48.21282" lon="-3.09122">
        <ele>142</ele>
        <time>2016-03-03T13:31:37Z</time>
      </trkpt>
      <trkpt lat="48.21282" lon="-3.09124">
        <ele>142</ele>
        <time>2016-03-03T13:31:42Z</time>
      </trkpt>
      <trkpt lat="48.21283" lon="-3.09127">
        <ele>142</ele>
        <time>2016-03-03T13:31:50Z</time>
      </trkpt>
      <trkpt lat="48.21285" lon="-3.09132">
        <ele>142</ele>
        <time>2016-03-03T13:31:53Z</time>
      </trkpt>
      <trkpt lat="48.2129" lon="-3.09138">
        <ele>142</ele>
        <time>2016-03-03T13:31:58Z</time>
      </trkpt>
      <trkpt lat="48.21292" lon="-3.09143">
        <ele>141</ele>
        <time>2016-03-03T13:32:02Z</time>
      </trkpt>
      <trkpt lat="48.21296" lon="-3.09149">
        <ele>140</ele>
        <time>2016-03-03T13:32:06Z</time>
      </trkpt>
      <trkpt lat="48.213" lon="-3.09153">
        <ele>140</ele>
        <time>2016-03-03T13:32:09Z</time>
      </trkpt>
      <trkpt lat="48.21302" lon="-3.09159">
        <ele>140</ele>
        <time>2016-03-03T13:32:13Z</time>
      </trkpt>
      <trkpt lat="48.21305" lon="-3.09163">
        <ele>139</ele>
        <time>2016-03-03T13:32:17Z</time>
      </trkpt>
      <trkpt lat="48.21307" lon="-3.09168">
        <ele>139</ele>
        <time>2016-03-03T13:32:20Z</time>
      </trkpt>
      <trkpt lat="48.2131" lon="-3.09171">
        <ele>139</ele>
        <time>2016-03-03T13:32:23Z</time>
      </trkpt>
      <trkpt lat="48.21313" lon="-3.09175">
        <ele>139</ele>
        <time>2016-03-03T13:32:27Z</time>
      </trkpt>
      <trkpt lat="48.21315" lon="-3.0918">
        <ele>139</ele>
        <time>2016-03-03T13:32:30Z</time>
      </trkpt>
      <trkpt lat="48.21318" lon="-3.09184">
        <ele>139</ele>
        <time>2016-03-03T13:32:33Z</time>
      </trkpt>
      <trkpt lat="48.2132" lon="-3.09188">
        <ele>139</ele>
        <time>2016-03-03T13:32:36Z</time>
      </trkpt>
      <trkpt lat="48.21321" lon="-3.09192">
        <ele>139</ele>
        <time>2016-03-03T13:32:39Z</time>
      </trkpt>
      <trkpt lat="48.21325" lon="-3.09197">
        <ele>139</ele>
        <time>2016-03-03T13:32:42Z</time>
      </trkpt>
      <trkpt lat="48.2133" lon="-3.09202">
        <ele>139</ele>
        <time>2016-03-03T13:32:45Z</time>
      </trkpt>
      <trkpt lat="48.21333" lon="-3.09206">
        <ele>139</ele>
        <time>2016-03-03T13:32:48Z</time>
      </trkpt>
      <trkpt lat="48.21337" lon="-3.09212">
        <ele>139</ele>
        <time>2016-03-03T13:32:52Z</time>
      </trkpt>
      <trkpt lat="48.21339" lon="-3.09217">
        <ele>139</ele>
        <time>2016-03-03T13:32:55Z</time>
      </trkpt>
      <trkpt lat="48.21341" lon="-3.09224">
        <ele>139</ele>
        <time>2016-03-03T13:32:59Z</time>
      </trkpt>
      <trkpt lat="48.21344" lon="-3.09228">
        <ele>139</ele>
        <time>2016-03-03T13:33:02Z</time>
      </trkpt>
      <trkpt lat="48.21346" lon="-3.09233">
        <ele>139</ele>
        <time>2016-03-03T13:33:05Z</time>
      </trkpt>
      <trkpt lat="48.2135" lon="-3.09239">
        <ele>141</ele>
        <time>2016-03-03T13:33:08Z</time>
      </trkpt>
      <trkpt lat="48.21352" lon="-3.09245">
        <ele>145</ele>
        <time>2016-03-03T13:33:12Z</time>
      </trkpt>
      <trkpt lat="48.21354" lon="-3.0925">
        <ele>147</ele>
        <time>2016-03-03T13:33:15Z</time>
      </trkpt>
      <trkpt lat="48.21355" lon="-3.09259">
        <ele>147</ele>
        <time>2016-03-03T13:33:20Z</time>
      </trkpt>
      <trkpt lat="48.21355" lon="-3.09264">
        <ele>147</ele>
        <time>2016-03-03T13:33:23Z</time>
      </trkpt>
      <trkpt lat="48.21357" lon="-3.09271">
        <ele>147</ele>
        <time>2016-03-03T13:33:27Z</time>
      </trkpt>
      <trkpt lat="48.21356" lon="-3.09277">
        <ele>147</ele>
        <time>2016-03-03T13:33:31Z</time>
      </trkpt>
      <trkpt lat="48.21357" lon="-3.09281">
        <ele>147</ele>
        <time>2016-03-03T13:33:34Z</time>
      </trkpt>
      <trkpt lat="48.21359" lon="-3.09287">
        <ele>147</ele>
        <time>2016-03-03T13:33:38Z</time>
      </trkpt>
      <trkpt lat="48.21361" lon="-3.09291">
        <ele>148</ele>
        <time>2016-03-03T13:33:42Z</time>
      </trkpt>
      <trkpt lat="48.21361" lon="-3.093">
        <ele>149</ele>
        <time>2016-03-03T13:33:47Z</time>
      </trkpt>
      <trkpt lat="48.21362" lon="-3.09306">
        <ele>149</ele>
        <time>2016-03-03T13:33:50Z</time>
      </trkpt>
      <trkpt lat="48.21361" lon="-3.09311">
        <ele>149</ele>
        <time>2016-03-03T13:33:53Z</time>
      </trkpt>
      <trkpt lat="48.21361" lon="-3.09318">
        <ele>149</ele>
        <time>2016-03-03T13:33:57Z</time>
      </trkpt>
      <trkpt lat="48.21362" lon="-3.09323">
        <ele>149</ele>
        <time>2016-03-03T13:34:00Z</time>
      </trkpt>
      <trkpt lat="48.21361" lon="-3.09329">
        <ele>149</ele>
        <time>2016-03-03T13:34:04Z</time>
      </trkpt>
      <trkpt lat="48.21361" lon="-3.09334">
        <ele>149</ele>
        <time>2016-03-03T13:34:07Z</time>
      </trkpt>
      <trkpt lat="48.21363" lon="-3.09341">
        <ele>149</ele>
        <time>2016-03-03T13:34:11Z</time>
      </trkpt>
      <trkpt lat="48.21362" lon="-3.09348">
        <ele>149</ele>
        <time>2016-03-03T13:34:15Z</time>
      </trkpt>
      <trkpt lat="48.21362" lon="-3.09353">
        <ele>149</ele>
        <time>2016-03-03T13:34:18Z</time>
      </trkpt>
      <trkpt lat="48.21362" lon="-3.09359">
        <ele>149</ele>
        <time>2016-03-03T13:34:21Z</time>
      </trkpt>
      <trkpt lat="48.21363" lon="-3.09366">
        <ele>149</ele>
        <time>2016-03-03T13:34:25Z</time>
      </trkpt>
      <trkpt lat="48.21362" lon="-3.09371">
        <ele>149</ele>
        <time>2016-03-03T13:34:29Z</time>
      </trkpt>
      <trkpt lat="48.21364" lon="-3.09375">
        <ele>151</ele>
        <time>2016-03-03T13:34:34Z</time>
      </trkpt>
      <trkpt lat="48.21365" lon="-3.0938">
        <ele>152</ele>
        <time>2016-03-03T13:34:37Z</time>
      </trkpt>
      <trkpt lat="48.21365" lon="-3.09387">
        <ele>152</ele>
        <time>2016-03-03T13:34:41Z</time>
      </trkpt>
      <trkpt lat="48.21365" lon="-3.09391">
        <ele>152</ele>
        <time>2016-03-03T13:34:44Z</time>
      </trkpt>
      <trkpt lat="48.21366" lon="-3.09395">
        <ele>152</ele>
        <time>2016-03-03T13:34:48Z</time>
      </trkpt>
      <trkpt lat="48.21366" lon="-3.09399">
        <ele>152</ele>
        <time>2016-03-03T13:34:52Z</time>
      </trkpt>
      <trkpt lat="48.21368" lon="-3.09404">
        <ele>152</ele>
        <time>2016-03-03T13:34:55Z</time>
      </trkpt>
      <trkpt lat="48.21368" lon="-3.09409">
        <ele>152</ele>
        <time>2016-03-03T13:34:58Z</time>
      </trkpt>
      <trkpt lat="48.21366" lon="-3.09416">
        <ele>152</ele>
        <time>2016-03-03T13:35:03Z</time>
      </trkpt>
      <trkpt lat="48.21367" lon="-3.09422">
        <ele>152</ele>
        <time>2016-03-03T13:35:07Z</time>
      </trkpt>
      <trkpt lat="48.21368" lon="-3.09427">
        <ele>153</ele>
        <time>2016-03-03T13:35:10Z</time>
      </trkpt>
      <trkpt lat="48.21366" lon="-3.09433">
        <ele>154</ele>
        <time>2016-03-03T13:35:17Z</time>
      </trkpt>
      <trkpt lat="48.21368" lon="-3.09435">
        <ele>154</ele>
        <time>2016-03-03T13:35:21Z</time>
      </trkpt>
      <trkpt lat="48.21367" lon="-3.09436">
        <ele>155</ele>
        <time>2016-03-03T13:35:25Z</time>
      </trkpt>
      <trkpt lat="48.21368" lon="-3.09441">
        <ele>159</ele>
        <time>2016-03-03T13:35:31Z</time>
      </trkpt>
      <trkpt lat="48.2137" lon="-3.09443">
        <ele>161</ele>
        <time>2016-03-03T13:35:34Z</time>
      </trkpt>
      <trkpt lat="48.21369" lon="-3.09445">
        <ele>162</ele>
        <time>2016-03-03T13:35:43Z</time>
      </trkpt>
      <trkpt lat="48.21369" lon="-3.09447">
        <ele>162</ele>
        <time>2016-03-03T13:35:47Z</time>
      </trkpt>
      <trkpt lat="48.21369" lon="-3.09449">
        <ele>162</ele>
        <time>2016-03-03T13:35:51Z</time>
      </trkpt>
      <trkpt lat="48.21368" lon="-3.09454">
        <ele>161</ele>
        <time>2016-03-03T13:35:55Z</time>
      </trkpt>
      <trkpt lat="48.21369" lon="-3.09457">
        <ele>161</ele>
        <time>2016-03-03T13:35:59Z</time>
      </trkpt>
      <trkpt lat="48.21367" lon="-3.0946">
        <ele>161</ele>
        <time>2016-03-03T13:36:04Z</time>
      </trkpt>
      <trkpt lat="48.21369" lon="-3.09463">
        <ele>160</ele>
        <time>2016-03-03T13:36:11Z</time>
      </trkpt>
      <trkpt lat="48.21369" lon="-3.09467">
        <ele>160</ele>
        <time>2016-03-03T13:36:16Z</time>
      </trkpt>
      <trkpt lat="48.21368" lon="-3.09469">
        <ele>159</ele>
        <time>2016-03-03T13:36:19Z</time>
      </trkpt>
      <trkpt lat="48.21367" lon="-3.09474">
        <ele>157</ele>
        <time>2016-03-03T13:36:23Z</time>
      </trkpt>
      <trkpt lat="48.21367" lon="-3.09479">
        <ele>157</ele>
        <time>2016-03-03T13:36:27Z</time>
      </trkpt>
      <trkpt lat="48.21368" lon="-3.09485">
        <ele>156</ele>
        <time>2016-03-03T13:36:30Z</time>
      </trkpt>
      <trkpt lat="48.21367" lon="-3.0949">
        <ele>156</ele>
        <time>2016-03-03T13:36:34Z</time>
      </trkpt>
      <trkpt lat="48.21368" lon="-3.09495">
        <ele>156</ele>
        <time>2016-03-03T13:36:37Z</time>
      </trkpt>
      <trkpt lat="48.21367" lon="-3.09502">
        <ele>156</ele>
        <time>2016-03-03T13:36:41Z</time>
      </trkpt>
      <trkpt lat="48.21365" lon="-3.09506">
        <ele>156</ele>
        <time>2016-03-03T13:36:44Z</time>
      </trkpt>
      <trkpt lat="48.21365" lon="-3.0951">
        <ele>156</ele>
        <time>2016-03-03T13:36:47Z</time>
      </trkpt>
      <trkpt lat="48.21367" lon="-3.09515">
        <ele>159</ele>
        <time>2016-03-03T13:36:51Z</time>
      </trkpt>
      <trkpt lat="48.21367" lon="-3.0952">
        <ele>162</ele>
        <time>2016-03-03T13:36:54Z</time>
      </trkpt>
      <trkpt lat="48.21368" lon="-3.09526">
        <ele>163</ele>
        <time>2016-03-03T13:36:57Z</time>
      </trkpt>
      <trkpt lat="48.21367" lon="-3.09532">
        <ele>164</ele>
        <time>2016-03-03T13:37:00Z</time>
      </trkpt>
      <trkpt lat="48.21367" lon="-3.09537">
        <ele>164</ele>
        <time>2016-03-03T13:37:03Z</time>
      </trkpt>
      <trkpt lat="48.21365" lon="-3.09543">
        <ele>164</ele>
        <time>2016-03-03T13:37:06Z</time>
      </trkpt>
      <trkpt lat="48.21364" lon="-3.09549">
        <ele>164</ele>
        <time>2016-03-03T13:37:10Z</time>
      </trkpt>
      <trkpt lat="48.21364" lon="-3.09556">
        <ele>164</ele>
        <time>2016-03-03T13:37:14Z</time>
      </trkpt>
      <trkpt lat="48.21365" lon="-3.09561">
        <ele>164</ele>
        <time>2016-03-03T13:37:17Z</time>
      </trkpt>
      <trkpt lat="48.21365" lon="-3.09566">
        <ele>164</ele>
        <time>2016-03-03T13:37:20Z</time>
      </trkpt>
      <trkpt lat="48.21365" lon="-3.09572">
        <ele>164</ele>
        <time>2016-03-03T13:37:23Z</time>
      </trkpt>
      <trkpt lat="48.21365" lon="-3.09577">
        <ele>164</ele>
        <time>2016-03-03T13:37:26Z</time>
      </trkpt>
      <trkpt lat="48.21362" lon="-3.09581">
        <ele>164</ele>
        <time>2016-03-03T13:37:29Z</time>
      </trkpt>
      <trkpt lat="48.21361" lon="-3.09585">
        <ele>164</ele>
        <time>2016-03-03T13:37:33Z</time>
      </trkpt>
      <trkpt lat="48.21363" lon="-3.0959">
        <ele>164</ele>
        <time>2016-03-03T13:37:37Z</time>
      </trkpt>
      <trkpt lat="48.21363" lon="-3.09596">
        <ele>164</ele>
        <time>2016-03-03T13:37:40Z</time>
      </trkpt>
      <trkpt lat="48.21364" lon="-3.096">
        <ele>164</ele>
        <time>2016-03-03T13:37:43Z</time>
      </trkpt>
      <trkpt lat="48.21367" lon="-3.09605">
        <ele>164</ele>
        <time>2016-03-03T13:37:47Z</time>
      </trkpt>
      <trkpt lat="48.21367" lon="-3.0961">
        <ele>164</ele>
        <time>2016-03-03T13:37:50Z</time>
      </trkpt>
      <trkpt lat="48.21368" lon="-3.09614">
        <ele>164</ele>
        <time>2016-03-03T13:37:53Z</time>
      </trkpt>
      <trkpt lat="48.21369" lon="-3.09619">
        <ele>164</ele>
        <time>2016-03-03T13:37:56Z</time>
      </trkpt>
      <trkpt lat="48.21371" lon="-3.09624">
        <ele>164</ele>
        <time>2016-03-03T13:37:59Z</time>
      </trkpt>
      <trkpt lat="48.21373" lon="-3.09627">
        <ele>164</ele>
        <time>2016-03-03T13:38:02Z</time>
      </trkpt>
      <trkpt lat="48.21377" lon="-3.09629">
        <ele>164</ele>
        <time>2016-03-03T13:38:05Z</time>
      </trkpt>
      <trkpt lat="48.21379" lon="-3.09635">
        <ele>164</ele>
        <time>2016-03-03T13:38:09Z</time>
      </trkpt>
      <trkpt lat="48.2138" lon="-3.09639">
        <ele>164</ele>
        <time>2016-03-03T13:38:13Z</time>
      </trkpt>
      <trkpt lat="48.21381" lon="-3.09641">
        <ele>164</ele>
        <time>2016-03-03T13:38:16Z</time>
      </trkpt>
      <trkpt lat="48.2138" lon="-3.09645">
        <ele>164</ele>
        <time>2016-03-03T13:38:19Z</time>
      </trkpt>
      <trkpt lat="48.21378" lon="-3.09649">
        <ele>164</ele>
        <time>2016-03-03T13:38:23Z</time>
      </trkpt>
      <trkpt lat="48.21375" lon="-3.09652">
        <ele>164</ele>
        <time>2016-03-03T13:38:27Z</time>
      </trkpt>
      <trkpt lat="48.21372" lon="-3.09656">
        <ele>164</ele>
        <time>2016-03-03T13:38:32Z</time>
      </trkpt>
      <trkpt lat="48.21371" lon="-3.09662">
        <ele>163</ele>
        <time>2016-03-03T13:38:36Z</time>
      </trkpt>
      <trkpt lat="48.21371" lon="-3.09666">
        <ele>163</ele>
        <time>2016-03-03T13:38:39Z</time>
      </trkpt>
      <trkpt lat="48.21369" lon="-3.09671">
        <ele>163</ele>
        <time>2016-03-03T13:38:43Z</time>
      </trkpt>
      <trkpt lat="48.21367" lon="-3.09674">
        <ele>163</ele>
        <time>2016-03-03T13:38:48Z</time>
      </trkpt>
      <trkpt lat="48.21368" lon="-3.09674">
        <ele>163</ele>
        <time>2016-03-03T13:38:54Z</time>
      </trkpt>
      <trkpt lat="48.21371" lon="-3.09672">
        <ele>163</ele>
        <time>2016-03-03T13:38:58Z</time>
      </trkpt>
      <trkpt lat="48.21374" lon="-3.09671">
        <ele>163</ele>
        <time>2016-03-03T13:39:03Z</time>
      </trkpt>
      <trkpt lat="48.21376" lon="-3.09671">
        <ele>163</ele>
        <time>2016-03-03T13:39:06Z</time>
      </trkpt>
      <trkpt lat="48.21376" lon="-3.09669">
        <ele>163</ele>
        <time>2016-03-03T13:39:09Z</time>
      </trkpt>
      <trkpt lat="48.21373" lon="-3.09666">
        <ele>163</ele>
        <time>2016-03-03T13:39:17Z</time>
      </trkpt>
      <trkpt lat="48.21369" lon="-3.09663">
        <ele>163</ele>
        <time>2016-03-03T13:39:20Z</time>
      </trkpt>
      <trkpt lat="48.21368" lon="-3.09663">
        <ele>163</ele>
        <time>2016-03-03T13:39:27Z</time>
      </trkpt>
      <trkpt lat="48.21367" lon="-3.09664">
        <ele>163</ele>
        <time>2016-03-03T13:39:35Z</time>
      </trkpt>
      <trkpt lat="48.21368" lon="-3.09665">
        <ele>163</ele>
        <time>2016-03-03T13:39:40Z</time>
      </trkpt>
      <trkpt lat="48.21366" lon="-3.09663">
        <ele>166</ele>
        <time>2016-03-03T13:39:49Z</time>
      </trkpt>
      <trkpt lat="48.21362" lon="-3.09658">
        <ele>166</ele>
        <time>2016-03-03T13:39:53Z</time>
      </trkpt>
      <trkpt lat="48.2136" lon="-3.09654">
        <ele>166</ele>
        <time>2016-03-03T13:39:56Z</time>
      </trkpt>
      <trkpt lat="48.21357" lon="-3.0965">
        <ele>166</ele>
        <time>2016-03-03T13:40:00Z</time>
      </trkpt>
      <trkpt lat="48.21355" lon="-3.09646">
        <ele>166</ele>
        <time>2016-03-03T13:40:03Z</time>
      </trkpt>
      <trkpt lat="48.21353" lon="-3.09639">
        <ele>166</ele>
        <time>2016-03-03T13:40:07Z</time>
      </trkpt>
      <trkpt lat="48.21352" lon="-3.09634">
        <ele>166</ele>
        <time>2016-03-03T13:40:10Z</time>
      </trkpt>
      <trkpt lat="48.21351" lon="-3.0963">
        <ele>166</ele>
        <time>2016-03-03T13:40:13Z</time>
      </trkpt>
      <trkpt lat="48.21349" lon="-3.09626">
        <ele>166</ele>
        <time>2016-03-03T13:40:17Z</time>
      </trkpt>
      <trkpt lat="48.21348" lon="-3.0962">
        <ele>166</ele>
        <time>2016-03-03T13:40:20Z</time>
      </trkpt>
      <trkpt lat="48.21345" lon="-3.09614">
        <ele>166</ele>
        <time>2016-03-03T13:40:24Z</time>
      </trkpt>
      <trkpt lat="48.21344" lon="-3.09608">
        <ele>166</ele>
        <time>2016-03-03T13:40:28Z</time>
      </trkpt>
      <trkpt lat="48.21342" lon="-3.09601">
        <ele>166</ele>
        <time>2016-03-03T13:40:31Z</time>
      </trkpt>
      <trkpt lat="48.2134" lon="-3.09597">
        <ele>166</ele>
        <time>2016-03-03T13:40:34Z</time>
      </trkpt>
      <trkpt lat="48.21339" lon="-3.09592">
        <ele>166</ele>
        <time>2016-03-03T13:40:38Z</time>
      </trkpt>
      <trkpt lat="48.21339" lon="-3.09587">
        <ele>166</ele>
        <time>2016-03-03T13:40:41Z</time>
      </trkpt>
      <trkpt lat="48.21334" lon="-3.0958">
        <ele>166</ele>
        <time>2016-03-03T13:40:45Z</time>
      </trkpt>
      <trkpt lat="48.21332" lon="-3.09576">
        <ele>166</ele>
        <time>2016-03-03T13:40:48Z</time>
      </trkpt>
      <trkpt lat="48.21329" lon="-3.0957">
        <ele>166</ele>
        <time>2016-03-03T13:40:52Z</time>
      </trkpt>
      <trkpt lat="48.21328" lon="-3.09569">
        <ele>167</ele>
        <time>2016-03-03T13:40:56Z</time>
      </trkpt>
      <trkpt lat="48.21327" lon="-3.09567">
        <ele>167</ele>
        <time>2016-03-03T13:40:59Z</time>
      </trkpt>
      <trkpt lat="48.21325" lon="-3.09562">
        <ele>168</ele>
        <time>2016-03-03T13:41:03Z</time>
      </trkpt>
      <trkpt lat="48.21322" lon="-3.09558">
        <ele>169</ele>
        <time>2016-03-03T13:41:07Z</time>
      </trkpt>
      <trkpt lat="48.2132" lon="-3.09554">
        <ele>169</ele>
        <time>2016-03-03T13:41:11Z</time>
      </trkpt>
      <trkpt lat="48.21318" lon="-3.0955">
        <ele>170</ele>
        <time>2016-03-03T13:41:15Z</time>
      </trkpt>
      <trkpt lat="48.21315" lon="-3.09546">
        <ele>171</ele>
        <time>2016-03-03T13:41:23Z</time>
      </trkpt>
      <trkpt lat="48.21313" lon="-3.09542">
        <ele>171</ele>
        <time>2016-03-03T13:41:26Z</time>
      </trkpt>
      <trkpt lat="48.2131" lon="-3.09537">
        <ele>171</ele>
        <time>2016-03-03T13:41:30Z</time>
      </trkpt>
      <trkpt lat="48.21307" lon="-3.09532">
        <ele>171</ele>
        <time>2016-03-03T13:41:34Z</time>
      </trkpt>
      <trkpt lat="48.21304" lon="-3.09528">
        <ele>171</ele>
        <time>2016-03-03T13:41:38Z</time>
      </trkpt>
      <trkpt lat="48.213" lon="-3.09522">
        <ele>171</ele>
        <time>2016-03-03T13:41:42Z</time>
      </trkpt>
      <trkpt lat="48.21297" lon="-3.09517">
        <ele>171</ele>
        <time>2016-03-03T13:41:45Z</time>
      </trkpt>
      <trkpt lat="48.21296" lon="-3.09512">
        <ele>171</ele>
        <time>2016-03-03T13:41:50Z</time>
      </trkpt>
      <trkpt lat="48.21296" lon="-3.0951">
        <ele>172</ele>
        <time>2016-03-03T13:41:57Z</time>
      </trkpt>
      <trkpt lat="48.21293" lon="-3.09507">
        <ele>172</ele>
        <time>2016-03-03T13:42:01Z</time>
      </trkpt>
      <trkpt lat="48.2129" lon="-3.09503">
        <ele>172</ele>
        <time>2016-03-03T13:42:05Z</time>
      </trkpt>
      <trkpt lat="48.21286" lon="-3.09499">
        <ele>172</ele>
        <time>2016-03-03T13:42:09Z</time>
      </trkpt>
      <trkpt lat="48.21282" lon="-3.09495">
        <ele>172</ele>
        <time>2016-03-03T13:42:13Z</time>
      </trkpt>
      <trkpt lat="48.2128" lon="-3.09493">
        <ele>172</ele>
        <time>2016-03-03T13:42:16Z</time>
      </trkpt>
      <trkpt lat="48.21276" lon="-3.0949">
        <ele>172</ele>
        <time>2016-03-03T13:42:20Z</time>
      </trkpt>
      <trkpt lat="48.21273" lon="-3.09489">
        <ele>172</ele>
        <time>2016-03-03T13:42:24Z</time>
      </trkpt>
      <trkpt lat="48.21269" lon="-3.09489">
        <ele>172</ele>
        <time>2016-03-03T13:42:27Z</time>
      </trkpt>
      <trkpt lat="48.21266" lon="-3.09487">
        <ele>172</ele>
        <time>2016-03-03T13:42:30Z</time>
      </trkpt>
      <trkpt lat="48.21265" lon="-3.09488">
        <ele>172</ele>
        <time>2016-03-03T13:42:33Z</time>
      </trkpt>
      <trkpt lat="48.21264" lon="-3.09486">
        <ele>174</ele>
        <time>2016-03-03T13:42:58Z</time>
      </trkpt>
      <trkpt lat="48.21263" lon="-3.09485">
        <ele>175</ele>
        <time>2016-03-03T13:43:09Z</time>
      </trkpt>
      <trkpt lat="48.2126" lon="-3.09483">
        <ele>175</ele>
        <time>2016-03-03T13:43:12Z</time>
      </trkpt>
      <trkpt lat="48.21256" lon="-3.09483">
        <ele>176</ele>
        <time>2016-03-03T13:43:15Z</time>
      </trkpt>
      <trkpt lat="48.21253" lon="-3.09483">
        <ele>177</ele>
        <time>2016-03-03T13:43:18Z</time>
      </trkpt>
      <trkpt lat="48.21249" lon="-3.09483">
        <ele>177</ele>
        <time>2016-03-03T13:43:21Z</time>
      </trkpt>
      <trkpt lat="48.21246" lon="-3.09484">
        <ele>178</ele>
        <time>2016-03-03T13:43:24Z</time>
      </trkpt>
      <trkpt lat="48.21243" lon="-3.09485">
        <ele>178</ele>
        <time>2016-03-03T13:43:27Z</time>
      </trkpt>
      <trkpt lat="48.21239" lon="-3.09487">
        <ele>178</ele>
        <time>2016-03-03T13:43:31Z</time>
      </trkpt>
      <trkpt lat="48.21234" lon="-3.09488">
        <ele>178</ele>
        <time>2016-03-03T13:43:35Z</time>
      </trkpt>
      <trkpt lat="48.21231" lon="-3.09489">
        <ele>178</ele>
        <time>2016-03-03T13:43:38Z</time>
      </trkpt>
      <trkpt lat="48.21228" lon="-3.09489">
        <ele>178</ele>
        <time>2016-03-03T13:43:41Z</time>
      </trkpt>
      <trkpt lat="48.21225" lon="-3.09489">
        <ele>178</ele>
        <time>2016-03-03T13:43:52Z</time>
      </trkpt>
      <trkpt lat="48.21221" lon="-3.09489">
        <ele>178</ele>
        <time>2016-03-03T13:43:56Z</time>
      </trkpt>
      <trkpt lat="48.21218" lon="-3.0949">
        <ele>178</ele>
        <time>2016-03-03T13:43:59Z</time>
      </trkpt>
      <trkpt lat="48.21215" lon="-3.09491">
        <ele>178</ele>
        <time>2016-03-03T13:44:02Z</time>
      </trkpt>
      <trkpt lat="48.21211" lon="-3.09492">
        <ele>178</ele>
        <time>2016-03-03T13:44:05Z</time>
      </trkpt>
      <trkpt lat="48.21207" lon="-3.09492">
        <ele>178</ele>
        <time>2016-03-03T13:44:08Z</time>
      </trkpt>
      <trkpt lat="48.21204" lon="-3.09493">
        <ele>178</ele>
        <time>2016-03-03T13:44:11Z</time>
      </trkpt>
      <trkpt lat="48.21201" lon="-3.09493">
        <ele>178</ele>
        <time>2016-03-03T13:44:31Z</time>
      </trkpt>
      <trkpt lat="48.21198" lon="-3.09494">
        <ele>178</ele>
        <time>2016-03-03T13:44:34Z</time>
      </trkpt>
      <trkpt lat="48.21194" lon="-3.09495">
        <ele>178</ele>
        <time>2016-03-03T13:44:37Z</time>
      </trkpt>
      <trkpt lat="48.2119" lon="-3.09495">
        <ele>178</ele>
        <time>2016-03-03T13:44:40Z</time>
      </trkpt>
      <trkpt lat="48.21186" lon="-3.09495">
        <ele>178</ele>
        <time>2016-03-03T13:44:43Z</time>
      </trkpt>
      <trkpt lat="48.21183" lon="-3.09496">
        <ele>178</ele>
        <time>2016-03-03T13:44:46Z</time>
      </trkpt>
      <trkpt lat="48.21179" lon="-3.09496">
        <ele>178</ele>
        <time>2016-03-03T13:44:50Z</time>
      </trkpt>
      <trkpt lat="48.21178" lon="-3.09497">
        <ele>178</ele>
        <time>2016-03-03T13:45:08Z</time>
      </trkpt>
      <trkpt lat="48.21176" lon="-3.09498">
        <ele>178</ele>
        <time>2016-03-03T13:45:26Z</time>
      </trkpt>
      <trkpt lat="48.21172" lon="-3.09499">
        <ele>178</ele>
        <time>2016-03-03T13:45:29Z</time>
      </trkpt>
      <trkpt lat="48.21169" lon="-3.09499">
        <ele>178</ele>
        <time>2016-03-03T13:45:33Z</time>
      </trkpt>
      <trkpt lat="48.21165" lon="-3.09499">
        <ele>178</ele>
        <time>2016-03-03T13:45:37Z</time>
      </trkpt>
      <trkpt lat="48.21164" lon="-3.095">
        <ele>178</ele>
        <time>2016-03-03T13:45:40Z</time>
      </trkpt>
      <trkpt lat="48.21164" lon="-3.09501">
        <ele>178</ele>
        <time>2016-03-03T13:45:51Z</time>
      </trkpt>
      <trkpt lat="48.21163" lon="-3.09503">
        <ele>178</ele>
        <time>2016-03-03T13:46:04Z</time>
      </trkpt>
      <trkpt lat="48.21161" lon="-3.09504">
        <ele>178</ele>
        <time>2016-03-03T13:46:08Z</time>
      </trkpt>
      <trkpt lat="48.21157" lon="-3.09504">
        <ele>178</ele>
        <time>2016-03-03T13:46:11Z</time>
      </trkpt>
      <trkpt lat="48.21153" lon="-3.09504">
        <ele>178</ele>
        <time>2016-03-03T13:46:14Z</time>
      </trkpt>
      <trkpt lat="48.21149" lon="-3.09504">
        <ele>178</ele>
        <time>2016-03-03T13:46:17Z</time>
      </trkpt>
      <trkpt lat="48.21145" lon="-3.09502">
        <ele>178</ele>
        <time>2016-03-03T13:46:21Z</time>
      </trkpt>
      <trkpt lat="48.21143" lon="-3.09502">
        <ele>178</ele>
        <time>2016-03-03T13:46:25Z</time>
      </trkpt>
      <trkpt lat="48.21141" lon="-3.09502">
        <ele>178</ele>
        <time>2016-03-03T13:46:30Z</time>
      </trkpt>
      <trkpt lat="48.21141" lon="-3.09505">
        <ele>178</ele>
        <time>2016-03-03T13:46:34Z</time>
      </trkpt>
      <trkpt lat="48.21138" lon="-3.09507">
        <ele>179</ele>
        <time>2016-03-03T13:46:38Z</time>
      </trkpt>
      <trkpt lat="48.21136" lon="-3.09509">
        <ele>179</ele>
        <time>2016-03-03T13:46:46Z</time>
      </trkpt>
      <trkpt lat="48.21135" lon="-3.09509">
        <ele>179</ele>
        <time>2016-03-03T13:46:58Z</time>
      </trkpt>
      <trkpt lat="48.21132" lon="-3.0951">
        <ele>179</ele>
        <time>2016-03-03T13:47:02Z</time>
      </trkpt>
      <trkpt lat="48.21129" lon="-3.09512">
        <ele>179</ele>
        <time>2016-03-03T13:47:05Z</time>
      </trkpt>
      <trkpt lat="48.21126" lon="-3.09513">
        <ele>179</ele>
        <time>2016-03-03T13:47:08Z</time>
      </trkpt>
      <trkpt lat="48.21123" lon="-3.09516">
        <ele>179</ele>
        <time>2016-03-03T13:47:11Z</time>
      </trkpt>
      <trkpt lat="48.2112" lon="-3.09517">
        <ele>180</ele>
        <time>2016-03-03T13:47:18Z</time>
      </trkpt>
      <trkpt lat="48.21119" lon="-3.09517">
        <ele>182</ele>
        <time>2016-03-03T13:47:25Z</time>
      </trkpt>
      <trkpt lat="48.21118" lon="-3.09517">
        <ele>185</ele>
        <time>2016-03-03T13:47:33Z</time>
      </trkpt>
      <trkpt lat="48.2112" lon="-3.09515">
        <ele>185</ele>
        <time>2016-03-03T13:47:37Z</time>
      </trkpt>
      <trkpt lat="48.21118" lon="-3.09517">
        <ele>185</ele>
        <time>2016-03-03T13:47:40Z</time>
      </trkpt>
      <trkpt lat="48.21115" lon="-3.09521">
        <ele>185</ele>
        <time>2016-03-03T13:47:44Z</time>
      </trkpt>
      <trkpt lat="48.21112" lon="-3.09525">
        <ele>185</ele>
        <time>2016-03-03T13:47:48Z</time>
      </trkpt>
      <trkpt lat="48.21108" lon="-3.09528">
        <ele>185</ele>
        <time>2016-03-03T13:47:52Z</time>
      </trkpt>
      <trkpt lat="48.21104" lon="-3.09532">
        <ele>185</ele>
        <time>2016-03-03T13:47:56Z</time>
      </trkpt>
      <trkpt lat="48.21101" lon="-3.09537">
        <ele>185</ele>
        <time>2016-03-03T13:48:00Z</time>
      </trkpt>
      <trkpt lat="48.21098" lon="-3.09542">
        <ele>185</ele>
        <time>2016-03-03T13:48:04Z</time>
      </trkpt>
      <trkpt lat="48.21096" lon="-3.09548">
        <ele>185</ele>
        <time>2016-03-03T13:48:08Z</time>
      </trkpt>
      <trkpt lat="48.21094" lon="-3.09554">
        <ele>185</ele>
        <time>2016-03-03T13:48:12Z</time>
      </trkpt>
      <trkpt lat="48.21091" lon="-3.09559">
        <ele>185</ele>
        <time>2016-03-03T13:48:16Z</time>
      </trkpt>
      <trkpt lat="48.21088" lon="-3.09565">
        <ele>185</ele>
        <time>2016-03-03T13:48:20Z</time>
      </trkpt>
      <trkpt lat="48.21086" lon="-3.09571">
        <ele>185</ele>
        <time>2016-03-03T13:48:24Z</time>
      </trkpt>
      <trkpt lat="48.21085" lon="-3.09576">
        <ele>185</ele>
        <time>2016-03-03T13:48:27Z</time>
      </trkpt>
      <trkpt lat="48.21083" lon="-3.09582">
        <ele>185</ele>
        <time>2016-03-03T13:48:31Z</time>
      </trkpt>
      <trkpt lat="48.21082" lon="-3.09587">
        <ele>185</ele>
        <time>2016-03-03T13:48:34Z</time>
      </trkpt>
      <trkpt lat="48.2108" lon="-3.09593">
        <ele>185</ele>
        <time>2016-03-03T13:48:38Z</time>
      </trkpt>
      <trkpt lat="48.21079" lon="-3.09597">
        <ele>185</ele>
        <time>2016-03-03T13:48:41Z</time>
      </trkpt>
      <trkpt lat="48.21078" lon="-3.09603">
        <ele>185</ele>
        <time>2016-03-03T13:48:45Z</time>
      </trkpt>
      <trkpt lat="48.21076" lon="-3.09609">
        <ele>185</ele>
        <time>2016-03-03T13:48:49Z</time>
      </trkpt>
      <trkpt lat="48.21075" lon="-3.09614">
        <ele>185</ele>
        <time>2016-03-03T13:48:53Z</time>
      </trkpt>
      <trkpt lat="48.21073" lon="-3.0962">
        <ele>185</ele>
        <time>2016-03-03T13:48:57Z</time>
      </trkpt>
      <trkpt lat="48.21072" lon="-3.09626">
        <ele>185</ele>
        <time>2016-03-03T13:49:01Z</time>
      </trkpt>
      <trkpt lat="48.21072" lon="-3.0963">
        <ele>185</ele>
        <time>2016-03-03T13:49:04Z</time>
      </trkpt>
      <trkpt lat="48.2107" lon="-3.09636">
        <ele>185</ele>
        <time>2016-03-03T13:49:08Z</time>
      </trkpt>
      <trkpt lat="48.2107" lon="-3.09641">
        <ele>185</ele>
        <time>2016-03-03T13:49:11Z</time>
      </trkpt>
      <trkpt lat="48.21069" lon="-3.09646">
        <ele>185</ele>
        <time>2016-03-03T13:49:15Z</time>
      </trkpt>
      <trkpt lat="48.21068" lon="-3.0965">
        <ele>185</ele>
        <time>2016-03-03T13:49:19Z</time>
      </trkpt>
      <trkpt lat="48.21067" lon="-3.09656">
        <ele>185</ele>
        <time>2016-03-03T13:49:23Z</time>
      </trkpt>
      <trkpt lat="48.21067" lon="-3.09662">
        <ele>185</ele>
        <time>2016-03-03T13:49:27Z</time>
      </trkpt>
      <trkpt lat="48.21067" lon="-3.09663">
        <ele>186</ele>
        <time>2016-03-03T13:49:46Z</time>
      </trkpt>
      <trkpt lat="48.21068" lon="-3.09665">
        <ele>188</ele>
        <time>2016-03-03T13:50:04Z</time>
      </trkpt>
      <trkpt lat="48.21067" lon="-3.09663">
        <ele>190</ele>
        <time>2016-03-03T13:50:15Z</time>
      </trkpt>
      <trkpt lat="48.21068" lon="-3.09665">
        <ele>191</ele>
        <time>2016-03-03T13:50:46Z</time>
      </trkpt>
      <trkpt lat="48.21068" lon="-3.09667">
        <ele>193</ele>
        <time>2016-03-03T13:50:51Z</time>
      </trkpt>
      <trkpt lat="48.21067" lon="-3.09672">
        <ele>193</ele>
        <time>2016-03-03T13:50:55Z</time>
      </trkpt>
      <trkpt lat="48.21066" lon="-3.09679">
        <ele>193</ele>
        <time>2016-03-03T13:50:59Z</time>
      </trkpt>
      <trkpt lat="48.21065" lon="-3.09682">
        <ele>193</ele>
        <time>2016-03-03T13:51:02Z</time>
      </trkpt>
      <trkpt lat="48.21065" lon="-3.09687">
        <ele>193</ele>
        <time>2016-03-03T13:51:06Z</time>
      </trkpt>
      <trkpt lat="48.21066" lon="-3.09691">
        <ele>193</ele>
        <time>2016-03-03T13:51:09Z</time>
      </trkpt>
      <trkpt lat="48.21067" lon="-3.09696">
        <ele>193</ele>
        <time>2016-03-03T13:51:12Z</time>
      </trkpt>
      <trkpt lat="48.2107" lon="-3.097">
        <ele>193</ele>
        <time>2016-03-03T13:51:15Z</time>
      </trkpt>
      <trkpt lat="48.21071" lon="-3.09707">
        <ele>193</ele>
        <time>2016-03-03T13:51:18Z</time>
      </trkpt>
      <trkpt lat="48.21072" lon="-3.09713">
        <ele>193</ele>
        <time>2016-03-03T13:51:21Z</time>
      </trkpt>
      <trkpt lat="48.21072" lon="-3.09718">
        <ele>193</ele>
        <time>2016-03-03T13:51:24Z</time>
      </trkpt>
      <trkpt lat="48.21072" lon="-3.09725">
        <ele>193</ele>
        <time>2016-03-03T13:51:27Z</time>
      </trkpt>
      <trkpt lat="48.21071" lon="-3.09731">
        <ele>193</ele>
        <time>2016-03-03T13:51:30Z</time>
      </trkpt>
      <trkpt lat="48.21071" lon="-3.09736">
        <ele>193</ele>
        <time>2016-03-03T13:51:33Z</time>
      </trkpt>
      <trkpt lat="48.21072" lon="-3.09741">
        <ele>193</ele>
        <time>2016-03-03T13:51:36Z</time>
      </trkpt>
      <trkpt lat="48.21072" lon="-3.09747">
        <ele>193</ele>
        <time>2016-03-03T13:51:39Z</time>
      </trkpt>
      <trkpt lat="48.21071" lon="-3.09753">
        <ele>193</ele>
        <time>2016-03-03T13:51:42Z</time>
      </trkpt>
      <trkpt lat="48.2107" lon="-3.0976">
        <ele>193</ele>
        <time>2016-03-03T13:51:45Z</time>
      </trkpt>
      <trkpt lat="48.21071" lon="-3.09766">
        <ele>193</ele>
        <time>2016-03-03T13:51:48Z</time>
      </trkpt>
      <trkpt lat="48.21072" lon="-3.09772">
        <ele>193</ele>
        <time>2016-03-03T13:51:51Z</time>
      </trkpt>
      <trkpt lat="48.21073" lon="-3.09779">
        <ele>193</ele>
        <time>2016-03-03T13:51:54Z</time>
      </trkpt>
      <trkpt lat="48.21073" lon="-3.09785">
        <ele>192</ele>
        <time>2016-03-03T13:51:57Z</time>
      </trkpt>
      <trkpt lat="48.21074" lon="-3.09791">
        <ele>192</ele>
        <time>2016-03-03T13:52:00Z</time>
      </trkpt>
      <trkpt lat="48.21073" lon="-3.09799">
        <ele>192</ele>
        <time>2016-03-03T13:52:03Z</time>
      </trkpt>
      <trkpt lat="48.21073" lon="-3.09805">
        <ele>192</ele>
        <time>2016-03-03T13:52:06Z</time>
      </trkpt>
      <trkpt lat="48.21075" lon="-3.09811">
        <ele>192</ele>
        <time>2016-03-03T13:52:09Z</time>
      </trkpt>
      <trkpt lat="48.21075" lon="-3.09817">
        <ele>191</ele>
        <time>2016-03-03T13:52:13Z</time>
      </trkpt>
      <trkpt lat="48.21075" lon="-3.09823">
        <ele>190</ele>
        <time>2016-03-03T13:52:16Z</time>
      </trkpt>
      <trkpt lat="48.21076" lon="-3.0983">
        <ele>190</ele>
        <time>2016-03-03T13:52:19Z</time>
      </trkpt>
      <trkpt lat="48.21076" lon="-3.09836">
        <ele>190</ele>
        <time>2016-03-03T13:52:22Z</time>
      </trkpt>
      <trkpt lat="48.21075" lon="-3.09843">
        <ele>190</ele>
        <time>2016-03-03T13:52:25Z</time>
      </trkpt>
      <trkpt lat="48.21074" lon="-3.0985">
        <ele>190</ele>
        <time>2016-03-03T13:52:28Z</time>
      </trkpt>
      <trkpt lat="48.21073" lon="-3.09857">
        <ele>190</ele>
        <time>2016-03-03T13:52:31Z</time>
      </trkpt>
      <trkpt lat="48.21072" lon="-3.09864">
        <ele>190</ele>
        <time>2016-03-03T13:52:34Z</time>
      </trkpt>
      <trkpt lat="48.21071" lon="-3.0987">
        <ele>190</ele>
        <time>2016-03-03T13:52:37Z</time>
      </trkpt>
      <trkpt lat="48.21072" lon="-3.09876">
        <ele>190</ele>
        <time>2016-03-03T13:52:40Z</time>
      </trkpt>
      <trkpt lat="48.21072" lon="-3.09883">
        <ele>190</ele>
        <time>2016-03-03T13:52:43Z</time>
      </trkpt>
      <trkpt lat="48.21073" lon="-3.09891">
        <ele>190</ele>
        <time>2016-03-03T13:52:46Z</time>
      </trkpt>
      <trkpt lat="48.21074" lon="-3.09898">
        <ele>190</ele>
        <time>2016-03-03T13:52:49Z</time>
      </trkpt>
      <trkpt lat="48.21074" lon="-3.09904">
        <ele>190</ele>
        <time>2016-03-03T13:52:52Z</time>
      </trkpt>
      <trkpt lat="48.21074" lon="-3.0991">
        <ele>190</ele>
        <time>2016-03-03T13:52:55Z</time>
      </trkpt>
      <trkpt lat="48.21074" lon="-3.09918">
        <ele>190</ele>
        <time>2016-03-03T13:52:58Z</time>
      </trkpt>
      <trkpt lat="48.21075" lon="-3.09926">
        <ele>190</ele>
        <time>2016-03-03T13:53:01Z</time>
      </trkpt>
      <trkpt lat="48.21077" lon="-3.09934">
        <ele>191</ele>
        <time>2016-03-03T13:53:04Z</time>
      </trkpt>
      <trkpt lat="48.21078" lon="-3.09941">
        <ele>192</ele>
        <time>2016-03-03T13:53:07Z</time>
      </trkpt>
      <trkpt lat="48.21081" lon="-3.09947">
        <ele>192</ele>
        <time>2016-03-03T13:53:10Z</time>
      </trkpt>
      <trkpt lat="48.21081" lon="-3.09954">
        <ele>192</ele>
        <time>2016-03-03T13:53:13Z</time>
      </trkpt>
      <trkpt lat="48.21082" lon="-3.09962">
        <ele>192</ele>
        <time>2016-03-03T13:53:16Z</time>
      </trkpt>
      <trkpt lat="48.21083" lon="-3.09969">
        <ele>192</ele>
        <time>2016-03-03T13:53:19Z</time>
      </trkpt>
      <trkpt lat="48.21084" lon="-3.09976">
        <ele>192</ele>
        <time>2016-03-03T13:53:22Z</time>
      </trkpt>
      <trkpt lat="48.21087" lon="-3.09983">
        <ele>192</ele>
        <time>2016-03-03T13:53:25Z</time>
      </trkpt>
      <trkpt lat="48.21087" lon="-3.09989">
        <ele>192</ele>
        <time>2016-03-03T13:53:28Z</time>
      </trkpt>
      <trkpt lat="48.21088" lon="-3.09994">
        <ele>193</ele>
        <time>2016-03-03T13:53:31Z</time>
      </trkpt>
      <trkpt lat="48.2109" lon="-3.1">
        <ele>193</ele>
        <time>2016-03-03T13:53:34Z</time>
      </trkpt>
      <trkpt lat="48.21091" lon="-3.10008">
        <ele>193</ele>
        <time>2016-03-03T13:53:37Z</time>
      </trkpt>
      <trkpt lat="48.21091" lon="-3.10016">
        <ele>193</ele>
        <time>2016-03-03T13:53:40Z</time>
      </trkpt>
      <trkpt lat="48.21093" lon="-3.10022">
        <ele>193</ele>
        <time>2016-03-03T13:53:43Z</time>
      </trkpt>
      <trkpt lat="48.21092" lon="-3.10028">
        <ele>193</ele>
        <time>2016-03-03T13:53:46Z</time>
      </trkpt>
      <trkpt lat="48.21092" lon="-3.10035">
        <ele>193</ele>
        <time>2016-03-03T13:53:49Z</time>
      </trkpt>
      <trkpt lat="48.2109" lon="-3.10042">
        <ele>193</ele>
        <time>2016-03-03T13:53:52Z</time>
      </trkpt>
      <trkpt lat="48.21091" lon="-3.10049">
        <ele>193</ele>
        <time>2016-03-03T13:53:55Z</time>
      </trkpt>
      <trkpt lat="48.21092" lon="-3.10057">
        <ele>193</ele>
        <time>2016-03-03T13:53:58Z</time>
      </trkpt>
      <trkpt lat="48.21093" lon="-3.10065">
        <ele>193</ele>
        <time>2016-03-03T13:54:01Z</time>
      </trkpt>
      <trkpt lat="48.21093" lon="-3.10071">
        <ele>193</ele>
        <time>2016-03-03T13:54:04Z</time>
      </trkpt>
      <trkpt lat="48.21093" lon="-3.1008">
        <ele>193</ele>
        <time>2016-03-03T13:54:07Z</time>
      </trkpt>
      <trkpt lat="48.21093" lon="-3.10086">
        <ele>193</ele>
        <time>2016-03-03T13:54:10Z</time>
      </trkpt>
      <trkpt lat="48.21093" lon="-3.10092">
        <ele>193</ele>
        <time>2016-03-03T13:54:13Z</time>
      </trkpt>
      <trkpt lat="48.21094" lon="-3.10097">
        <ele>193</ele>
        <time>2016-03-03T13:54:16Z</time>
      </trkpt>
      <trkpt lat="48.21094" lon="-3.10102">
        <ele>193</ele>
        <time>2016-03-03T13:54:19Z</time>
      </trkpt>
      <trkpt lat="48.21094" lon="-3.10108">
        <ele>193</ele>
        <time>2016-03-03T13:54:23Z</time>
      </trkpt>
      <trkpt lat="48.21095" lon="-3.10112">
        <ele>193</ele>
        <time>2016-03-03T13:54:26Z</time>
      </trkpt>
      <trkpt lat="48.21096" lon="-3.10118">
        <ele>193</ele>
        <time>2016-03-03T13:54:29Z</time>
      </trkpt>
      <trkpt lat="48.21096" lon="-3.10124">
        <ele>193</ele>
        <time>2016-03-03T13:54:32Z</time>
      </trkpt>
      <trkpt lat="48.21096" lon="-3.10129">
        <ele>193</ele>
        <time>2016-03-03T13:54:35Z</time>
      </trkpt>
      <trkpt lat="48.21096" lon="-3.10135">
        <ele>193</ele>
        <time>2016-03-03T13:54:38Z</time>
      </trkpt>
      <trkpt lat="48.21096" lon="-3.1014">
        <ele>193</ele>
        <time>2016-03-03T13:54:41Z</time>
      </trkpt>
      <trkpt lat="48.21097" lon="-3.10144">
        <ele>193</ele>
        <time>2016-03-03T13:54:44Z</time>
      </trkpt>
      <trkpt lat="48.21098" lon="-3.10151">
        <ele>193</ele>
        <time>2016-03-03T13:54:47Z</time>
      </trkpt>
      <trkpt lat="48.21098" lon="-3.10157">
        <ele>193</ele>
        <time>2016-03-03T13:54:50Z</time>
      </trkpt>
      <trkpt lat="48.21098" lon="-3.10163">
        <ele>194</ele>
        <time>2016-03-03T13:54:53Z</time>
      </trkpt>
      <trkpt lat="48.21099" lon="-3.10169">
        <ele>195</ele>
        <time>2016-03-03T13:54:56Z</time>
      </trkpt>
      <trkpt lat="48.21099" lon="-3.10174">
        <ele>195</ele>
        <time>2016-03-03T13:54:59Z</time>
      </trkpt>
      <trkpt lat="48.21101" lon="-3.10181">
        <ele>195</ele>
        <time>2016-03-03T13:55:02Z</time>
      </trkpt>
      <trkpt lat="48.21102" lon="-3.10187">
        <ele>195</ele>
        <time>2016-03-03T13:55:05Z</time>
      </trkpt>
      <trkpt lat="48.21102" lon="-3.10193">
        <ele>195</ele>
        <time>2016-03-03T13:55:08Z</time>
      </trkpt>
      <trkpt lat="48.21103" lon="-3.10197">
        <ele>195</ele>
        <time>2016-03-03T13:55:11Z</time>
      </trkpt>
      <trkpt lat="48.21104" lon="-3.10202">
        <ele>195</ele>
        <time>2016-03-03T13:55:14Z</time>
      </trkpt>
      <trkpt lat="48.21105" lon="-3.10208">
        <ele>195</ele>
        <time>2016-03-03T13:55:17Z</time>
      </trkpt>
      <trkpt lat="48.21106" lon="-3.10213">
        <ele>195</ele>
        <time>2016-03-03T13:55:20Z</time>
      </trkpt>
      <trkpt lat="48.21107" lon="-3.10219">
        <ele>195</ele>
        <time>2016-03-03T13:55:23Z</time>
      </trkpt>
      <trkpt lat="48.21107" lon="-3.10224">
        <ele>195</ele>
        <time>2016-03-03T13:55:26Z</time>
      </trkpt>
      <trkpt lat="48.21108" lon="-3.10229">
        <ele>195</ele>
        <time>2016-03-03T13:55:29Z</time>
      </trkpt>
      <trkpt lat="48.21109" lon="-3.10235">
        <ele>195</ele>
        <time>2016-03-03T13:55:32Z</time>
      </trkpt>
      <trkpt lat="48.2111" lon="-3.10241">
        <ele>195</ele>
        <time>2016-03-03T13:55:35Z</time>
      </trkpt>
      <trkpt lat="48.2111" lon="-3.10246">
        <ele>195</ele>
        <time>2016-03-03T13:55:38Z</time>
      </trkpt>
      <trkpt lat="48.21111" lon="-3.10252">
        <ele>195</ele>
        <time>2016-03-03T13:55:41Z</time>
      </trkpt>
      <trkpt lat="48.21112" lon="-3.10258">
        <ele>195</ele>
        <time>2016-03-03T13:55:44Z</time>
      </trkpt>
      <trkpt lat="48.21114" lon="-3.10263">
        <ele>195</ele>
        <time>2016-03-03T13:55:47Z</time>
      </trkpt>
      <trkpt lat="48.21115" lon="-3.10269">
        <ele>195</ele>
        <time>2016-03-03T13:55:50Z</time>
      </trkpt>
      <trkpt lat="48.21117" lon="-3.10274">
        <ele>195</ele>
        <time>2016-03-03T13:55:53Z</time>
      </trkpt>
      <trkpt lat="48.21118" lon="-3.10279">
        <ele>195</ele>
        <time>2016-03-03T13:55:56Z</time>
      </trkpt>
      <trkpt lat="48.21119" lon="-3.10285">
        <ele>195</ele>
        <time>2016-03-03T13:55:59Z</time>
      </trkpt>
      <trkpt lat="48.21119" lon="-3.10289">
        <ele>195</ele>
        <time>2016-03-03T13:56:02Z</time>
      </trkpt>
      <trkpt lat="48.2112" lon="-3.10295">
        <ele>194</ele>
        <time>2016-03-03T13:56:05Z</time>
      </trkpt>
      <trkpt lat="48.21121" lon="-3.103">
        <ele>193</ele>
        <time>2016-03-03T13:56:08Z</time>
      </trkpt>
      <trkpt lat="48.21122" lon="-3.10306">
        <ele>191</ele>
        <time>2016-03-03T13:56:11Z</time>
      </trkpt>
      <trkpt lat="48.21123" lon="-3.10314">
        <ele>190</ele>
        <time>2016-03-03T13:56:15Z</time>
      </trkpt>
      <trkpt lat="48.21124" lon="-3.10319">
        <ele>189</ele>
        <time>2016-03-03T13:56:18Z</time>
      </trkpt>
      <trkpt lat="48.21126" lon="-3.10326">
        <ele>188</ele>
        <time>2016-03-03T13:56:22Z</time>
      </trkpt>
      <trkpt lat="48.21127" lon="-3.10332">
        <ele>187</ele>
        <time>2016-03-03T13:56:25Z</time>
      </trkpt>
      <trkpt lat="48.21127" lon="-3.10338">
        <ele>186</ele>
        <time>2016-03-03T13:56:28Z</time>
      </trkpt>
      <trkpt lat="48.21128" lon="-3.10344">
        <ele>186</ele>
        <time>2016-03-03T13:56:31Z</time>
      </trkpt>
      <trkpt lat="48.21128" lon="-3.10351">
        <ele>186</ele>
        <time>2016-03-03T13:56:34Z</time>
      </trkpt>
      <trkpt lat="48.21129" lon="-3.10357">
        <ele>186</ele>
        <time>2016-03-03T13:56:37Z</time>
      </trkpt>
      <trkpt lat="48.2113" lon="-3.10364">
        <ele>186</ele>
        <time>2016-03-03T13:56:40Z</time>
      </trkpt>
      <trkpt lat="48.2113" lon="-3.10369">
        <ele>186</ele>
        <time>2016-03-03T13:56:43Z</time>
      </trkpt>
      <trkpt lat="48.2113" lon="-3.10374">
        <ele>186</ele>
        <time>2016-03-03T13:56:46Z</time>
      </trkpt>
      <trkpt lat="48.21132" lon="-3.10381">
        <ele>186</ele>
        <time>2016-03-03T13:56:50Z</time>
      </trkpt>
      <trkpt lat="48.21132" lon="-3.10386">
        <ele>186</ele>
        <time>2016-03-03T13:56:53Z</time>
      </trkpt>
      <trkpt lat="48.21133" lon="-3.10392">
        <ele>186</ele>
        <time>2016-03-03T13:56:56Z</time>
      </trkpt>
      <trkpt lat="48.21133" lon="-3.10398">
        <ele>186</ele>
        <time>2016-03-03T13:57:00Z</time>
      </trkpt>
      <trkpt lat="48.21135" lon="-3.10403">
        <ele>186</ele>
        <time>2016-03-03T13:57:04Z</time>
      </trkpt>
      <trkpt lat="48.21137" lon="-3.10408">
        <ele>186</ele>
        <time>2016-03-03T13:57:08Z</time>
      </trkpt>
      <trkpt lat="48.21139" lon="-3.10412">
        <ele>186</ele>
        <time>2016-03-03T13:57:11Z</time>
      </trkpt>
      <trkpt lat="48.21143" lon="-3.10418">
        <ele>186</ele>
        <time>2016-03-03T13:57:15Z</time>
      </trkpt>
      <trkpt lat="48.21144" lon="-3.10424">
        <ele>186</ele>
        <time>2016-03-03T13:57:19Z</time>
      </trkpt>
      <trkpt lat="48.21144" lon="-3.1043">
        <ele>186</ele>
        <time>2016-03-03T13:57:22Z</time>
      </trkpt>
      <trkpt lat="48.21145" lon="-3.10435">
        <ele>186</ele>
        <time>2016-03-03T13:57:25Z</time>
      </trkpt>
      <trkpt lat="48.21146" lon="-3.1044">
        <ele>186</ele>
        <time>2016-03-03T13:57:28Z</time>
      </trkpt>
      <trkpt lat="48.21148" lon="-3.10444">
        <ele>186</ele>
        <time>2016-03-03T13:57:31Z</time>
      </trkpt>
      <trkpt lat="48.2115" lon="-3.10449">
        <ele>186</ele>
        <time>2016-03-03T13:57:35Z</time>
      </trkpt>
      <trkpt lat="48.21151" lon="-3.10451">
        <ele>187</ele>
        <time>2016-03-03T13:57:38Z</time>
      </trkpt>
      <trkpt lat="48.21152" lon="-3.10455">
        <ele>188</ele>
        <time>2016-03-03T13:57:41Z</time>
      </trkpt>
      <trkpt lat="48.21155" lon="-3.10459">
        <ele>189</ele>
        <time>2016-03-03T13:57:45Z</time>
      </trkpt>
      <trkpt lat="48.21157" lon="-3.10465">
        <ele>189</ele>
        <time>2016-03-03T13:57:48Z</time>
      </trkpt>
      <trkpt lat="48.21159" lon="-3.10469">
        <ele>189</ele>
        <time>2016-03-03T13:57:51Z</time>
      </trkpt>
      <trkpt lat="48.21161" lon="-3.10474">
        <ele>189</ele>
        <time>2016-03-03T13:57:54Z</time>
      </trkpt>
      <trkpt lat="48.21162" lon="-3.10478">
        <ele>189</ele>
        <time>2016-03-03T13:57:57Z</time>
      </trkpt>
      <trkpt lat="48.21164" lon="-3.10483">
        <ele>189</ele>
        <time>2016-03-03T13:58:00Z</time>
      </trkpt>
      <trkpt lat="48.21167" lon="-3.10489">
        <ele>189</ele>
        <time>2016-03-03T13:58:04Z</time>
      </trkpt>
      <trkpt lat="48.2117" lon="-3.10493">
        <ele>189</ele>
        <time>2016-03-03T13:58:08Z</time>
      </trkpt>
      <trkpt lat="48.21172" lon="-3.10498">
        <ele>189</ele>
        <time>2016-03-03T13:58:11Z</time>
      </trkpt>
      <trkpt lat="48.21173" lon="-3.10503">
        <ele>189</ele>
        <time>2016-03-03T13:58:14Z</time>
      </trkpt>
      <trkpt lat="48.21175" lon="-3.10509">
        <ele>189</ele>
        <time>2016-03-03T13:58:18Z</time>
      </trkpt>
      <trkpt lat="48.21177" lon="-3.10513">
        <ele>189</ele>
        <time>2016-03-03T13:58:21Z</time>
      </trkpt>
      <trkpt lat="48.21178" lon="-3.1052">
        <ele>189</ele>
        <time>2016-03-03T13:58:25Z</time>
      </trkpt>
      <trkpt lat="48.2118" lon="-3.10526">
        <ele>189</ele>
        <time>2016-03-03T13:58:29Z</time>
      </trkpt>
      <trkpt lat="48.21182" lon="-3.1053">
        <ele>189</ele>
        <time>2016-03-03T13:58:33Z</time>
      </trkpt>
      <trkpt lat="48.21184" lon="-3.10534">
        <ele>189</ele>
        <time>2016-03-03T13:58:37Z</time>
      </trkpt>
      <trkpt lat="48.21185" lon="-3.1054">
        <ele>189</ele>
        <time>2016-03-03T13:58:41Z</time>
      </trkpt>
      <trkpt lat="48.21187" lon="-3.10544">
        <ele>188</ele>
        <time>2016-03-03T13:58:44Z</time>
      </trkpt>
      <trkpt lat="48.21188" lon="-3.10549">
        <ele>188</ele>
        <time>2016-03-03T13:58:47Z</time>
      </trkpt>
      <trkpt lat="48.2119" lon="-3.10554">
        <ele>188</ele>
        <time>2016-03-03T13:58:50Z</time>
      </trkpt>
      <trkpt lat="48.21193" lon="-3.10559">
        <ele>188</ele>
        <time>2016-03-03T13:58:54Z</time>
      </trkpt>
      <trkpt lat="48.21195" lon="-3.10564">
        <ele>188</ele>
        <time>2016-03-03T13:58:57Z</time>
      </trkpt>
      <trkpt lat="48.21198" lon="-3.10569">
        <ele>188</ele>
        <time>2016-03-03T13:59:00Z</time>
      </trkpt>
      <trkpt lat="48.21201" lon="-3.10576">
        <ele>188</ele>
        <time>2016-03-03T13:59:04Z</time>
      </trkpt>
      <trkpt lat="48.21205" lon="-3.10582">
        <ele>188</ele>
        <time>2016-03-03T13:59:08Z</time>
      </trkpt>
      <trkpt lat="48.21208" lon="-3.10586">
        <ele>188</ele>
        <time>2016-03-03T13:59:11Z</time>
      </trkpt>
      <trkpt lat="48.21212" lon="-3.1059">
        <ele>188</ele>
        <time>2016-03-03T13:59:15Z</time>
      </trkpt>
      <trkpt lat="48.21215" lon="-3.10592">
        <ele>188</ele>
        <time>2016-03-03T13:59:18Z</time>
      </trkpt>
      <trkpt lat="48.21219" lon="-3.10595">
        <ele>188</ele>
        <time>2016-03-03T13:59:22Z</time>
      </trkpt>
      <trkpt lat="48.21222" lon="-3.10596">
        <ele>188</ele>
        <time>2016-03-03T13:59:25Z</time>
      </trkpt>
      <trkpt lat="48.21225" lon="-3.10597">
        <ele>188</ele>
        <time>2016-03-03T13:59:28Z</time>
      </trkpt>
      <trkpt lat="48.21228" lon="-3.106">
        <ele>188</ele>
        <time>2016-03-03T13:59:31Z</time>
      </trkpt>
      <trkpt lat="48.21232" lon="-3.10601">
        <ele>188</ele>
        <time>2016-03-03T13:59:35Z</time>
      </trkpt>
      <trkpt lat="48.21235" lon="-3.10604">
        <ele>188</ele>
        <time>2016-03-03T13:59:44Z</time>
      </trkpt>
      <trkpt lat="48.21238" lon="-3.10606">
        <ele>188</ele>
        <time>2016-03-03T13:59:48Z</time>
      </trkpt>
      <trkpt lat="48.21241" lon="-3.10608">
        <ele>188</ele>
        <time>2016-03-03T13:59:54Z</time>
      </trkpt>
      <trkpt lat="48.21244" lon="-3.10609">
        <ele>188</ele>
        <time>2016-03-03T13:59:57Z</time>
      </trkpt>
      <trkpt lat="48.21248" lon="-3.10611">
        <ele>188</ele>
        <time>2016-03-03T14:00:01Z</time>
      </trkpt>
      <trkpt lat="48.21252" lon="-3.10613">
        <ele>188</ele>
        <time>2016-03-03T14:00:04Z</time>
      </trkpt>
      <trkpt lat="48.21255" lon="-3.10614">
        <ele>188</ele>
        <time>2016-03-03T14:00:07Z</time>
      </trkpt>
      <trkpt lat="48.21259" lon="-3.10616">
        <ele>188</ele>
        <time>2016-03-03T14:00:10Z</time>
      </trkpt>
      <trkpt lat="48.21263" lon="-3.10617">
        <ele>188</ele>
        <time>2016-03-03T14:00:13Z</time>
      </trkpt>
      <trkpt lat="48.21266" lon="-3.10619">
        <ele>188</ele>
        <time>2016-03-03T14:00:16Z</time>
      </trkpt>
      <trkpt lat="48.2127" lon="-3.10621">
        <ele>188</ele>
        <time>2016-03-03T14:00:19Z</time>
      </trkpt>
      <trkpt lat="48.21273" lon="-3.10623">
        <ele>188</ele>
        <time>2016-03-03T14:00:22Z</time>
      </trkpt>
      <trkpt lat="48.21278" lon="-3.10625">
        <ele>188</ele>
        <time>2016-03-03T14:00:26Z</time>
      </trkpt>
      <trkpt lat="48.21282" lon="-3.10626">
        <ele>188</ele>
        <time>2016-03-03T14:00:29Z</time>
      </trkpt>
      <trkpt lat="48.21286" lon="-3.10628">
        <ele>188</ele>
        <time>2016-03-03T14:00:33Z</time>
      </trkpt>
      <trkpt lat="48.2129" lon="-3.10629">
        <ele>188</ele>
        <time>2016-03-03T14:00:36Z</time>
      </trkpt>
      <trkpt lat="48.21293" lon="-3.1063">
        <ele>188</ele>
        <time>2016-03-03T14:00:42Z</time>
      </trkpt>
      <trkpt lat="48.21296" lon="-3.10632">
        <ele>188</ele>
        <time>2016-03-03T14:00:46Z</time>
      </trkpt>
      <trkpt lat="48.213" lon="-3.10633">
        <ele>188</ele>
        <time>2016-03-03T14:00:49Z</time>
      </trkpt>
      <trkpt lat="48.21304" lon="-3.10634">
        <ele>188</ele>
        <time>2016-03-03T14:00:53Z</time>
      </trkpt>
      <trkpt lat="48.21307" lon="-3.10636">
        <ele>188</ele>
        <time>2016-03-03T14:00:56Z</time>
      </trkpt>
      <trkpt lat="48.21311" lon="-3.10637">
        <ele>188</ele>
        <time>2016-03-03T14:00:59Z</time>
      </trkpt>
      <trkpt lat="48.21314" lon="-3.10638">
        <ele>188</ele>
        <time>2016-03-03T14:01:02Z</time>
      </trkpt>
      <trkpt lat="48.21318" lon="-3.10639">
        <ele>187</ele>
        <time>2016-03-03T14:01:05Z</time>
      </trkpt>
      <trkpt lat="48.21321" lon="-3.1064">
        <ele>187</ele>
        <time>2016-03-03T14:01:08Z</time>
      </trkpt>
      <trkpt lat="48.21325" lon="-3.10641">
        <ele>187</ele>
        <time>2016-03-03T14:01:11Z</time>
      </trkpt>
      <trkpt lat="48.21328" lon="-3.10642">
        <ele>186</ele>
        <time>2016-03-03T14:01:14Z</time>
      </trkpt>
      <trkpt lat="48.21332" lon="-3.10642">
        <ele>186</ele>
        <time>2016-03-03T14:01:17Z</time>
      </trkpt>
      <trkpt lat="48.21336" lon="-3.10643">
        <ele>186</ele>
        <time>2016-03-03T14:01:21Z</time>
      </trkpt>
      <trkpt lat="48.2134" lon="-3.10644">
        <ele>186</ele>
        <time>2016-03-03T14:01:25Z</time>
      </trkpt>
      <trkpt lat="48.21344" lon="-3.10646">
        <ele>186</ele>
        <time>2016-03-03T14:01:29Z</time>
      </trkpt>
      <trkpt lat="48.21349" lon="-3.10647">
        <ele>186</ele>
        <time>2016-03-03T14:01:33Z</time>
      </trkpt>
      <trkpt lat="48.21352" lon="-3.10649">
        <ele>185</ele>
        <time>2016-03-03T14:01:36Z</time>
      </trkpt>
      <trkpt lat="48.21356" lon="-3.10653">
        <ele>185</ele>
        <time>2016-03-03T14:01:39Z</time>
      </trkpt>
      <trkpt lat="48.21357" lon="-3.10659">
        <ele>185</ele>
        <time>2016-03-03T14:01:42Z</time>
      </trkpt>
      <trkpt lat="48.21358" lon="-3.10665">
        <ele>185</ele>
        <time>2016-03-03T14:01:45Z</time>
      </trkpt>
      <trkpt lat="48.21357" lon="-3.1067">
        <ele>184</ele>
        <time>2016-03-03T14:01:48Z</time>
      </trkpt>
      <trkpt lat="48.21357" lon="-3.10672">
        <ele>184</ele>
        <time>2016-03-03T14:01:52Z</time>
      </trkpt>
      <trkpt lat="48.21356" lon="-3.10678">
        <ele>184</ele>
        <time>2016-03-03T14:01:55Z</time>
      </trkpt>
      <trkpt lat="48.21354" lon="-3.10682">
        <ele>184</ele>
        <time>2016-03-03T14:01:58Z</time>
      </trkpt>
      <trkpt lat="48.21352" lon="-3.10687">
        <ele>183</ele>
        <time>2016-03-03T14:02:01Z</time>
      </trkpt>
      <trkpt lat="48.21351" lon="-3.10692">
        <ele>183</ele>
        <time>2016-03-03T14:02:04Z</time>
      </trkpt>
      <trkpt lat="48.21349" lon="-3.10698">
        <ele>183</ele>
        <time>2016-03-03T14:02:07Z</time>
      </trkpt>
      <trkpt lat="48.21347" lon="-3.10703">
        <ele>183</ele>
        <time>2016-03-03T14:02:10Z</time>
      </trkpt>
      <trkpt lat="48.21346" lon="-3.10709">
        <ele>182</ele>
        <time>2016-03-03T14:02:13Z</time>
      </trkpt>
      <trkpt lat="48.21345" lon="-3.10715">
        <ele>182</ele>
        <time>2016-03-03T14:02:16Z</time>
      </trkpt>
      <trkpt lat="48.21344" lon="-3.10721">
        <ele>182</ele>
        <time>2016-03-03T14:02:19Z</time>
      </trkpt>
      <trkpt lat="48.21342" lon="-3.10726">
        <ele>182</ele>
        <time>2016-03-03T14:02:22Z</time>
      </trkpt>
      <trkpt lat="48.21341" lon="-3.10732">
        <ele>182</ele>
        <time>2016-03-03T14:02:25Z</time>
      </trkpt>
      <trkpt lat="48.21341" lon="-3.10738">
        <ele>181</ele>
        <time>2016-03-03T14:02:28Z</time>
      </trkpt>
      <trkpt lat="48.2134" lon="-3.10744">
        <ele>181</ele>
        <time>2016-03-03T14:02:31Z</time>
      </trkpt>
      <trkpt lat="48.21339" lon="-3.10751">
        <ele>181</ele>
        <time>2016-03-03T14:02:34Z</time>
      </trkpt>
      <trkpt lat="48.21339" lon="-3.10757">
        <ele>181</ele>
        <time>2016-03-03T14:02:37Z</time>
      </trkpt>
      <trkpt lat="48.21338" lon="-3.10763">
        <ele>181</ele>
        <time>2016-03-03T14:02:40Z</time>
      </trkpt>
      <trkpt lat="48.21338" lon="-3.10769">
        <ele>181</ele>
        <time>2016-03-03T14:02:43Z</time>
      </trkpt>
      <trkpt lat="48.21337" lon="-3.10775">
        <ele>180</ele>
        <time>2016-03-03T14:02:46Z</time>
      </trkpt>
      <trkpt lat="48.21336" lon="-3.10781">
        <ele>180</ele>
        <time>2016-03-03T14:02:49Z</time>
      </trkpt>
      <trkpt lat="48.21336" lon="-3.10787">
        <ele>180</ele>
        <time>2016-03-03T14:02:52Z</time>
      </trkpt>
      <trkpt lat="48.21335" lon="-3.10793">
        <ele>180</ele>
        <time>2016-03-03T14:02:55Z</time>
      </trkpt>
      <trkpt lat="48.21335" lon="-3.10798">
        <ele>180</ele>
        <time>2016-03-03T14:02:58Z</time>
      </trkpt>
      <trkpt lat="48.21334" lon="-3.10804">
        <ele>180</ele>
        <time>2016-03-03T14:03:01Z</time>
      </trkpt>
      <trkpt lat="48.21333" lon="-3.1081">
        <ele>180</ele>
        <time>2016-03-03T14:03:04Z</time>
      </trkpt>
      <trkpt lat="48.21333" lon="-3.10816">
        <ele>179</ele>
        <time>2016-03-03T14:03:07Z</time>
      </trkpt>
      <trkpt lat="48.21333" lon="-3.10822">
        <ele>179</ele>
        <time>2016-03-03T14:03:10Z</time>
      </trkpt>
      <trkpt lat="48.21332" lon="-3.10828">
        <ele>179</ele>
        <time>2016-03-03T14:03:13Z</time>
      </trkpt>
      <trkpt lat="48.21332" lon="-3.10833">
        <ele>179</ele>
        <time>2016-03-03T14:03:16Z</time>
      </trkpt>
      <trkpt lat="48.21332" lon="-3.10839">
        <ele>179</ele>
        <time>2016-03-03T14:03:19Z</time>
      </trkpt>
      <trkpt lat="48.21332" lon="-3.10844">
        <ele>179</ele>
        <time>2016-03-03T14:03:22Z</time>
      </trkpt>
      <trkpt lat="48.21332" lon="-3.10851">
        <ele>178</ele>
        <time>2016-03-03T14:03:26Z</time>
      </trkpt>
      <trkpt lat="48.21331" lon="-3.10857">
        <ele>178</ele>
        <time>2016-03-03T14:03:29Z</time>
      </trkpt>
      <trkpt lat="48.21331" lon="-3.10862">
        <ele>178</ele>
        <time>2016-03-03T14:03:32Z</time>
      </trkpt>
      <trkpt lat="48.2133" lon="-3.10867">
        <ele>178</ele>
        <time>2016-03-03T14:03:35Z</time>
      </trkpt>
      <trkpt lat="48.21328" lon="-3.10874">
        <ele>177</ele>
        <time>2016-03-03T14:03:39Z</time>
      </trkpt>
      <trkpt lat="48.21327" lon="-3.10878">
        <ele>177</ele>
        <time>2016-03-03T14:03:42Z</time>
      </trkpt>
      <trkpt lat="48.21327" lon="-3.10881">
        <ele>177</ele>
        <time>2016-03-03T14:04:00Z</time>
      </trkpt>
      <trkpt lat="48.21326" lon="-3.10885">
        <ele>177</ele>
        <time>2016-03-03T14:04:03Z</time>
      </trkpt>
      <trkpt lat="48.21326" lon="-3.1089">
        <ele>177</ele>
        <time>2016-03-03T14:04:06Z</time>
      </trkpt>
      <trkpt lat="48.21327" lon="-3.10894">
        <ele>177</ele>
        <time>2016-03-03T14:04:09Z</time>
      </trkpt>
      <trkpt lat="48.21327" lon="-3.10896">
        <ele>177</ele>
        <time>2016-03-03T14:04:12Z</time>
      </trkpt>
      <trkpt lat="48.2133" lon="-3.109">
        <ele>177</ele>
        <time>2016-03-03T14:04:16Z</time>
      </trkpt>
      <trkpt lat="48.21333" lon="-3.10904">
        <ele>176</ele>
        <time>2016-03-03T14:04:20Z</time>
      </trkpt>
      <trkpt lat="48.21336" lon="-3.10908">
        <ele>175</ele>
        <time>2016-03-03T14:04:24Z</time>
      </trkpt>
      <trkpt lat="48.21339" lon="-3.10912">
        <ele>175</ele>
        <time>2016-03-03T14:04:28Z</time>
      </trkpt>
      <trkpt lat="48.21342" lon="-3.10916">
        <ele>174</ele>
        <time>2016-03-03T14:04:32Z</time>
      </trkpt>
      <trkpt lat="48.21347" lon="-3.10921">
        <ele>174</ele>
        <time>2016-03-03T14:04:36Z</time>
      </trkpt>
      <trkpt lat="48.2135" lon="-3.10925">
        <ele>174</ele>
        <time>2016-03-03T14:04:40Z</time>
      </trkpt>
      <trkpt lat="48.21354" lon="-3.10929">
        <ele>174</ele>
        <time>2016-03-03T14:04:44Z</time>
      </trkpt>
      <trkpt lat="48.21357" lon="-3.10933">
        <ele>174</ele>
        <time>2016-03-03T14:04:48Z</time>
      </trkpt>
      <trkpt lat="48.21361" lon="-3.10936">
        <ele>174</ele>
        <time>2016-03-03T14:04:51Z</time>
      </trkpt>
      <trkpt lat="48.21365" lon="-3.10941">
        <ele>174</ele>
        <time>2016-03-03T14:04:55Z</time>
      </trkpt>
      <trkpt lat="48.21368" lon="-3.10945">
        <ele>174</ele>
        <time>2016-03-03T14:04:59Z</time>
      </trkpt>
      <trkpt lat="48.21369" lon="-3.10947">
        <ele>174</ele>
        <time>2016-03-03T14:05:02Z</time>
      </trkpt>
      <trkpt lat="48.21371" lon="-3.10952">
        <ele>174</ele>
        <time>2016-03-03T14:05:06Z</time>
      </trkpt>
      <trkpt lat="48.21374" lon="-3.10957">
        <ele>174</ele>
        <time>2016-03-03T14:05:10Z</time>
      </trkpt>
      <trkpt lat="48.21377" lon="-3.10961">
        <ele>173</ele>
        <time>2016-03-03T14:05:14Z</time>
      </trkpt>
      <trkpt lat="48.21379" lon="-3.10966">
        <ele>173</ele>
        <time>2016-03-03T14:05:18Z</time>
      </trkpt>
      <trkpt lat="48.21381" lon="-3.1097">
        <ele>172</ele>
        <time>2016-03-03T14:05:22Z</time>
      </trkpt>
      <trkpt lat="48.21383" lon="-3.10976">
        <ele>172</ele>
        <time>2016-03-03T14:05:26Z</time>
      </trkpt>
      <trkpt lat="48.21386" lon="-3.10982">
        <ele>172</ele>
        <time>2016-03-03T14:05:30Z</time>
      </trkpt>
      <trkpt lat="48.21388" lon="-3.10987">
        <ele>172</ele>
        <time>2016-03-03T14:05:34Z</time>
      </trkpt>
      <trkpt lat="48.2139" lon="-3.10993">
        <ele>171</ele>
        <time>2016-03-03T14:05:38Z</time>
      </trkpt>
      <trkpt lat="48.21392" lon="-3.10998">
        <ele>171</ele>
        <time>2016-03-03T14:05:42Z</time>
      </trkpt>
      <trkpt lat="48.21395" lon="-3.11002">
        <ele>171</ele>
        <time>2016-03-03T14:05:45Z</time>
      </trkpt>
      <trkpt lat="48.21398" lon="-3.11006">
        <ele>171</ele>
        <time>2016-03-03T14:05:48Z</time>
      </trkpt>
      <trkpt lat="48.21401" lon="-3.11009">
        <ele>171</ele>
        <time>2016-03-03T14:05:51Z</time>
      </trkpt>
      <trkpt lat="48.21404" lon="-3.11015">
        <ele>171</ele>
        <time>2016-03-03T14:05:55Z</time>
      </trkpt>
      <trkpt lat="48.21407" lon="-3.1102">
        <ele>171</ele>
        <time>2016-03-03T14:05:59Z</time>
      </trkpt>
      <trkpt lat="48.2141" lon="-3.11026">
        <ele>171</ele>
        <time>2016-03-03T14:06:03Z</time>
      </trkpt>
      <trkpt lat="48.21413" lon="-3.11032">
        <ele>171</ele>
        <time>2016-03-03T14:06:07Z</time>
      </trkpt>
      <trkpt lat="48.21416" lon="-3.11036">
        <ele>171</ele>
        <time>2016-03-03T14:06:10Z</time>
      </trkpt>
      <trkpt lat="48.21419" lon="-3.1104">
        <ele>171</ele>
        <time>2016-03-03T14:06:13Z</time>
      </trkpt>
      <trkpt lat="48.21421" lon="-3.11044">
        <ele>171</ele>
        <time>2016-03-03T14:06:17Z</time>
      </trkpt>
      <trkpt lat="48.21423" lon="-3.11049">
        <ele>171</ele>
        <time>2016-03-03T14:06:21Z</time>
      </trkpt>
      <trkpt lat="48.21426" lon="-3.11055">
        <ele>171</ele>
        <time>2016-03-03T14:06:25Z</time>
      </trkpt>
      <trkpt lat="48.21428" lon="-3.1106">
        <ele>171</ele>
        <time>2016-03-03T14:06:28Z</time>
      </trkpt>
      <trkpt lat="48.21431" lon="-3.11065">
        <ele>171</ele>
        <time>2016-03-03T14:06:31Z</time>
      </trkpt>
      <trkpt lat="48.21434" lon="-3.1107">
        <ele>171</ele>
        <time>2016-03-03T14:06:35Z</time>
      </trkpt>
      <trkpt lat="48.21436" lon="-3.11074">
        <ele>170</ele>
        <time>2016-03-03T14:06:38Z</time>
      </trkpt>
      <trkpt lat="48.21438" lon="-3.11079">
        <ele>169</ele>
        <time>2016-03-03T14:06:41Z</time>
      </trkpt>
      <trkpt lat="48.2144" lon="-3.11085">
        <ele>167</ele>
        <time>2016-03-03T14:06:45Z</time>
      </trkpt>
      <trkpt lat="48.21444" lon="-3.11089">
        <ele>167</ele>
        <time>2016-03-03T14:06:48Z</time>
      </trkpt>
      <trkpt lat="48.21447" lon="-3.11093">
        <ele>167</ele>
        <time>2016-03-03T14:06:52Z</time>
      </trkpt>
      <trkpt lat="48.2145" lon="-3.11098">
        <ele>167</ele>
        <time>2016-03-03T14:06:56Z</time>
      </trkpt>
      <trkpt lat="48.21453" lon="-3.11103">
        <ele>167</ele>
        <time>2016-03-03T14:06:59Z</time>
      </trkpt>
      <trkpt lat="48.21456" lon="-3.11109">
        <ele>167</ele>
        <time>2016-03-03T14:07:03Z</time>
      </trkpt>
      <trkpt lat="48.21458" lon="-3.11114">
        <ele>167</ele>
        <time>2016-03-03T14:07:07Z</time>
      </trkpt>
      <trkpt lat="48.21461" lon="-3.1112">
        <ele>167</ele>
        <time>2016-03-03T14:07:11Z</time>
      </trkpt>
      <trkpt lat="48.21463" lon="-3.11124">
        <ele>167</ele>
        <time>2016-03-03T14:07:14Z</time>
      </trkpt>
      <trkpt lat="48.21465" lon="-3.11129">
        <ele>166</ele>
        <time>2016-03-03T14:07:17Z</time>
      </trkpt>
      <trkpt lat="48.21468" lon="-3.11134">
        <ele>166</ele>
        <time>2016-03-03T14:07:20Z</time>
      </trkpt>
      <trkpt lat="48.21472" lon="-3.11139">
        <ele>166</ele>
        <time>2016-03-03T14:07:24Z</time>
      </trkpt>
      <trkpt lat="48.21475" lon="-3.11145">
        <ele>166</ele>
        <time>2016-03-03T14:07:28Z</time>
      </trkpt>
      <trkpt lat="48.21477" lon="-3.1115">
        <ele>166</ele>
        <time>2016-03-03T14:07:31Z</time>
      </trkpt>
      <trkpt lat="48.21479" lon="-3.11154">
        <ele>166</ele>
        <time>2016-03-03T14:07:34Z</time>
      </trkpt>
      <trkpt lat="48.21481" lon="-3.11159">
        <ele>166</ele>
        <time>2016-03-03T14:07:37Z</time>
      </trkpt>
      <trkpt lat="48.21483" lon="-3.11165">
        <ele>166</ele>
        <time>2016-03-03T14:07:40Z</time>
      </trkpt>
      <trkpt lat="48.21484" lon="-3.1117">
        <ele>166</ele>
        <time>2016-03-03T14:07:43Z</time>
      </trkpt>
      <trkpt lat="48.21487" lon="-3.11175">
        <ele>166</ele>
        <time>2016-03-03T14:07:46Z</time>
      </trkpt>
      <trkpt lat="48.21488" lon="-3.1118">
        <ele>166</ele>
        <time>2016-03-03T14:07:50Z</time>
      </trkpt>
      <trkpt lat="48.21489" lon="-3.11183">
        <ele>166</ele>
        <time>2016-03-03T14:07:53Z</time>
      </trkpt>
      <trkpt lat="48.21491" lon="-3.11189">
        <ele>166</ele>
        <time>2016-03-03T14:07:56Z</time>
      </trkpt>
      <trkpt lat="48.21492" lon="-3.11194">
        <ele>166</ele>
        <time>2016-03-03T14:07:59Z</time>
      </trkpt>
      <trkpt lat="48.21494" lon="-3.112">
        <ele>166</ele>
        <time>2016-03-03T14:08:02Z</time>
      </trkpt>
      <trkpt lat="48.21494" lon="-3.11206">
        <ele>166</ele>
        <time>2016-03-03T14:08:05Z</time>
      </trkpt>
      <trkpt lat="48.21495" lon="-3.11211">
        <ele>166</ele>
        <time>2016-03-03T14:08:08Z</time>
      </trkpt>
      <trkpt lat="48.21496" lon="-3.11217">
        <ele>166</ele>
        <time>2016-03-03T14:08:11Z</time>
      </trkpt>
      <trkpt lat="48.21497" lon="-3.11222">
        <ele>166</ele>
        <time>2016-03-03T14:08:14Z</time>
      </trkpt>
      <trkpt lat="48.21499" lon="-3.11228">
        <ele>166</ele>
        <time>2016-03-03T14:08:17Z</time>
      </trkpt>
      <trkpt lat="48.21499" lon="-3.11234">
        <ele>166</ele>
        <time>2016-03-03T14:08:20Z</time>
      </trkpt>
      <trkpt lat="48.215" lon="-3.11237">
        <ele>166</ele>
        <time>2016-03-03T14:08:23Z</time>
      </trkpt>
      <trkpt lat="48.21501" lon="-3.11242">
        <ele>166</ele>
        <time>2016-03-03T14:08:26Z</time>
      </trkpt>
      <trkpt lat="48.21501" lon="-3.11247">
        <ele>166</ele>
        <time>2016-03-03T14:08:29Z</time>
      </trkpt>
      <trkpt lat="48.21502" lon="-3.11252">
        <ele>166</ele>
        <time>2016-03-03T14:08:32Z</time>
      </trkpt>
      <trkpt lat="48.21502" lon="-3.11257">
        <ele>166</ele>
        <time>2016-03-03T14:08:35Z</time>
      </trkpt>
      <trkpt lat="48.21503" lon="-3.11262">
        <ele>166</ele>
        <time>2016-03-03T14:08:38Z</time>
      </trkpt>
      <trkpt lat="48.21503" lon="-3.11268">
        <ele>166</ele>
        <time>2016-03-03T14:08:41Z</time>
      </trkpt>
      <trkpt lat="48.21504" lon="-3.11274">
        <ele>166</ele>
        <time>2016-03-03T14:08:44Z</time>
      </trkpt>
      <trkpt lat="48.21504" lon="-3.11278">
        <ele>166</ele>
        <time>2016-03-03T14:08:47Z</time>
      </trkpt>
      <trkpt lat="48.21505" lon="-3.11283">
        <ele>166</ele>
        <time>2016-03-03T14:08:50Z</time>
      </trkpt>
      <trkpt lat="48.21505" lon="-3.11289">
        <ele>166</ele>
        <time>2016-03-03T14:08:53Z</time>
      </trkpt>
      <trkpt lat="48.21505" lon="-3.11295">
        <ele>166</ele>
        <time>2016-03-03T14:08:56Z</time>
      </trkpt>
      <trkpt lat="48.21505" lon="-3.113">
        <ele>166</ele>
        <time>2016-03-03T14:08:59Z</time>
      </trkpt>
      <trkpt lat="48.21506" lon="-3.11306">
        <ele>166</ele>
        <time>2016-03-03T14:09:02Z</time>
      </trkpt>
      <trkpt lat="48.21506" lon="-3.11311">
        <ele>165</ele>
        <time>2016-03-03T14:09:05Z</time>
      </trkpt>
      <trkpt lat="48.21506" lon="-3.11317">
        <ele>165</ele>
        <time>2016-03-03T14:09:08Z</time>
      </trkpt>
      <trkpt lat="48.21507" lon="-3.11322">
        <ele>164</ele>
        <time>2016-03-03T14:09:11Z</time>
      </trkpt>
      <trkpt lat="48.21507" lon="-3.11328">
        <ele>164</ele>
        <time>2016-03-03T14:09:14Z</time>
      </trkpt>
      <trkpt lat="48.21507" lon="-3.11333">
        <ele>164</ele>
        <time>2016-03-03T14:09:17Z</time>
      </trkpt>
      <trkpt lat="48.21506" lon="-3.11339">
        <ele>164</ele>
        <time>2016-03-03T14:09:21Z</time>
      </trkpt>
      <trkpt lat="48.21507" lon="-3.11345">
        <ele>164</ele>
        <time>2016-03-03T14:09:24Z</time>
      </trkpt>
      <trkpt lat="48.21508" lon="-3.1135">
        <ele>164</ele>
        <time>2016-03-03T14:09:27Z</time>
      </trkpt>
      <trkpt lat="48.21508" lon="-3.11355">
        <ele>164</ele>
        <time>2016-03-03T14:09:30Z</time>
      </trkpt>
      <trkpt lat="48.21508" lon="-3.11361">
        <ele>164</ele>
        <time>2016-03-03T14:09:33Z</time>
      </trkpt>
      <trkpt lat="48.21509" lon="-3.11367">
        <ele>163</ele>
        <time>2016-03-03T14:09:37Z</time>
      </trkpt>
      <trkpt lat="48.21509" lon="-3.11371">
        <ele>163</ele>
        <time>2016-03-03T14:09:40Z</time>
      </trkpt>
      <trkpt lat="48.2151" lon="-3.11376">
        <ele>162</ele>
        <time>2016-03-03T14:09:43Z</time>
      </trkpt>
      <trkpt lat="48.2151" lon="-3.11381">
        <ele>162</ele>
        <time>2016-03-03T14:09:46Z</time>
      </trkpt>
      <trkpt lat="48.21511" lon="-3.11387">
        <ele>162</ele>
        <time>2016-03-03T14:09:49Z</time>
      </trkpt>
      <trkpt lat="48.21511" lon="-3.11393">
        <ele>162</ele>
        <time>2016-03-03T14:09:52Z</time>
      </trkpt>
      <trkpt lat="48.21512" lon="-3.11398">
        <ele>162</ele>
        <time>2016-03-03T14:09:55Z</time>
      </trkpt>
      <trkpt lat="48.21512" lon="-3.11404">
        <ele>162</ele>
        <time>2016-03-03T14:09:58Z</time>
      </trkpt>
      <trkpt lat="48.21513" lon="-3.1141">
        <ele>162</ele>
        <time>2016-03-03T14:10:01Z</time>
      </trkpt>
      <trkpt lat="48.21513" lon="-3.11416">
        <ele>162</ele>
        <time>2016-03-03T14:10:04Z</time>
      </trkpt>
      <trkpt lat="48.21513" lon="-3.11422">
        <ele>162</ele>
        <time>2016-03-03T14:10:07Z</time>
      </trkpt>
      <trkpt lat="48.21514" lon="-3.11428">
        <ele>162</ele>
        <time>2016-03-03T14:10:10Z</time>
      </trkpt>
      <trkpt lat="48.21514" lon="-3.11434">
        <ele>162</ele>
        <time>2016-03-03T14:10:13Z</time>
      </trkpt>
      <trkpt lat="48.21514" lon="-3.11439">
        <ele>162</ele>
        <time>2016-03-03T14:10:16Z</time>
      </trkpt>
      <trkpt lat="48.21514" lon="-3.11444">
        <ele>162</ele>
        <time>2016-03-03T14:10:19Z</time>
      </trkpt>
      <trkpt lat="48.21515" lon="-3.11451">
        <ele>162</ele>
        <time>2016-03-03T14:10:23Z</time>
      </trkpt>
      <trkpt lat="48.21516" lon="-3.11455">
        <ele>161</ele>
        <time>2016-03-03T14:10:26Z</time>
      </trkpt>
      <trkpt lat="48.21516" lon="-3.11461">
        <ele>161</ele>
        <time>2016-03-03T14:10:29Z</time>
      </trkpt>
      <trkpt lat="48.21517" lon="-3.11467">
        <ele>161</ele>
        <time>2016-03-03T14:10:32Z</time>
      </trkpt>
      <trkpt lat="48.21517" lon="-3.11472">
        <ele>160</ele>
        <time>2016-03-03T14:10:35Z</time>
      </trkpt>
      <trkpt lat="48.21517" lon="-3.11477">
        <ele>160</ele>
        <time>2016-03-03T14:10:38Z</time>
      </trkpt>
      <trkpt lat="48.21517" lon="-3.11484">
        <ele>160</ele>
        <time>2016-03-03T14:10:41Z</time>
      </trkpt>
      <trkpt lat="48.21518" lon="-3.1149">
        <ele>160</ele>
        <time>2016-03-03T14:10:44Z</time>
      </trkpt>
      <trkpt lat="48.21518" lon="-3.11496">
        <ele>160</ele>
        <time>2016-03-03T14:10:47Z</time>
      </trkpt>
      <trkpt lat="48.21519" lon="-3.11502">
        <ele>160</ele>
        <time>2016-03-03T14:10:50Z</time>
      </trkpt>
      <trkpt lat="48.2152" lon="-3.11508">
        <ele>160</ele>
        <time>2016-03-03T14:10:53Z</time>
      </trkpt>
      <trkpt lat="48.21521" lon="-3.11513">
        <ele>159</ele>
        <time>2016-03-03T14:10:56Z</time>
      </trkpt>
      <trkpt lat="48.21521" lon="-3.11519">
        <ele>159</ele>
        <time>2016-03-03T14:10:59Z</time>
      </trkpt>
      <trkpt lat="48.21522" lon="-3.11525">
        <ele>159</ele>
        <time>2016-03-03T14:11:02Z</time>
      </trkpt>
      <trkpt lat="48.21523" lon="-3.1153">
        <ele>159</ele>
        <time>2016-03-03T14:11:05Z</time>
      </trkpt>
      <trkpt lat="48.21524" lon="-3.11536">
        <ele>159</ele>
        <time>2016-03-03T14:11:08Z</time>
      </trkpt>
      <trkpt lat="48.21525" lon="-3.11541">
        <ele>159</ele>
        <time>2016-03-03T14:11:11Z</time>
      </trkpt>
      <trkpt lat="48.21525" lon="-3.11547">
        <ele>159</ele>
        <time>2016-03-03T14:11:14Z</time>
      </trkpt>
      <trkpt lat="48.21526" lon="-3.11553">
        <ele>159</ele>
        <time>2016-03-03T14:11:17Z</time>
      </trkpt>
      <trkpt lat="48.21528" lon="-3.11559">
        <ele>159</ele>
        <time>2016-03-03T14:11:20Z</time>
      </trkpt>
      <trkpt lat="48.21529" lon="-3.11565">
        <ele>159</ele>
        <time>2016-03-03T14:11:23Z</time>
      </trkpt>
      <trkpt lat="48.2153" lon="-3.11571">
        <ele>159</ele>
        <time>2016-03-03T14:11:26Z</time>
      </trkpt>
      <trkpt lat="48.21532" lon="-3.11576">
        <ele>159</ele>
        <time>2016-03-03T14:11:29Z</time>
      </trkpt>
      <trkpt lat="48.21532" lon="-3.11582">
        <ele>158</ele>
        <time>2016-03-03T14:11:32Z</time>
      </trkpt>
      <trkpt lat="48.21534" lon="-3.11588">
        <ele>158</ele>
        <time>2016-03-03T14:11:35Z</time>
      </trkpt>
      <trkpt lat="48.21535" lon="-3.11594">
        <ele>158</ele>
        <time>2016-03-03T14:11:38Z</time>
      </trkpt>
      <trkpt lat="48.21536" lon="-3.11601">
        <ele>158</ele>
        <time>2016-03-03T14:11:41Z</time>
      </trkpt>
      <trkpt lat="48.21537" lon="-3.11608">
        <ele>158</ele>
        <time>2016-03-03T14:11:45Z</time>
      </trkpt>
      <trkpt lat="48.21539" lon="-3.11613">
        <ele>158</ele>
        <time>2016-03-03T14:11:48Z</time>
      </trkpt>
      <trkpt lat="48.2154" lon="-3.1162">
        <ele>158</ele>
        <time>2016-03-03T14:11:51Z</time>
      </trkpt>
      <trkpt lat="48.21542" lon="-3.11625">
        <ele>158</ele>
        <time>2016-03-03T14:11:54Z</time>
      </trkpt>
      <trkpt lat="48.21545" lon="-3.11631">
        <ele>158</ele>
        <time>2016-03-03T14:11:57Z</time>
      </trkpt>
      <trkpt lat="48.21546" lon="-3.11636">
        <ele>158</ele>
        <time>2016-03-03T14:12:00Z</time>
      </trkpt>
      <trkpt lat="48.21548" lon="-3.11641">
        <ele>158</ele>
        <time>2016-03-03T14:12:03Z</time>
      </trkpt>
      <trkpt lat="48.21549" lon="-3.11646">
        <ele>158</ele>
        <time>2016-03-03T14:12:06Z</time>
      </trkpt>
      <trkpt lat="48.2155" lon="-3.11652">
        <ele>158</ele>
        <time>2016-03-03T14:12:09Z</time>
      </trkpt>
      <trkpt lat="48.21552" lon="-3.11658">
        <ele>158</ele>
        <time>2016-03-03T14:12:13Z</time>
      </trkpt>
      <trkpt lat="48.21552" lon="-3.11661">
        <ele>158</ele>
        <time>2016-03-03T14:12:16Z</time>
      </trkpt>
      <trkpt lat="48.21553" lon="-3.11664">
        <ele>158</ele>
        <time>2016-03-03T14:12:19Z</time>
      </trkpt>
      <trkpt lat="48.21554" lon="-3.1167">
        <ele>158</ele>
        <time>2016-03-03T14:12:22Z</time>
      </trkpt>
      <trkpt lat="48.21555" lon="-3.11674">
        <ele>158</ele>
        <time>2016-03-03T14:12:25Z</time>
      </trkpt>
      <trkpt lat="48.21556" lon="-3.1168">
        <ele>158</ele>
        <time>2016-03-03T14:12:28Z</time>
      </trkpt>
      <trkpt lat="48.21557" lon="-3.11685">
        <ele>158</ele>
        <time>2016-03-03T14:12:31Z</time>
      </trkpt>
      <trkpt lat="48.21558" lon="-3.1169">
        <ele>158</ele>
        <time>2016-03-03T14:12:34Z</time>
      </trkpt>
      <trkpt lat="48.21559" lon="-3.11696">
        <ele>158</ele>
        <time>2016-03-03T14:12:37Z</time>
      </trkpt>
      <trkpt lat="48.21561" lon="-3.11702">
        <ele>158</ele>
        <time>2016-03-03T14:12:41Z</time>
      </trkpt>
      <trkpt lat="48.21563" lon="-3.11707">
        <ele>158</ele>
        <time>2016-03-03T14:12:44Z</time>
      </trkpt>
      <trkpt lat="48.21565" lon="-3.11714">
        <ele>158</ele>
        <time>2016-03-03T14:12:48Z</time>
      </trkpt>
      <trkpt lat="48.21567" lon="-3.11721">
        <ele>158</ele>
        <time>2016-03-03T14:12:52Z</time>
      </trkpt>
      <trkpt lat="48.21569" lon="-3.11727">
        <ele>158</ele>
        <time>2016-03-03T14:12:55Z</time>
      </trkpt>
      <trkpt lat="48.21572" lon="-3.11731">
        <ele>158</ele>
        <time>2016-03-03T14:12:58Z</time>
      </trkpt>
      <trkpt lat="48.21574" lon="-3.11736">
        <ele>158</ele>
        <time>2016-03-03T14:13:01Z</time>
      </trkpt>
      <trkpt lat="48.21575" lon="-3.11742">
        <ele>158</ele>
        <time>2016-03-03T14:13:04Z</time>
      </trkpt>
      <trkpt lat="48.21578" lon="-3.11748">
        <ele>158</ele>
        <time>2016-03-03T14:13:07Z</time>
      </trkpt>
      <trkpt lat="48.2158" lon="-3.11754">
        <ele>158</ele>
        <time>2016-03-03T14:13:10Z</time>
      </trkpt>
      <trkpt lat="48.21581" lon="-3.11759">
        <ele>158</ele>
        <time>2016-03-03T14:13:13Z</time>
      </trkpt>
      <trkpt lat="48.21582" lon="-3.11765">
        <ele>158</ele>
        <time>2016-03-03T14:13:16Z</time>
      </trkpt>
      <trkpt lat="48.21586" lon="-3.1177">
        <ele>158</ele>
        <time>2016-03-03T14:13:19Z</time>
      </trkpt>
      <trkpt lat="48.21588" lon="-3.11775">
        <ele>158</ele>
        <time>2016-03-03T14:13:22Z</time>
      </trkpt>
      <trkpt lat="48.21589" lon="-3.11781">
        <ele>157</ele>
        <time>2016-03-03T14:13:25Z</time>
      </trkpt>
      <trkpt lat="48.21592" lon="-3.11786">
        <ele>157</ele>
        <time>2016-03-03T14:13:28Z</time>
      </trkpt>
      <trkpt lat="48.21593" lon="-3.11791">
        <ele>156</ele>
        <time>2016-03-03T14:13:31Z</time>
      </trkpt>
      <trkpt lat="48.21595" lon="-3.11797">
        <ele>156</ele>
        <time>2016-03-03T14:13:34Z</time>
      </trkpt>
      <trkpt lat="48.21597" lon="-3.11803">
        <ele>155</ele>
        <time>2016-03-03T14:13:37Z</time>
      </trkpt>
      <trkpt lat="48.21598" lon="-3.11808">
        <ele>154</ele>
        <time>2016-03-03T14:13:40Z</time>
      </trkpt>
      <trkpt lat="48.21601" lon="-3.11813">
        <ele>153</ele>
        <time>2016-03-03T14:13:43Z</time>
      </trkpt>
      <trkpt lat="48.21603" lon="-3.11818">
        <ele>152</ele>
        <time>2016-03-03T14:13:46Z</time>
      </trkpt>
      <trkpt lat="48.21606" lon="-3.11824">
        <ele>152</ele>
        <time>2016-03-03T14:13:50Z</time>
      </trkpt>
      <trkpt lat="48.21609" lon="-3.11829">
        <ele>152</ele>
        <time>2016-03-03T14:13:53Z</time>
      </trkpt>
      <trkpt lat="48.21612" lon="-3.11835">
        <ele>152</ele>
        <time>2016-03-03T14:13:57Z</time>
      </trkpt>
      <trkpt lat="48.21615" lon="-3.11841">
        <ele>152</ele>
        <time>2016-03-03T14:14:00Z</time>
      </trkpt>
      <trkpt lat="48.21619" lon="-3.11847">
        <ele>152</ele>
        <time>2016-03-03T14:14:04Z</time>
      </trkpt>
      <trkpt lat="48.21621" lon="-3.11851">
        <ele>152</ele>
        <time>2016-03-03T14:14:07Z</time>
      </trkpt>
      <trkpt lat="48.21622" lon="-3.11856">
        <ele>152</ele>
        <time>2016-03-03T14:14:10Z</time>
      </trkpt>
      <trkpt lat="48.21625" lon="-3.1186">
        <ele>152</ele>
        <time>2016-03-03T14:14:13Z</time>
      </trkpt>
      <trkpt lat="48.21627" lon="-3.11865">
        <ele>152</ele>
        <time>2016-03-03T14:14:16Z</time>
      </trkpt>
      <trkpt lat="48.21629" lon="-3.1187">
        <ele>152</ele>
        <time>2016-03-03T14:14:20Z</time>
      </trkpt>
      <trkpt lat="48.21631" lon="-3.11871">
        <ele>152</ele>
        <time>2016-03-03T14:14:25Z</time>
      </trkpt>
      <trkpt lat="48.21634" lon="-3.11871">
        <ele>152</ele>
        <time>2016-03-03T14:14:28Z</time>
      </trkpt>
      <trkpt lat="48.21637" lon="-3.11868">
        <ele>152</ele>
        <time>2016-03-03T14:14:31Z</time>
      </trkpt>
      <trkpt lat="48.21641" lon="-3.11865">
        <ele>152</ele>
        <time>2016-03-03T14:14:35Z</time>
      </trkpt>
      <trkpt lat="48.21644" lon="-3.11864">
        <ele>155</ele>
        <time>2016-03-03T14:14:45Z</time>
      </trkpt>
      <trkpt lat="48.21642" lon="-3.11865">
        <ele>157</ele>
        <time>2016-03-03T14:14:51Z</time>
      </trkpt>
      <trkpt lat="48.21638" lon="-3.11868">
        <ele>157</ele>
        <time>2016-03-03T14:14:54Z</time>
      </trkpt>
      <trkpt lat="48.21636" lon="-3.11873">
        <ele>158</ele>
        <time>2016-03-03T14:14:58Z</time>
      </trkpt>
      <trkpt lat="48.21636" lon="-3.11879">
        <ele>158</ele>
        <time>2016-03-03T14:15:01Z</time>
      </trkpt>
      <trkpt lat="48.21637" lon="-3.11885">
        <ele>158</ele>
        <time>2016-03-03T14:15:04Z</time>
      </trkpt>
      <trkpt lat="48.2164" lon="-3.1189">
        <ele>158</ele>
        <time>2016-03-03T14:15:07Z</time>
      </trkpt>
      <trkpt lat="48.21642" lon="-3.11896">
        <ele>158</ele>
        <time>2016-03-03T14:15:11Z</time>
      </trkpt>
      <trkpt lat="48.21645" lon="-3.11902">
        <ele>158</ele>
        <time>2016-03-03T14:15:15Z</time>
      </trkpt>
      <trkpt lat="48.21648" lon="-3.11907">
        <ele>158</ele>
        <time>2016-03-03T14:15:19Z</time>
      </trkpt>
      <trkpt lat="48.21651" lon="-3.11912">
        <ele>158</ele>
        <time>2016-03-03T14:15:23Z</time>
      </trkpt>
      <trkpt lat="48.21653" lon="-3.11918">
        <ele>158</ele>
        <time>2016-03-03T14:15:27Z</time>
      </trkpt>
      <trkpt lat="48.21656" lon="-3.11922">
        <ele>158</ele>
        <time>2016-03-03T14:15:30Z</time>
      </trkpt>
      <trkpt lat="48.2166" lon="-3.11928">
        <ele>158</ele>
        <time>2016-03-03T14:15:34Z</time>
      </trkpt>
      <trkpt lat="48.21662" lon="-3.11933">
        <ele>158</ele>
        <time>2016-03-03T14:15:38Z</time>
      </trkpt>
      <trkpt lat="48.21665" lon="-3.11938">
        <ele>158</ele>
        <time>2016-03-03T14:15:42Z</time>
      </trkpt>
      <trkpt lat="48.21668" lon="-3.11944">
        <ele>158</ele>
        <time>2016-03-03T14:15:46Z</time>
      </trkpt>
      <trkpt lat="48.21671" lon="-3.1195">
        <ele>157</ele>
        <time>2016-03-03T14:15:50Z</time>
      </trkpt>
      <trkpt lat="48.21673" lon="-3.11955">
        <ele>155</ele>
        <time>2016-03-03T14:15:54Z</time>
      </trkpt>
      <trkpt lat="48.21676" lon="-3.1196">
        <ele>154</ele>
        <time>2016-03-03T14:15:57Z</time>
      </trkpt>
      <trkpt lat="48.21679" lon="-3.11964">
        <ele>153</ele>
        <time>2016-03-03T14:16:00Z</time>
      </trkpt>
      <trkpt lat="48.21681" lon="-3.11969">
        <ele>153</ele>
        <time>2016-03-03T14:16:03Z</time>
      </trkpt>
      <trkpt lat="48.21685" lon="-3.11974">
        <ele>153</ele>
        <time>2016-03-03T14:16:06Z</time>
      </trkpt>
      <trkpt lat="48.21689" lon="-3.11977">
        <ele>153</ele>
        <time>2016-03-03T14:16:09Z</time>
      </trkpt>
      <trkpt lat="48.21691" lon="-3.11982">
        <ele>153</ele>
        <time>2016-03-03T14:16:12Z</time>
      </trkpt>
      <trkpt lat="48.21693" lon="-3.11986">
        <ele>153</ele>
        <time>2016-03-03T14:16:15Z</time>
      </trkpt>
      <trkpt lat="48.21695" lon="-3.1199">
        <ele>153</ele>
        <time>2016-03-03T14:16:19Z</time>
      </trkpt>
      <trkpt lat="48.21698" lon="-3.11993">
        <ele>153</ele>
        <time>2016-03-03T14:16:22Z</time>
      </trkpt>
      <trkpt lat="48.217" lon="-3.11996">
        <ele>154</ele>
        <time>2016-03-03T14:16:33Z</time>
      </trkpt>
      <trkpt lat="48.21701" lon="-3.11997">
        <ele>155</ele>
        <time>2016-03-03T14:16:36Z</time>
      </trkpt>
      <trkpt lat="48.21704" lon="-3.12">
        <ele>156</ele>
        <time>2016-03-03T14:16:40Z</time>
      </trkpt>
      <trkpt lat="48.21707" lon="-3.12003">
        <ele>157</ele>
        <time>2016-03-03T14:16:45Z</time>
      </trkpt>
      <trkpt lat="48.21711" lon="-3.12008">
        <ele>158</ele>
        <time>2016-03-03T14:16:49Z</time>
      </trkpt>
      <trkpt lat="48.21714" lon="-3.12014">
        <ele>158</ele>
        <time>2016-03-03T14:16:53Z</time>
      </trkpt>
      <trkpt lat="48.21717" lon="-3.12018">
        <ele>158</ele>
        <time>2016-03-03T14:16:56Z</time>
      </trkpt>
      <trkpt lat="48.21719" lon="-3.12022">
        <ele>158</ele>
        <time>2016-03-03T14:16:59Z</time>
      </trkpt>
      <trkpt lat="48.21722" lon="-3.12028">
        <ele>158</ele>
        <time>2016-03-03T14:17:03Z</time>
      </trkpt>
      <trkpt lat="48.21725" lon="-3.12032">
        <ele>158</ele>
        <time>2016-03-03T14:17:06Z</time>
      </trkpt>
      <trkpt lat="48.21729" lon="-3.12036">
        <ele>158</ele>
        <time>2016-03-03T14:17:09Z</time>
      </trkpt>
      <trkpt lat="48.21732" lon="-3.12041">
        <ele>158</ele>
        <time>2016-03-03T14:17:13Z</time>
      </trkpt>
      <trkpt lat="48.21736" lon="-3.12046">
        <ele>158</ele>
        <time>2016-03-03T14:17:16Z</time>
      </trkpt>
      <trkpt lat="48.21739" lon="-3.12049">
        <ele>158</ele>
        <time>2016-03-03T14:17:19Z</time>
      </trkpt>
      <trkpt lat="48.21742" lon="-3.12055">
        <ele>157</ele>
        <time>2016-03-03T14:17:23Z</time>
      </trkpt>
      <trkpt lat="48.21745" lon="-3.1206">
        <ele>155</ele>
        <time>2016-03-03T14:17:27Z</time>
      </trkpt>
      <trkpt lat="48.21748" lon="-3.12066">
        <ele>154</ele>
        <time>2016-03-03T14:17:31Z</time>
      </trkpt>
      <trkpt lat="48.21751" lon="-3.12072">
        <ele>154</ele>
        <time>2016-03-03T14:17:35Z</time>
      </trkpt>
      <trkpt lat="48.21754" lon="-3.12077">
        <ele>154</ele>
        <time>2016-03-03T14:17:39Z</time>
      </trkpt>
      <trkpt lat="48.21758" lon="-3.12083">
        <ele>154</ele>
        <time>2016-03-03T14:17:43Z</time>
      </trkpt>
      <trkpt lat="48.21761" lon="-3.12089">
        <ele>154</ele>
        <time>2016-03-03T14:17:47Z</time>
      </trkpt>
      <trkpt lat="48.21765" lon="-3.12094">
        <ele>154</ele>
        <time>2016-03-03T14:17:51Z</time>
      </trkpt>
      <trkpt lat="48.21769" lon="-3.121">
        <ele>154</ele>
        <time>2016-03-03T14:17:55Z</time>
      </trkpt>
      <trkpt lat="48.21772" lon="-3.12105">
        <ele>154</ele>
        <time>2016-03-03T14:17:59Z</time>
      </trkpt>
      <trkpt lat="48.21774" lon="-3.12109">
        <ele>154</ele>
        <time>2016-03-03T14:18:02Z</time>
      </trkpt>
      <trkpt lat="48.21778" lon="-3.12115">
        <ele>154</ele>
        <time>2016-03-03T14:18:06Z</time>
      </trkpt>
      <trkpt lat="48.2178" lon="-3.1212">
        <ele>154</ele>
        <time>2016-03-03T14:18:09Z</time>
      </trkpt>
      <trkpt lat="48.21784" lon="-3.12126">
        <ele>154</ele>
        <time>2016-03-03T14:18:13Z</time>
      </trkpt>
      <trkpt lat="48.21787" lon="-3.12133">
        <ele>154</ele>
        <time>2016-03-03T14:18:17Z</time>
      </trkpt>
      <trkpt lat="48.21792" lon="-3.12139">
        <ele>154</ele>
        <time>2016-03-03T14:18:21Z</time>
      </trkpt>
      <trkpt lat="48.21796" lon="-3.12142">
        <ele>154</ele>
        <time>2016-03-03T14:18:24Z</time>
      </trkpt>
      <trkpt lat="48.218" lon="-3.12148">
        <ele>154</ele>
        <time>2016-03-03T14:18:28Z</time>
      </trkpt>
      <trkpt lat="48.21803" lon="-3.12155">
        <ele>154</ele>
        <time>2016-03-03T14:18:33Z</time>
      </trkpt>
      <trkpt lat="48.21808" lon="-3.12162">
        <ele>155</ele>
        <time>2016-03-03T14:18:38Z</time>
      </trkpt>
      <trkpt lat="48.21811" lon="-3.12167">
        <ele>155</ele>
        <time>2016-03-03T14:18:42Z</time>
      </trkpt>
      <trkpt lat="48.21812" lon="-3.12173">
        <ele>155</ele>
        <time>2016-03-03T14:18:46Z</time>
      </trkpt>
      <trkpt lat="48.21815" lon="-3.12178">
        <ele>155</ele>
        <time>2016-03-03T14:18:50Z</time>
      </trkpt>
      <trkpt lat="48.21815" lon="-3.12183">
        <ele>155</ele>
        <time>2016-03-03T14:18:54Z</time>
      </trkpt>
      <trkpt lat="48.21817" lon="-3.12187">
        <ele>155</ele>
        <time>2016-03-03T14:18:58Z</time>
      </trkpt>
      <trkpt lat="48.21819" lon="-3.12194">
        <ele>154</ele>
        <time>2016-03-03T14:19:02Z</time>
      </trkpt>
      <trkpt lat="48.2182" lon="-3.12201">
        <ele>154</ele>
        <time>2016-03-03T14:19:06Z</time>
      </trkpt>
      <trkpt lat="48.21821" lon="-3.12208">
        <ele>154</ele>
        <time>2016-03-03T14:19:09Z</time>
      </trkpt>
      <trkpt lat="48.21822" lon="-3.12212">
        <ele>153</ele>
        <time>2016-03-03T14:19:12Z</time>
      </trkpt>
      <trkpt lat="48.21824" lon="-3.12218">
        <ele>153</ele>
        <time>2016-03-03T14:19:15Z</time>
      </trkpt>
      <trkpt lat="48.21825" lon="-3.12223">
        <ele>153</ele>
        <time>2016-03-03T14:19:18Z</time>
      </trkpt>
      <trkpt lat="48.21826" lon="-3.1223">
        <ele>153</ele>
        <time>2016-03-03T14:19:22Z</time>
      </trkpt>
      <trkpt lat="48.21828" lon="-3.12237">
        <ele>152</ele>
        <time>2016-03-03T14:19:26Z</time>
      </trkpt>
      <trkpt lat="48.21829" lon="-3.12242">
        <ele>152</ele>
        <time>2016-03-03T14:19:29Z</time>
      </trkpt>
      <trkpt lat="48.21831" lon="-3.12249">
        <ele>152</ele>
        <time>2016-03-03T14:19:34Z</time>
      </trkpt>
      <trkpt lat="48.21833" lon="-3.12255">
        <ele>152</ele>
        <time>2016-03-03T14:19:38Z</time>
      </trkpt>
      <trkpt lat="48.21835" lon="-3.12261">
        <ele>151</ele>
        <time>2016-03-03T14:19:41Z</time>
      </trkpt>
      <trkpt lat="48.21835" lon="-3.12265">
        <ele>151</ele>
        <time>2016-03-03T14:19:44Z</time>
      </trkpt>
      <trkpt lat="48.21836" lon="-3.12271">
        <ele>151</ele>
        <time>2016-03-03T14:19:47Z</time>
      </trkpt>
      <trkpt lat="48.21836" lon="-3.12277">
        <ele>151</ele>
        <time>2016-03-03T14:19:51Z</time>
      </trkpt>
      <trkpt lat="48.21838" lon="-3.12284">
        <ele>151</ele>
        <time>2016-03-03T14:19:55Z</time>
      </trkpt>
      <trkpt lat="48.21838" lon="-3.12289">
        <ele>151</ele>
        <time>2016-03-03T14:19:58Z</time>
      </trkpt>
      <trkpt lat="48.21839" lon="-3.12294">
        <ele>150</ele>
        <time>2016-03-03T14:20:01Z</time>
      </trkpt>
      <trkpt lat="48.2184" lon="-3.12299">
        <ele>150</ele>
        <time>2016-03-03T14:20:04Z</time>
      </trkpt>
      <trkpt lat="48.21841" lon="-3.12307">
        <ele>148</ele>
        <time>2016-03-03T14:20:08Z</time>
      </trkpt>
      <trkpt lat="48.21842" lon="-3.12312">
        <ele>148</ele>
        <time>2016-03-03T14:20:11Z</time>
      </trkpt>
      <trkpt lat="48.21842" lon="-3.12318">
        <ele>148</ele>
        <time>2016-03-03T14:20:14Z</time>
      </trkpt>
      <trkpt lat="48.21842" lon="-3.12322">
        <ele>148</ele>
        <time>2016-03-03T14:20:17Z</time>
      </trkpt>
      <trkpt lat="48.21842" lon="-3.12329">
        <ele>148</ele>
        <time>2016-03-03T14:20:21Z</time>
      </trkpt>
      <trkpt lat="48.21841" lon="-3.12335">
        <ele>148</ele>
        <time>2016-03-03T14:20:24Z</time>
      </trkpt>
      <trkpt lat="48.21841" lon="-3.1234">
        <ele>148</ele>
        <time>2016-03-03T14:20:27Z</time>
      </trkpt>
      <trkpt lat="48.21841" lon="-3.12348">
        <ele>148</ele>
        <time>2016-03-03T14:20:31Z</time>
      </trkpt>
      <trkpt lat="48.21841" lon="-3.12353">
        <ele>148</ele>
        <time>2016-03-03T14:20:34Z</time>
      </trkpt>
      <trkpt lat="48.2184" lon="-3.12358">
        <ele>148</ele>
        <time>2016-03-03T14:20:37Z</time>
      </trkpt>
      <trkpt lat="48.21839" lon="-3.12365">
        <ele>148</ele>
        <time>2016-03-03T14:20:41Z</time>
      </trkpt>
      <trkpt lat="48.21839" lon="-3.12371">
        <ele>148</ele>
        <time>2016-03-03T14:20:45Z</time>
      </trkpt>
      <trkpt lat="48.21838" lon="-3.12376">
        <ele>148</ele>
        <time>2016-03-03T14:20:48Z</time>
      </trkpt>
      <trkpt lat="48.21838" lon="-3.12382">
        <ele>148</ele>
        <time>2016-03-03T14:20:51Z</time>
      </trkpt>
      <trkpt lat="48.21837" lon="-3.12387">
        <ele>148</ele>
        <time>2016-03-03T14:20:54Z</time>
      </trkpt>
      <trkpt lat="48.21836" lon="-3.12392">
        <ele>148</ele>
        <time>2016-03-03T14:20:58Z</time>
      </trkpt>
      <trkpt lat="48.21836" lon="-3.12398">
        <ele>148</ele>
        <time>2016-03-03T14:21:02Z</time>
      </trkpt>
      <trkpt lat="48.21835" lon="-3.12402">
        <ele>148</ele>
        <time>2016-03-03T14:21:06Z</time>
      </trkpt>
      <trkpt lat="48.21835" lon="-3.12404">
        <ele>149</ele>
        <time>2016-03-03T14:21:22Z</time>
      </trkpt>
      <trkpt lat="48.21834" lon="-3.12408">
        <ele>149</ele>
        <time>2016-03-03T14:21:26Z</time>
      </trkpt>
      <trkpt lat="48.21833" lon="-3.12413">
        <ele>149</ele>
        <time>2016-03-03T14:21:30Z</time>
      </trkpt>
      <trkpt lat="48.21831" lon="-3.1242">
        <ele>149</ele>
        <time>2016-03-03T14:21:34Z</time>
      </trkpt>
      <trkpt lat="48.21829" lon="-3.12425">
        <ele>149</ele>
        <time>2016-03-03T14:21:38Z</time>
      </trkpt>
      <trkpt lat="48.21827" lon="-3.12431">
        <ele>149</ele>
        <time>2016-03-03T14:21:42Z</time>
      </trkpt>
      <trkpt lat="48.21825" lon="-3.12436">
        <ele>149</ele>
        <time>2016-03-03T14:21:45Z</time>
      </trkpt>
      <trkpt lat="48.21824" lon="-3.1244">
        <ele>149</ele>
        <time>2016-03-03T14:21:48Z</time>
      </trkpt>
      <trkpt lat="48.21822" lon="-3.12446">
        <ele>149</ele>
        <time>2016-03-03T14:21:51Z</time>
      </trkpt>
      <trkpt lat="48.2182" lon="-3.12453">
        <ele>149</ele>
        <time>2016-03-03T14:21:55Z</time>
      </trkpt>
      <trkpt lat="48.21818" lon="-3.12458">
        <ele>149</ele>
        <time>2016-03-03T14:21:58Z</time>
      </trkpt>
      <trkpt lat="48.21817" lon="-3.12462">
        <ele>149</ele>
        <time>2016-03-03T14:22:01Z</time>
      </trkpt>
      <trkpt lat="48.21814" lon="-3.12469">
        <ele>149</ele>
        <time>2016-03-03T14:22:05Z</time>
      </trkpt>
      <trkpt lat="48.21812" lon="-3.12475">
        <ele>149</ele>
        <time>2016-03-03T14:22:08Z</time>
      </trkpt>
      <trkpt lat="48.21811" lon="-3.12481">
        <ele>149</ele>
        <time>2016-03-03T14:22:11Z</time>
      </trkpt>
      <trkpt lat="48.21808" lon="-3.12487">
        <ele>149</ele>
        <time>2016-03-03T14:22:15Z</time>
      </trkpt>
      <trkpt lat="48.21805" lon="-3.12493">
        <ele>149</ele>
        <time>2016-03-03T14:22:19Z</time>
      </trkpt>
      <trkpt lat="48.21801" lon="-3.12498">
        <ele>149</ele>
        <time>2016-03-03T14:22:23Z</time>
      </trkpt>
      <trkpt lat="48.21797" lon="-3.12505">
        <ele>149</ele>
        <time>2016-03-03T14:22:27Z</time>
      </trkpt>
      <trkpt lat="48.21794" lon="-3.1251">
        <ele>149</ele>
        <time>2016-03-03T14:22:31Z</time>
      </trkpt>
      <trkpt lat="48.21791" lon="-3.12516">
        <ele>149</ele>
        <time>2016-03-03T14:22:35Z</time>
      </trkpt>
      <trkpt lat="48.21788" lon="-3.12521">
        <ele>149</ele>
        <time>2016-03-03T14:22:38Z</time>
      </trkpt>
      <trkpt lat="48.21785" lon="-3.12527">
        <ele>149</ele>
        <time>2016-03-03T14:22:42Z</time>
      </trkpt>
      <trkpt lat="48.21783" lon="-3.12533">
        <ele>149</ele>
        <time>2016-03-03T14:22:46Z</time>
      </trkpt>
      <trkpt lat="48.2178" lon="-3.12539">
        <ele>149</ele>
        <time>2016-03-03T14:22:50Z</time>
      </trkpt>
      <trkpt lat="48.21776" lon="-3.12543">
        <ele>149</ele>
        <time>2016-03-03T14:22:53Z</time>
      </trkpt>
      <trkpt lat="48.21774" lon="-3.12547">
        <ele>149</ele>
        <time>2016-03-03T14:22:56Z</time>
      </trkpt>
      <trkpt lat="48.21771" lon="-3.12553">
        <ele>148</ele>
        <time>2016-03-03T14:23:00Z</time>
      </trkpt>
      <trkpt lat="48.21769" lon="-3.12555">
        <ele>148</ele>
        <time>2016-03-03T14:23:04Z</time>
      </trkpt>
      <trkpt lat="48.21766" lon="-3.12561">
        <ele>148</ele>
        <time>2016-03-03T14:23:08Z</time>
      </trkpt>
      <trkpt lat="48.21764" lon="-3.12566">
        <ele>148</ele>
        <time>2016-03-03T14:23:11Z</time>
      </trkpt>
      <trkpt lat="48.21761" lon="-3.12571">
        <ele>148</ele>
        <time>2016-03-03T14:23:14Z</time>
      </trkpt>
      <trkpt lat="48.21758" lon="-3.12576">
        <ele>148</ele>
        <time>2016-03-03T14:23:18Z</time>
      </trkpt>
      <trkpt lat="48.21754" lon="-3.12582">
        <ele>148</ele>
        <time>2016-03-03T14:23:22Z</time>
      </trkpt>
      <trkpt lat="48.21752" lon="-3.12588">
        <ele>148</ele>
        <time>2016-03-03T14:23:26Z</time>
      </trkpt>
      <trkpt lat="48.21751" lon="-3.12593">
        <ele>148</ele>
        <time>2016-03-03T14:23:29Z</time>
      </trkpt>
      <trkpt lat="48.21749" lon="-3.12597">
        <ele>146</ele>
        <time>2016-03-03T14:23:32Z</time>
      </trkpt>
      <trkpt lat="48.21746" lon="-3.12601">
        <ele>146</ele>
        <time>2016-03-03T14:23:35Z</time>
      </trkpt>
      <trkpt lat="48.21743" lon="-3.12607">
        <ele>146</ele>
        <time>2016-03-03T14:23:39Z</time>
      </trkpt>
      <trkpt lat="48.2174" lon="-3.12611">
        <ele>146</ele>
        <time>2016-03-03T14:23:43Z</time>
      </trkpt>
      <trkpt lat="48.21736" lon="-3.12615">
        <ele>146</ele>
        <time>2016-03-03T14:23:47Z</time>
      </trkpt>
      <trkpt lat="48.21733" lon="-3.1262">
        <ele>145</ele>
        <time>2016-03-03T14:23:50Z</time>
      </trkpt>
      <trkpt lat="48.21732" lon="-3.12626">
        <ele>145</ele>
        <time>2016-03-03T14:23:53Z</time>
      </trkpt>
      <trkpt lat="48.2173" lon="-3.12633">
        <ele>145</ele>
        <time>2016-03-03T14:23:57Z</time>
      </trkpt>
      <trkpt lat="48.21727" lon="-3.12639">
        <ele>145</ele>
        <time>2016-03-03T14:24:01Z</time>
      </trkpt>
      <trkpt lat="48.21725" lon="-3.12644">
        <ele>145</ele>
        <time>2016-03-03T14:24:04Z</time>
      </trkpt>
      <trkpt lat="48.21724" lon="-3.12648">
        <ele>145</ele>
        <time>2016-03-03T14:24:07Z</time>
      </trkpt>
      <trkpt lat="48.21722" lon="-3.12653">
        <ele>145</ele>
        <time>2016-03-03T14:24:10Z</time>
      </trkpt>
      <trkpt lat="48.21722" lon="-3.12659">
        <ele>145</ele>
        <time>2016-03-03T14:24:14Z</time>
      </trkpt>
      <trkpt lat="48.2172" lon="-3.12664">
        <ele>145</ele>
        <time>2016-03-03T14:24:17Z</time>
      </trkpt>
      <trkpt lat="48.21718" lon="-3.12668">
        <ele>145</ele>
        <time>2016-03-03T14:24:20Z</time>
      </trkpt>
      <trkpt lat="48.21715" lon="-3.12674">
        <ele>145</ele>
        <time>2016-03-03T14:24:24Z</time>
      </trkpt>
      <trkpt lat="48.21712" lon="-3.1268">
        <ele>145</ele>
        <time>2016-03-03T14:24:27Z</time>
      </trkpt>
      <trkpt lat="48.2171" lon="-3.12685">
        <ele>145</ele>
        <time>2016-03-03T14:24:30Z</time>
      </trkpt>
      <trkpt lat="48.21708" lon="-3.12691">
        <ele>145</ele>
        <time>2016-03-03T14:24:33Z</time>
      </trkpt>
      <trkpt lat="48.21706" lon="-3.12696">
        <ele>145</ele>
        <time>2016-03-03T14:24:37Z</time>
      </trkpt>
      <trkpt lat="48.21703" lon="-3.12702">
        <ele>145</ele>
        <time>2016-03-03T14:24:41Z</time>
      </trkpt>
      <trkpt lat="48.21701" lon="-3.12708">
        <ele>145</ele>
        <time>2016-03-03T14:24:44Z</time>
      </trkpt>
      <trkpt lat="48.21698" lon="-3.12715">
        <ele>144</ele>
        <time>2016-03-03T14:24:47Z</time>
      </trkpt>
      <trkpt lat="48.21696" lon="-3.1272">
        <ele>144</ele>
        <time>2016-03-03T14:24:51Z</time>
      </trkpt>
      <trkpt lat="48.21694" lon="-3.12725">
        <ele>143</ele>
        <time>2016-03-03T14:24:55Z</time>
      </trkpt>
      <trkpt lat="48.21692" lon="-3.12731">
        <ele>142</ele>
        <time>2016-03-03T14:24:59Z</time>
      </trkpt>
      <trkpt lat="48.2169" lon="-3.12735">
        <ele>142</ele>
        <time>2016-03-03T14:25:02Z</time>
      </trkpt>
      <trkpt lat="48.21688" lon="-3.1274">
        <ele>141</ele>
        <time>2016-03-03T14:25:05Z</time>
      </trkpt>
      <trkpt lat="48.21687" lon="-3.12745">
        <ele>140</ele>
        <time>2016-03-03T14:25:08Z</time>
      </trkpt>
      <trkpt lat="48.21684" lon="-3.1275">
        <ele>140</ele>
        <time>2016-03-03T14:25:11Z</time>
      </trkpt>
      <trkpt lat="48.21682" lon="-3.12755">
        <ele>140</ele>
        <time>2016-03-03T14:25:15Z</time>
      </trkpt>
      <trkpt lat="48.21679" lon="-3.1276">
        <ele>140</ele>
        <time>2016-03-03T14:25:19Z</time>
      </trkpt>
      <trkpt lat="48.21678" lon="-3.12766">
        <ele>140</ele>
        <time>2016-03-03T14:25:22Z</time>
      </trkpt>
      <trkpt lat="48.21677" lon="-3.12772">
        <ele>140</ele>
        <time>2016-03-03T14:25:25Z</time>
      </trkpt>
      <trkpt lat="48.21675" lon="-3.12778">
        <ele>140</ele>
        <time>2016-03-03T14:25:29Z</time>
      </trkpt>
      <trkpt lat="48.21672" lon="-3.12783">
        <ele>140</ele>
        <time>2016-03-03T14:25:32Z</time>
      </trkpt>
      <trkpt lat="48.21669" lon="-3.1279">
        <ele>140</ele>
        <time>2016-03-03T14:25:35Z</time>
      </trkpt>
      <trkpt lat="48.21665" lon="-3.12799">
        <ele>140</ele>
        <time>2016-03-03T14:25:39Z</time>
      </trkpt>
      <trkpt lat="48.21662" lon="-3.12805">
        <ele>140</ele>
        <time>2016-03-03T14:25:42Z</time>
      </trkpt>
      <trkpt lat="48.21657" lon="-3.12811">
        <ele>141</ele>
        <time>2016-03-03T14:25:46Z</time>
      </trkpt>
      <trkpt lat="48.21655" lon="-3.12816">
        <ele>143</ele>
        <time>2016-03-03T14:25:49Z</time>
      </trkpt>
      <trkpt lat="48.21651" lon="-3.12822">
        <ele>144</ele>
        <time>2016-03-03T14:25:53Z</time>
      </trkpt>
      <trkpt lat="48.21648" lon="-3.12826">
        <ele>144</ele>
        <time>2016-03-03T14:25:57Z</time>
      </trkpt>
      <trkpt lat="48.21644" lon="-3.12833">
        <ele>144</ele>
        <time>2016-03-03T14:26:01Z</time>
      </trkpt>
      <trkpt lat="48.21641" lon="-3.12838">
        <ele>144</ele>
        <time>2016-03-03T14:26:04Z</time>
      </trkpt>
      <trkpt lat="48.21637" lon="-3.12842">
        <ele>144</ele>
        <time>2016-03-03T14:26:08Z</time>
      </trkpt>
      <trkpt lat="48.21634" lon="-3.12848">
        <ele>144</ele>
        <time>2016-03-03T14:26:12Z</time>
      </trkpt>
      <trkpt lat="48.21631" lon="-3.12852">
        <ele>144</ele>
        <time>2016-03-03T14:26:15Z</time>
      </trkpt>
      <trkpt lat="48.21628" lon="-3.12857">
        <ele>144</ele>
        <time>2016-03-03T14:26:18Z</time>
      </trkpt>
      <trkpt lat="48.21625" lon="-3.12862">
        <ele>144</ele>
        <time>2016-03-03T14:26:21Z</time>
      </trkpt>
      <trkpt lat="48.21622" lon="-3.12866">
        <ele>144</ele>
        <time>2016-03-03T14:26:24Z</time>
      </trkpt>
      <trkpt lat="48.21618" lon="-3.12868">
        <ele>144</ele>
        <time>2016-03-03T14:26:31Z</time>
      </trkpt>
      <trkpt lat="48.21618" lon="-3.12867">
        <ele>144</ele>
        <time>2016-03-03T14:26:36Z</time>
      </trkpt>
      <trkpt lat="48.21616" lon="-3.1287">
        <ele>144</ele>
        <time>2016-03-03T14:26:41Z</time>
      </trkpt>
      <trkpt lat="48.21613" lon="-3.12874">
        <ele>144</ele>
        <time>2016-03-03T14:26:45Z</time>
      </trkpt>
      <trkpt lat="48.21611" lon="-3.12879">
        <ele>144</ele>
        <time>2016-03-03T14:26:49Z</time>
      </trkpt>
      <trkpt lat="48.21607" lon="-3.12882">
        <ele>144</ele>
        <time>2016-03-03T14:26:53Z</time>
      </trkpt>
      <trkpt lat="48.21605" lon="-3.12883">
        <ele>144</ele>
        <time>2016-03-03T14:26:57Z</time>
      </trkpt>
      <trkpt lat="48.21603" lon="-3.12881">
        <ele>144</ele>
        <time>2016-03-03T14:27:09Z</time>
      </trkpt>
      <trkpt lat="48.21603" lon="-3.12878">
        <ele>144</ele>
        <time>2016-03-03T14:27:12Z</time>
      </trkpt>
      <trkpt lat="48.21602" lon="-3.12872">
        <ele>144</ele>
        <time>2016-03-03T14:27:16Z</time>
      </trkpt>
      <trkpt lat="48.21603" lon="-3.12867">
        <ele>144</ele>
        <time>2016-03-03T14:27:19Z</time>
      </trkpt>
      <trkpt lat="48.21604" lon="-3.12861">
        <ele>144</ele>
        <time>2016-03-03T14:27:23Z</time>
      </trkpt>
      <trkpt lat="48.21604" lon="-3.12857">
        <ele>144</ele>
        <time>2016-03-03T14:27:26Z</time>
      </trkpt>
      <trkpt lat="48.21605" lon="-3.1285">
        <ele>144</ele>
        <time>2016-03-03T14:27:30Z</time>
      </trkpt>
      <trkpt lat="48.21605" lon="-3.12845">
        <ele>144</ele>
        <time>2016-03-03T14:27:34Z</time>
      </trkpt>
      <trkpt lat="48.21605" lon="-3.12839">
        <ele>143</ele>
        <time>2016-03-03T14:27:38Z</time>
      </trkpt>
      <trkpt lat="48.21605" lon="-3.12832">
        <ele>142</ele>
        <time>2016-03-03T14:27:42Z</time>
      </trkpt>
      <trkpt lat="48.21604" lon="-3.12827">
        <ele>141</ele>
        <time>2016-03-03T14:27:46Z</time>
      </trkpt>
      <trkpt lat="48.21603" lon="-3.12821">
        <ele>140</ele>
        <time>2016-03-03T14:27:50Z</time>
      </trkpt>
      <trkpt lat="48.216" lon="-3.12815">
        <ele>140</ele>
        <time>2016-03-03T14:27:54Z</time>
      </trkpt>
      <trkpt lat="48.21595" lon="-3.1281">
        <ele>139</ele>
        <time>2016-03-03T14:27:58Z</time>
      </trkpt>
      <trkpt lat="48.21592" lon="-3.12808">
        <ele>138</ele>
        <time>2016-03-03T14:28:01Z</time>
      </trkpt>
      <trkpt lat="48.21588" lon="-3.12806">
        <ele>138</ele>
        <time>2016-03-03T14:28:04Z</time>
      </trkpt>
      <trkpt lat="48.21584" lon="-3.12805">
        <ele>138</ele>
        <time>2016-03-03T14:28:07Z</time>
      </trkpt>
      <trkpt lat="48.2158" lon="-3.12804">
        <ele>137</ele>
        <time>2016-03-03T14:28:10Z</time>
      </trkpt>
      <trkpt lat="48.21577" lon="-3.12803">
        <ele>137</ele>
        <time>2016-03-03T14:28:13Z</time>
      </trkpt>
      <trkpt lat="48.21573" lon="-3.12802">
        <ele>136</ele>
        <time>2016-03-03T14:28:16Z</time>
      </trkpt>
      <trkpt lat="48.21569" lon="-3.12801">
        <ele>136</ele>
        <time>2016-03-03T14:28:19Z</time>
      </trkpt>
      <trkpt lat="48.21564" lon="-3.12801">
        <ele>136</ele>
        <time>2016-03-03T14:28:23Z</time>
      </trkpt>
      <trkpt lat="48.2156" lon="-3.12801">
        <ele>136</ele>
        <time>2016-03-03T14:28:26Z</time>
      </trkpt>
      <trkpt lat="48.21556" lon="-3.128">
        <ele>135</ele>
        <time>2016-03-03T14:28:29Z</time>
      </trkpt>
      <trkpt lat="48.21551" lon="-3.128">
        <ele>135</ele>
        <time>2016-03-03T14:28:33Z</time>
      </trkpt>
      <trkpt lat="48.21547" lon="-3.128">
        <ele>135</ele>
        <time>2016-03-03T14:28:36Z</time>
      </trkpt>
      <trkpt lat="48.21543" lon="-3.12801">
        <ele>135</ele>
        <time>2016-03-03T14:28:39Z</time>
      </trkpt>
      <trkpt lat="48.21539" lon="-3.12799">
        <ele>135</ele>
        <time>2016-03-03T14:28:43Z</time>
      </trkpt>
      <trkpt lat="48.21536" lon="-3.12799">
        <ele>134</ele>
        <time>2016-03-03T14:28:46Z</time>
      </trkpt>
      <trkpt lat="48.21534" lon="-3.128">
        <ele>134</ele>
        <time>2016-03-03T14:28:49Z</time>
      </trkpt>
      <trkpt lat="48.2153" lon="-3.128">
        <ele>134</ele>
        <time>2016-03-03T14:28:52Z</time>
      </trkpt>
      <trkpt lat="48.21526" lon="-3.128">
        <ele>134</ele>
        <time>2016-03-03T14:28:55Z</time>
      </trkpt>
      <trkpt lat="48.21523" lon="-3.128">
        <ele>134</ele>
        <time>2016-03-03T14:28:58Z</time>
      </trkpt>
      <trkpt lat="48.21518" lon="-3.128">
        <ele>133</ele>
        <time>2016-03-03T14:29:02Z</time>
      </trkpt>
      <trkpt lat="48.21515" lon="-3.128">
        <ele>133</ele>
        <time>2016-03-03T14:29:05Z</time>
      </trkpt>
      <trkpt lat="48.21511" lon="-3.128">
        <ele>133</ele>
        <time>2016-03-03T14:29:08Z</time>
      </trkpt>
      <trkpt lat="48.21508" lon="-3.128">
        <ele>133</ele>
        <time>2016-03-03T14:29:11Z</time>
      </trkpt>
      <trkpt lat="48.21503" lon="-3.12801">
        <ele>133</ele>
        <time>2016-03-03T14:29:15Z</time>
      </trkpt>
      <trkpt lat="48.215" lon="-3.12801">
        <ele>133</ele>
        <time>2016-03-03T14:29:18Z</time>
      </trkpt>
      <trkpt lat="48.21496" lon="-3.128">
        <ele>133</ele>
        <time>2016-03-03T14:29:21Z</time>
      </trkpt>
      <trkpt lat="48.21492" lon="-3.12799">
        <ele>133</ele>
        <time>2016-03-03T14:29:25Z</time>
      </trkpt>
      <trkpt lat="48.21488" lon="-3.12799">
        <ele>133</ele>
        <time>2016-03-03T14:29:29Z</time>
      </trkpt>
      <trkpt lat="48.21484" lon="-3.12798">
        <ele>133</ele>
        <time>2016-03-03T14:29:33Z</time>
      </trkpt>
      <trkpt lat="48.21481" lon="-3.12798">
        <ele>133</ele>
        <time>2016-03-03T14:29:36Z</time>
      </trkpt>
      <trkpt lat="48.21478" lon="-3.12797">
        <ele>132</ele>
        <time>2016-03-03T14:29:39Z</time>
      </trkpt>
      <trkpt lat="48.21473" lon="-3.12797">
        <ele>132</ele>
        <time>2016-03-03T14:29:43Z</time>
      </trkpt>
      <trkpt lat="48.21469" lon="-3.12798">
        <ele>132</ele>
        <time>2016-03-03T14:29:46Z</time>
      </trkpt>
      <trkpt lat="48.21465" lon="-3.12799">
        <ele>131</ele>
        <time>2016-03-03T14:29:49Z</time>
      </trkpt>
      <trkpt lat="48.21461" lon="-3.12799">
        <ele>130</ele>
        <time>2016-03-03T14:29:52Z</time>
      </trkpt>
      <trkpt lat="48.21458" lon="-3.12798">
        <ele>129</ele>
        <time>2016-03-03T14:29:56Z</time>
      </trkpt>
      <trkpt lat="48.21455" lon="-3.12799">
        <ele>128</ele>
        <time>2016-03-03T14:29:59Z</time>
      </trkpt>
      <trkpt lat="48.21451" lon="-3.128">
        <ele>127</ele>
        <time>2016-03-03T14:30:02Z</time>
      </trkpt>
      <trkpt lat="48.21447" lon="-3.128">
        <ele>127</ele>
        <time>2016-03-03T14:30:05Z</time>
      </trkpt>
      <trkpt lat="48.21443" lon="-3.128">
        <ele>127</ele>
        <time>2016-03-03T14:30:08Z</time>
      </trkpt>
      <trkpt lat="48.21439" lon="-3.128">
        <ele>126</ele>
        <time>2016-03-03T14:30:11Z</time>
      </trkpt>
      <trkpt lat="48.21436" lon="-3.12798">
        <ele>126</ele>
        <time>2016-03-03T14:30:14Z</time>
      </trkpt>
      <trkpt lat="48.21431" lon="-3.12797">
        <ele>126</ele>
        <time>2016-03-03T14:30:17Z</time>
      </trkpt>
      <trkpt lat="48.21428" lon="-3.12799">
        <ele>126</ele>
        <time>2016-03-03T14:30:20Z</time>
      </trkpt>
      <trkpt lat="48.21424" lon="-3.12801">
        <ele>126</ele>
        <time>2016-03-03T14:30:23Z</time>
      </trkpt>
      <trkpt lat="48.2142" lon="-3.12803">
        <ele>126</ele>
        <time>2016-03-03T14:30:26Z</time>
      </trkpt>
      <trkpt lat="48.21415" lon="-3.12804">
        <ele>126</ele>
        <time>2016-03-03T14:30:29Z</time>
      </trkpt>
      <trkpt lat="48.21412" lon="-3.12805">
        <ele>126</ele>
        <time>2016-03-03T14:30:32Z</time>
      </trkpt>
      <trkpt lat="48.21408" lon="-3.12806">
        <ele>126</ele>
        <time>2016-03-03T14:30:35Z</time>
      </trkpt>
      <trkpt lat="48.21404" lon="-3.12806">
        <ele>126</ele>
        <time>2016-03-03T14:30:38Z</time>
      </trkpt>
      <trkpt lat="48.214" lon="-3.12807">
        <ele>126</ele>
        <time>2016-03-03T14:30:41Z</time>
      </trkpt>
      <trkpt lat="48.21396" lon="-3.12807">
        <ele>126</ele>
        <time>2016-03-03T14:30:44Z</time>
      </trkpt>
      <trkpt lat="48.21392" lon="-3.12808">
        <ele>126</ele>
        <time>2016-03-03T14:30:47Z</time>
      </trkpt>
      <trkpt lat="48.21389" lon="-3.12808">
        <ele>126</ele>
        <time>2016-03-03T14:30:50Z</time>
      </trkpt>
      <trkpt lat="48.21385" lon="-3.12809">
        <ele>125</ele>
        <time>2016-03-03T14:30:53Z</time>
      </trkpt>
      <trkpt lat="48.21382" lon="-3.12811">
        <ele>125</ele>
        <time>2016-03-03T14:30:56Z</time>
      </trkpt>
      <trkpt lat="48.21378" lon="-3.12813">
        <ele>125</ele>
        <time>2016-03-03T14:30:59Z</time>
      </trkpt>
      <trkpt lat="48.21375" lon="-3.12815">
        <ele>125</ele>
        <time>2016-03-03T14:31:02Z</time>
      </trkpt>
      <trkpt lat="48.21371" lon="-3.12817">
        <ele>125</ele>
        <time>2016-03-03T14:31:05Z</time>
      </trkpt>
      <trkpt lat="48.21368" lon="-3.12818">
        <ele>125</ele>
        <time>2016-03-03T14:31:08Z</time>
      </trkpt>
      <trkpt lat="48.21364" lon="-3.1282">
        <ele>125</ele>
        <time>2016-03-03T14:31:11Z</time>
      </trkpt>
      <trkpt lat="48.2136" lon="-3.12822">
        <ele>125</ele>
        <time>2016-03-03T14:31:14Z</time>
      </trkpt>
      <trkpt lat="48.21356" lon="-3.12826">
        <ele>125</ele>
        <time>2016-03-03T14:31:18Z</time>
      </trkpt>
      <trkpt lat="48.21352" lon="-3.12829">
        <ele>125</ele>
        <time>2016-03-03T14:31:21Z</time>
      </trkpt>
      <trkpt lat="48.21347" lon="-3.12833">
        <ele>125</ele>
        <time>2016-03-03T14:31:25Z</time>
      </trkpt>
      <trkpt lat="48.21344" lon="-3.12836">
        <ele>125</ele>
        <time>2016-03-03T14:31:28Z</time>
      </trkpt>
      <trkpt lat="48.21341" lon="-3.1284">
        <ele>125</ele>
        <time>2016-03-03T14:31:31Z</time>
      </trkpt>
      <trkpt lat="48.21338" lon="-3.12844">
        <ele>125</ele>
        <time>2016-03-03T14:31:34Z</time>
      </trkpt>
      <trkpt lat="48.21334" lon="-3.12848">
        <ele>125</ele>
        <time>2016-03-03T14:31:38Z</time>
      </trkpt>
      <trkpt lat="48.21332" lon="-3.12852">
        <ele>125</ele>
        <time>2016-03-03T14:31:42Z</time>
      </trkpt>
      <trkpt lat="48.21328" lon="-3.12857">
        <ele>125</ele>
        <time>2016-03-03T14:31:45Z</time>
      </trkpt>
      <trkpt lat="48.21328" lon="-3.12856">
        <ele>126</ele>
        <time>2016-03-03T14:32:00Z</time>
      </trkpt>
      <trkpt lat="48.21331" lon="-3.12852">
        <ele>126</ele>
        <time>2016-03-03T14:32:05Z</time>
      </trkpt>
      <trkpt lat="48.2133" lon="-3.12856">
        <ele>126</ele>
        <time>2016-03-03T14:32:08Z</time>
      </trkpt>
      <trkpt lat="48.21326" lon="-3.1286">
        <ele>126</ele>
        <time>2016-03-03T14:32:12Z</time>
      </trkpt>
      <trkpt lat="48.21325" lon="-3.12861">
        <ele>126</ele>
        <time>2016-03-03T14:32:16Z</time>
      </trkpt>
      <trkpt lat="48.21326" lon="-3.12861">
        <ele>127</ele>
        <time>2016-03-03T14:32:23Z</time>
      </trkpt>
      <trkpt lat="48.21328" lon="-3.12861">
        <ele>129</ele>
        <time>2016-03-03T14:32:35Z</time>
      </trkpt>
      <trkpt lat="48.21327" lon="-3.12859">
        <ele>129</ele>
        <time>2016-03-03T14:32:43Z</time>
      </trkpt>
      <trkpt lat="48.21325" lon="-3.12853">
        <ele>129</ele>
        <time>2016-03-03T14:32:47Z</time>
      </trkpt>
      <trkpt lat="48.21321" lon="-3.12848">
        <ele>129</ele>
        <time>2016-03-03T14:32:50Z</time>
      </trkpt>
      <trkpt lat="48.21319" lon="-3.12842">
        <ele>129</ele>
        <time>2016-03-03T14:32:54Z</time>
      </trkpt>
      <trkpt lat="48.21319" lon="-3.12837">
        <ele>129</ele>
        <time>2016-03-03T14:32:58Z</time>
      </trkpt>
      <trkpt lat="48.21321" lon="-3.12832">
        <ele>129</ele>
        <time>2016-03-03T14:33:02Z</time>
      </trkpt>
      <trkpt lat="48.21325" lon="-3.12828">
        <ele>129</ele>
        <time>2016-03-03T14:33:06Z</time>
      </trkpt>
      <trkpt lat="48.21328" lon="-3.12825">
        <ele>129</ele>
        <time>2016-03-03T14:33:10Z</time>
      </trkpt>
      <trkpt lat="48.21331" lon="-3.12823">
        <ele>129</ele>
        <time>2016-03-03T14:33:14Z</time>
      </trkpt>
      <trkpt lat="48.21331" lon="-3.12823">
        <ele>129</ele>
        <time>2016-03-03T14:33:16Z</time>
      </trkpt>
    </trkseg>
  </trk>
</gpx>